<?xml version='1.0' encoding='UTF-8'?><gpx version="1.1" creator="JPX - https://github.com/jenetics/jpx" xmlns="http://www.topografix.com/GPX/1/1"><trk><trkseg><trkpt lat="42.92538963001247" lon="10.52269621923196"><ele>30.0</ele><time>2026-04-19T08:40:57Z</time></trkpt><trkpt lat="42.925399083855886" lon="10.52259197441312"><ele>30.0</ele><time>2026-04-19T08:41:00Z</time></trkpt><trkpt lat="42.9254070177929" lon="10.522476794532084"><ele>30.0</ele><time>2026-04-19T08:41:03Z</time></trkpt><trkpt lat="42.92543799920022" lon="10.522368906267317"><ele>30.0</ele><time>2026-04-19T08:41:05Z</time></trkpt><trkpt lat="42.92546003174703" lon="10.522267492255857"><ele>30.0</ele><time>2026-04-19T08:41:07Z</time></trkpt><trkpt lat="42.92548021104842" lon="10.522166635790194"><ele>30.0</ele><time>2026-04-19T08:41:09Z</time></trkpt><trkpt lat="42.925464415507186" lon="10.522078415059472"><ele>30.0</ele><time>2026-04-19T08:41:11.001Z</time></trkpt><trkpt lat="42.92550679188868" lon="10.521951846701665"><ele>30.0</ele><time>2026-04-19T08:41:14.001Z</time></trkpt><trkpt lat="42.92552144862937" lon="10.521867414940704"><ele>30.0</ele><time>2026-04-19T08:41:16.001Z</time></trkpt><trkpt lat="42.92552175035467" lon="10.521769986463092"><ele>30.0</ele><time>2026-04-19T08:41:21.001Z</time></trkpt><trkpt lat="42.925536340028444" lon="10.52167946366461"><ele>30.0</ele><time>2026-04-19T08:41:23.001Z</time></trkpt><trkpt lat="42.9255364054302" lon="10.521583599612077"><ele>30.0</ele><time>2026-04-19T08:41:25.001Z</time></trkpt><trkpt lat="42.92555100143283" lon="10.52149111978479"><ele>30.0</ele><time>2026-04-19T08:41:27.001Z</time></trkpt><trkpt lat="42.92555784269251" lon="10.521405612317215"><ele>30.0</ele><time>2026-04-19T08:41:29.001Z</time></trkpt><trkpt lat="42.92558075736723" lon="10.521271572178023"><ele>30.0</ele><time>2026-04-19T08:41:32.001Z</time></trkpt><trkpt lat="42.925615321446976" lon="10.521145090994592"><ele>30.0</ele><time>2026-04-19T08:41:35.001Z</time></trkpt><trkpt lat="42.925674051560655" lon="10.521108836173982"><ele>30.0</ele><time>2026-04-19T08:41:37Z</time></trkpt><trkpt lat="42.92575544311949" lon="10.521051557509734"><ele>30.0</ele><time>2026-04-19T08:41:40Z</time></trkpt><trkpt lat="42.92581510977564" lon="10.520989533454085"><ele>30.0</ele><time>2026-04-19T08:41:44Z</time></trkpt><trkpt lat="42.92588882547983" lon="10.520929878955199"><ele>30.5</ele><time>2026-04-19T08:41:48Z</time></trkpt><trkpt lat="42.925951988034974" lon="10.520882170783276"><ele>31.0</ele><time>2026-04-19T08:41:51Z</time></trkpt><trkpt lat="42.925987693347544" lon="10.520802608427179"><ele>31.5</ele><time>2026-04-19T08:41:53Z</time></trkpt><trkpt lat="42.92602003446054" lon="10.520709486973017"><ele>32.0</ele><time>2026-04-19T08:41:55Z</time></trkpt><trkpt lat="42.92604566492612" lon="10.520621508776207"><ele>32.5</ele><time>2026-04-19T08:41:57Z</time></trkpt><trkpt lat="42.925981783964104" lon="10.520542268767732"><ele>33.0</ele><time>2026-04-19T08:41:59Z</time></trkpt><trkpt lat="42.92593098238164" lon="10.520460048891726"><ele>32.833333333333336</ele><time>2026-04-19T08:42:01Z</time></trkpt><trkpt lat="42.92586463001889" lon="10.520380452900719"><ele>32.666666666666664</ele><time>2026-04-19T08:42:04Z</time></trkpt><trkpt lat="42.92582565226384" lon="10.520275325398893"><ele>32.5</ele><time>2026-04-19T08:42:07Z</time></trkpt><trkpt lat="42.925809083439724" lon="10.520191380752253"><ele>32.33333333333333</ele><time>2026-04-19T08:42:09Z</time></trkpt><trkpt lat="42.925771461790795" lon="10.520120557357716"><ele>32.166666666666664</ele><time>2026-04-19T08:42:11Z</time></trkpt><trkpt lat="42.92569076132309" lon="10.520032526079468"><ele>32.0</ele><time>2026-04-19T08:42:14Z</time></trkpt><trkpt lat="42.92566274132902" lon="10.519950583067097"><ele>31.999999999999996</ele><time>2026-04-19T08:42:16Z</time></trkpt><trkpt lat="42.9256600019485" lon="10.519825880801154"><ele>32.0</ele><time>2026-04-19T08:42:19Z</time></trkpt><trkpt lat="42.92570251980994" lon="10.519743309390359"><ele>32.0</ele><time>2026-04-19T08:42:22Z</time></trkpt><trkpt lat="42.92576879746719" lon="10.519690219294317"><ele>32.0</ele><time>2026-04-19T08:42:25Z</time></trkpt><trkpt lat="42.92584139916751" lon="10.519612900340631"><ele>31.999999999999996</ele><time>2026-04-19T08:42:28Z</time></trkpt><trkpt lat="42.92590651906415" lon="10.519548259500878"><ele>32.0</ele><time>2026-04-19T08:42:31Z</time></trkpt><trkpt lat="42.92598980265386" lon="10.51947405311293"><ele>31.499999999999996</ele><time>2026-04-19T08:42:34Z</time></trkpt><trkpt lat="42.92606185802532" lon="10.519420783629421"><ele>31.0</ele><time>2026-04-19T08:42:37Z</time></trkpt><trkpt lat="42.92613289995014" lon="10.519353686343464"><ele>30.5</ele><time>2026-04-19T08:42:40Z</time></trkpt><trkpt lat="42.92620082398052" lon="10.519301493458633"><ele>30.0</ele><time>2026-04-19T08:42:43Z</time></trkpt><trkpt lat="42.92626375978746" lon="10.519265878950462"><ele>29.499999999999996</ele><time>2026-04-19T08:42:45Z</time></trkpt><trkpt lat="42.92632932207244" lon="10.519203835236144"><ele>29.0</ele><time>2026-04-19T08:42:48Z</time></trkpt><trkpt lat="42.92640070274636" lon="10.519138852491025"><ele>28.999999999999996</ele><time>2026-04-19T08:42:51Z</time></trkpt><trkpt lat="42.926471109337804" lon="10.519081043942673"><ele>29.0</ele><time>2026-04-19T08:42:54Z</time></trkpt><trkpt lat="42.92653728697738" lon="10.519009753868017"><ele>29.0</ele><time>2026-04-19T08:42:57Z</time></trkpt><trkpt lat="42.92661260861764" lon="10.518942665189925"><ele>29.0</ele><time>2026-04-19T08:43:00Z</time></trkpt><trkpt lat="42.9266852877901" lon="10.51888525025111"><ele>28.999999999999996</ele><time>2026-04-19T08:43:03Z</time></trkpt><trkpt lat="42.926750589140134" lon="10.518816425038173"><ele>29.0</ele><time>2026-04-19T08:43:06Z</time></trkpt><trkpt lat="42.926806401301285" lon="10.518769143789802"><ele>28.833333333333332</ele><time>2026-04-19T08:43:08Z</time></trkpt><trkpt lat="42.92687252218272" lon="10.518707244750974"><ele>28.666666666666664</ele><time>2026-04-19T08:43:11Z</time></trkpt><trkpt lat="42.92694206086798" lon="10.51864980435483"><ele>28.5</ele><time>2026-04-19T08:43:14Z</time></trkpt><trkpt lat="42.92700075792944" lon="10.518590808033428"><ele>28.333333333333336</ele><time>2026-04-19T08:43:17Z</time></trkpt><trkpt lat="42.927070576933374" lon="10.51852931638839"><ele>28.166666666666668</ele><time>2026-04-19T08:43:20Z</time></trkpt><trkpt lat="42.927145950463554" lon="10.51846749125156"><ele>28.0</ele><time>2026-04-19T08:43:23Z</time></trkpt><trkpt lat="42.92721310733443" lon="10.518407857715324"><ele>28.000000000000004</ele><time>2026-04-19T08:43:26Z</time></trkpt><trkpt lat="42.92728714115441" lon="10.518348953718423"><ele>28.0</ele><time>2026-04-19T08:43:28.997Z</time></trkpt><trkpt lat="42.92735346202248" lon="10.518287599890261"><ele>28.0</ele><time>2026-04-19T08:43:31.997Z</time></trkpt><trkpt lat="42.92740907055488" lon="10.518247094175646"><ele>28.0</ele><time>2026-04-19T08:43:33.998Z</time></trkpt><trkpt lat="42.92747911466231" lon="10.518176466246741"><ele>28.000000000000004</ele><time>2026-04-19T08:43:36.998Z</time></trkpt><trkpt lat="42.92756991214501" lon="10.51812531087657"><ele>28.0</ele><time>2026-04-19T08:43:39.998Z</time></trkpt><trkpt lat="42.92764582414189" lon="10.518067663019755"><ele>28.000000000000004</ele><time>2026-04-19T08:43:42.998Z</time></trkpt><trkpt lat="42.92772367217252" lon="10.518040543260401"><ele>28.0</ele><time>2026-04-19T08:43:45.998Z</time></trkpt><trkpt lat="42.927797172129" lon="10.518000277335764"><ele>28.0</ele><time>2026-04-19T08:43:48.998Z</time></trkpt><trkpt lat="42.9278749328834" lon="10.51795291473582"><ele>28.0</ele><time>2026-04-19T08:43:51.999Z</time></trkpt><trkpt lat="42.927958393622845" lon="10.517909719658544"><ele>28.000000000000004</ele><time>2026-04-19T08:43:54.999Z</time></trkpt><trkpt lat="42.92801696732238" lon="10.517864087938921"><ele>28.0</ele><time>2026-04-19T08:43:57.999Z</time></trkpt><trkpt lat="42.9281089839791" lon="10.517840246884752"><ele>27.833333333333336</ele><time>2026-04-19T08:44:00.999Z</time></trkpt><trkpt lat="42.928188574977625" lon="10.517820092809698"><ele>27.666666666666668</ele><time>2026-04-19T08:44:03.999Z</time></trkpt><trkpt lat="42.92826388783878" lon="10.517766656864298"><ele>27.5</ele><time>2026-04-19T08:44:07.999Z</time></trkpt><trkpt lat="42.928347566290455" lon="10.517722669106755"><ele>27.333333333333336</ele><time>2026-04-19T08:44:10.999Z</time></trkpt><trkpt lat="42.92844007593715" lon="10.5176989744859"><ele>27.166666666666668</ele><time>2026-04-19T08:44:13.999Z</time></trkpt><trkpt lat="42.9285167566617" lon="10.517651777059235"><ele>27.0</ele><time>2026-04-19T08:44:16.999Z</time></trkpt><trkpt lat="42.928583262230454" lon="10.51762580316505"><ele>27.0</ele><time>2026-04-19T08:44:18.999Z</time></trkpt><trkpt lat="42.928640544316906" lon="10.51759008314884"><ele>27.0</ele><time>2026-04-19T08:44:20.999Z</time></trkpt><trkpt lat="42.92871496328463" lon="10.517571711505925"><ele>27.0</ele><time>2026-04-19T08:44:22.999Z</time></trkpt><trkpt lat="42.928783133766714" lon="10.517543505179596"><ele>27.0</ele><time>2026-04-19T08:44:25.999Z</time></trkpt><trkpt lat="42.928848325197606" lon="10.517482277343595"><ele>27.0</ele><time>2026-04-19T08:44:29Z</time></trkpt><trkpt lat="42.92891325192986" lon="10.517436217986107"><ele>27.0</ele><time>2026-04-19T08:44:31Z</time></trkpt><trkpt lat="42.92895794036074" lon="10.51733000971193"><ele>27.0</ele><time>2026-04-19T08:44:34Z</time></trkpt><trkpt lat="42.928947122857146" lon="10.517232614486472"><ele>27.0</ele><time>2026-04-19T08:44:36Z</time></trkpt><trkpt lat="42.92893306943072" lon="10.517130082363188"><ele>27.0</ele><time>2026-04-19T08:44:39Z</time></trkpt><trkpt lat="42.92896964581777" lon="10.517056276366343"><ele>27.0</ele><time>2026-04-19T08:44:41Z</time></trkpt><trkpt lat="42.92900037413326" lon="10.516958120348644"><ele>27.0</ele><time>2026-04-19T08:44:44Z</time></trkpt><trkpt lat="42.92902029997378" lon="10.516871153452223"><ele>27.0</ele><time>2026-04-19T08:44:46Z</time></trkpt><trkpt lat="42.92902947635764" lon="10.516783373394924"><ele>27.0</ele><time>2026-04-19T08:44:49Z</time></trkpt><trkpt lat="42.92906566911044" lon="10.516678495214533"><ele>27.833333333333332</ele><time>2026-04-19T08:44:52Z</time></trkpt><trkpt lat="42.929120681665744" lon="10.516588449165"><ele>28.666666666666664</ele><time>2026-04-19T08:44:55Z</time></trkpt><trkpt lat="42.929175627172185" lon="10.516513373618944"><ele>29.5</ele><time>2026-04-19T08:44:58Z</time></trkpt><trkpt lat="42.92924398040731" lon="10.516437518424574"><ele>30.333333333333332</ele><time>2026-04-19T08:45:01Z</time></trkpt><trkpt lat="42.92931491169425" lon="10.516359659962069"><ele>31.166666666666664</ele><time>2026-04-19T08:45:04Z</time></trkpt><trkpt lat="42.929372965089726" lon="10.516287321945116"><ele>32.0</ele><time>2026-04-19T08:45:07Z</time></trkpt><trkpt lat="42.929438223423475" lon="10.516211546948524"><ele>29.999999999999996</ele><time>2026-04-19T08:45:10Z</time></trkpt><trkpt lat="42.929489542681104" lon="10.516157359278907"><ele>28.0</ele><time>2026-04-19T08:45:12Z</time></trkpt><trkpt lat="42.92954162904702" lon="10.51609086410423"><ele>26.0</ele><time>2026-04-19T08:45:15Z</time></trkpt><trkpt lat="42.929582873190434" lon="10.516025062987756"><ele>24.0</ele><time>2026-04-19T08:45:17Z</time></trkpt><trkpt lat="42.92963969586016" lon="10.515947808205663"><ele>22.0</ele><time>2026-04-19T08:45:20Z</time></trkpt><trkpt lat="42.92971413641798" lon="10.515894483179766"><ele>20.0</ele><time>2026-04-19T08:45:23Z</time></trkpt><trkpt lat="42.92975536094019" lon="10.515775512207643"><ele>20.0</ele><time>2026-04-19T08:45:26Z</time></trkpt><trkpt lat="42.92981372964827" lon="10.515701646432888"><ele>20.0</ele><time>2026-04-19T08:45:29Z</time></trkpt><trkpt lat="42.929858853715125" lon="10.515612809037128"><ele>20.0</ele><time>2026-04-19T08:45:32Z</time></trkpt><trkpt lat="42.92990393301859" lon="10.515527654532422"><ele>20.0</ele><time>2026-04-19T08:45:34.996Z</time></trkpt><trkpt lat="42.929956678084366" lon="10.515424308275133"><ele>20.0</ele><time>2026-04-19T08:45:37.997Z</time></trkpt><trkpt lat="42.929997532933804" lon="10.515319945559725"><ele>20.0</ele><time>2026-04-19T08:45:40.997Z</time></trkpt><trkpt lat="42.93003855821091" lon="10.51523857528364"><ele>22.333333333333336</ele><time>2026-04-19T08:45:43.997Z</time></trkpt><trkpt lat="42.93009110259733" lon="10.515152465968294"><ele>24.666666666666668</ele><time>2026-04-19T08:45:46.997Z</time></trkpt><trkpt lat="42.93013260148627" lon="10.515058886183114"><ele>27.0</ele><time>2026-04-19T08:45:49.998Z</time></trkpt><trkpt lat="42.930180235691026" lon="10.514975136529923"><ele>29.333333333333336</ele><time>2026-04-19T08:45:52.998Z</time></trkpt><trkpt lat="42.93021726534162" lon="10.514885651690062"><ele>31.666666666666668</ele><time>2026-04-19T08:45:55.998Z</time></trkpt><trkpt lat="42.93026460861163" lon="10.51478221112601"><ele>34.0</ele><time>2026-04-19T08:45:58.998Z</time></trkpt><trkpt lat="42.930300218533255" lon="10.514694242968622"><ele>34.0</ele><time>2026-04-19T08:46:01.998Z</time></trkpt><trkpt lat="42.93035134100191" lon="10.51461171744963"><ele>34.0</ele><time>2026-04-19T08:46:04.999Z</time></trkpt><trkpt lat="42.930401230098525" lon="10.514532430544314"><ele>34.0</ele><time>2026-04-19T08:46:07.999Z</time></trkpt><trkpt lat="42.93045536133758" lon="10.514448481772225"><ele>34.0</ele><time>2026-04-19T08:46:10.999Z</time></trkpt><trkpt lat="42.9305271470496" lon="10.514379458749186"><ele>34.0</ele><time>2026-04-19T08:46:13.999Z</time></trkpt><trkpt lat="42.930580045435086" lon="10.514313260596149"><ele>34.0</ele><time>2026-04-19T08:46:15.999Z</time></trkpt><trkpt lat="42.93062564994192" lon="10.514237512744872"><ele>32.66666666666667</ele><time>2026-04-19T08:46:18.999Z</time></trkpt><trkpt lat="42.93068617597714" lon="10.514158893980383"><ele>31.333333333333336</ele><time>2026-04-19T08:46:21.999Z</time></trkpt><trkpt lat="42.930744567500035" lon="10.514083359196027"><ele>30.0</ele><time>2026-04-19T08:46:24.999Z</time></trkpt><trkpt lat="42.93079964954682" lon="10.514011242516728"><ele>28.666666666666664</ele><time>2026-04-19T08:46:27.999Z</time></trkpt><trkpt lat="42.93085374943116" lon="10.513949468478742"><ele>27.333333333333332</ele><time>2026-04-19T08:46:30.999Z</time></trkpt><trkpt lat="42.9309207081601" lon="10.513868246311313"><ele>26.0</ele><time>2026-04-19T08:46:34Z</time></trkpt><trkpt lat="42.930982942523016" lon="10.51380976473073"><ele>24.499999999999996</ele><time>2026-04-19T08:46:37Z</time></trkpt><trkpt lat="42.93104558800743" lon="10.51373197165707"><ele>23.0</ele><time>2026-04-19T08:46:40Z</time></trkpt><trkpt lat="42.931102979435394" lon="10.513644532020411"><ele>21.5</ele><time>2026-04-19T08:46:43Z</time></trkpt><trkpt lat="42.9311496273427" lon="10.513585264539804"><ele>20.0</ele><time>2026-04-19T08:46:45Z</time></trkpt><trkpt lat="42.9312162950903" lon="10.513504549497389"><ele>18.5</ele><time>2026-04-19T08:46:48Z</time></trkpt><trkpt lat="42.93126919159559" lon="10.513440957121306"><ele>17.0</ele><time>2026-04-19T08:46:50Z</time></trkpt><trkpt lat="42.931343586729525" lon="10.513377715221127"><ele>17.0</ele><time>2026-04-19T08:46:53Z</time></trkpt><trkpt lat="42.93141806072345" lon="10.513321902751406"><ele>17.0</ele><time>2026-04-19T08:46:56Z</time></trkpt><trkpt lat="42.9314996327862" lon="10.51326627999264"><ele>17.0</ele><time>2026-04-19T08:46:59Z</time></trkpt><trkpt lat="42.931566399086556" lon="10.513248289073012"><ele>17.0</ele><time>2026-04-19T08:47:01Z</time></trkpt><trkpt lat="42.93162734221826" lon="10.513215238543108"><ele>17.0</ele><time>2026-04-19T08:47:03Z</time></trkpt><trkpt lat="42.93169783621704" lon="10.513188302627377"><ele>17.0</ele><time>2026-04-19T08:47:06Z</time></trkpt><trkpt lat="42.93177178954172" lon="10.513197003474057"><ele>17.833333333333336</ele><time>2026-04-19T08:47:09Z</time></trkpt><trkpt lat="42.93184753090675" lon="10.513208507881965"><ele>18.666666666666668</ele><time>2026-04-19T08:47:12Z</time></trkpt><trkpt lat="42.93192744759434" lon="10.513181735506945"><ele>19.5</ele><time>2026-04-19T08:47:15Z</time></trkpt><trkpt lat="42.93201113262712" lon="10.513142755023024"><ele>20.333333333333332</ele><time>2026-04-19T08:47:19Z</time></trkpt><trkpt lat="42.932073313952216" lon="10.513101052476317"><ele>21.166666666666664</ele><time>2026-04-19T08:47:21Z</time></trkpt><trkpt lat="42.93214858600105" lon="10.513052566375968"><ele>22.0</ele><time>2026-04-19T08:47:24.001Z</time></trkpt><trkpt lat="42.93221342541529" lon="10.513008104237805"><ele>22.0</ele><time>2026-04-19T08:47:27.001Z</time></trkpt><trkpt lat="42.932305472572835" lon="10.512962170257765"><ele>22.0</ele><time>2026-04-19T08:47:30.001Z</time></trkpt><trkpt lat="42.93237128638018" lon="10.512881897232203"><ele>22.0</ele><time>2026-04-19T08:47:33.001Z</time></trkpt><trkpt lat="42.932430330643506" lon="10.512798121739591"><ele>22.0</ele><time>2026-04-19T08:47:36.001Z</time></trkpt><trkpt lat="42.93247012447141" lon="10.512698319688724"><ele>22.0</ele><time>2026-04-19T08:47:38.997Z</time></trkpt><trkpt lat="42.932508362075" lon="10.512596925938727"><ele>22.0</ele><time>2026-04-19T08:47:41.997Z</time></trkpt><trkpt lat="42.93253009853673" lon="10.512509659914302"><ele>22.0</ele><time>2026-04-19T08:47:44.997Z</time></trkpt><trkpt lat="42.932553188629655" lon="10.512419680318274"><ele>22.0</ele><time>2026-04-19T08:47:47.997Z</time></trkpt><trkpt lat="42.93257570373455" lon="10.512332361307086"><ele>22.0</ele><time>2026-04-19T08:47:50.997Z</time></trkpt><trkpt lat="42.93260505147688" lon="10.512218463290345"><ele>22.0</ele><time>2026-04-19T08:47:53.998Z</time></trkpt><trkpt lat="42.932651425612434" lon="10.512130175865888"><ele>22.0</ele><time>2026-04-19T08:47:56.998Z</time></trkpt><trkpt lat="42.932666000153134" lon="10.512038948937532"><ele>22.0</ele><time>2026-04-19T08:47:58.998Z</time></trkpt><trkpt lat="42.93270075788574" lon="10.511955614606343"><ele>22.0</ele><time>2026-04-19T08:48:01.998Z</time></trkpt><trkpt lat="42.93273622918376" lon="10.511863342995438"><ele>22.0</ele><time>2026-04-19T08:48:04.998Z</time></trkpt><trkpt lat="42.93278271028335" lon="10.51176145558709"><ele>22.0</ele><time>2026-04-19T08:48:08.999Z</time></trkpt><trkpt lat="42.93282536462911" lon="10.511667804926702"><ele>22.0</ele><time>2026-04-19T08:48:11.999Z</time></trkpt><trkpt lat="42.93287696943699" lon="10.511584400266305"><ele>22.0</ele><time>2026-04-19T08:48:14.999Z</time></trkpt><trkpt lat="42.93290427144884" lon="10.51148711314383"><ele>22.0</ele><time>2026-04-19T08:48:17.999Z</time></trkpt><trkpt lat="42.9329065183044" lon="10.511358949060183"><ele>22.0</ele><time>2026-04-19T08:48:20.999Z</time></trkpt><trkpt lat="42.93291682258799" lon="10.511239045595266"><ele>21.285714285714285</ele><time>2026-04-19T08:48:23.999Z</time></trkpt><trkpt lat="42.93292303772603" lon="10.511144998715721"><ele>20.57142857142857</ele><time>2026-04-19T08:48:25.999Z</time></trkpt><trkpt lat="42.93293129643372" lon="10.511038850878862"><ele>19.857142857142854</ele><time>2026-04-19T08:48:28.999Z</time></trkpt><trkpt lat="42.93294109135999" lon="10.510951475032133"><ele>19.142857142857142</ele><time>2026-04-19T08:48:31Z</time></trkpt><trkpt lat="42.932951270763375" lon="10.510838838187437"><ele>18.428571428571427</ele><time>2026-04-19T08:48:34Z</time></trkpt><trkpt lat="42.93299691066854" lon="10.510740634656312"><ele>17.71428571428571</ele><time>2026-04-19T08:48:37Z</time></trkpt><trkpt lat="42.93303384630412" lon="10.51066648574181"><ele>17.0</ele><time>2026-04-19T08:48:39Z</time></trkpt><trkpt lat="42.93305774658729" lon="10.510580154677625"><ele>17.0</ele><time>2026-04-19T08:48:41Z</time></trkpt><trkpt lat="42.93309979322274" lon="10.51046830467175"><ele>17.0</ele><time>2026-04-19T08:48:44Z</time></trkpt><trkpt lat="42.93313167918218" lon="10.510342418693734"><ele>17.0</ele><time>2026-04-19T08:48:47Z</time></trkpt><trkpt lat="42.93314783217748" lon="10.510224297968122"><ele>17.0</ele><time>2026-04-19T08:48:50Z</time></trkpt><trkpt lat="42.933166384533" lon="10.510107368182574"><ele>17.0</ele><time>2026-04-19T08:48:53Z</time></trkpt><trkpt lat="42.9331734587551" lon="10.509985430288184"><ele>16.5</ele><time>2026-04-19T08:48:56Z</time></trkpt><trkpt lat="42.93318520754896" lon="10.509895559935615"><ele>16.0</ele><time>2026-04-19T08:48:58Z</time></trkpt><trkpt lat="42.93318652199411" lon="10.509801928890022"><ele>15.5</ele><time>2026-04-19T08:49:00Z</time></trkpt><trkpt lat="42.93319044711457" lon="10.50969635132463"><ele>15.0</ele><time>2026-04-19T08:49:03Z</time></trkpt><trkpt lat="42.93318772828316" lon="10.509580621156516"><ele>14.500000000000002</ele><time>2026-04-19T08:49:06.001Z</time></trkpt><trkpt lat="42.9331798180978" lon="10.509472725980594"><ele>14.0</ele><time>2026-04-19T08:49:09.001Z</time></trkpt><trkpt lat="42.933197025071195" lon="10.5093596253306"><ele>13.500000000000002</ele><time>2026-04-19T08:49:12.001Z</time></trkpt><trkpt lat="42.93319888393216" lon="10.509245457625871"><ele>13.0</ele><time>2026-04-19T08:49:15.001Z</time></trkpt><trkpt lat="42.93317085903507" lon="10.509137967887746"><ele>12.5</ele><time>2026-04-19T08:49:18.001Z</time></trkpt><trkpt lat="42.93316112201013" lon="10.509026828990889"><ele>12.0</ele><time>2026-04-19T08:49:21.001Z</time></trkpt><trkpt lat="42.93316791484034" lon="10.508910010531848"><ele>11.5</ele><time>2026-04-19T08:49:23.001Z</time></trkpt><trkpt lat="42.93314689460852" lon="10.508823709313468"><ele>11.0</ele><time>2026-04-19T08:49:25.001Z</time></trkpt><trkpt lat="42.93313448945755" lon="10.508702143578"><ele>10.5</ele><time>2026-04-19T08:49:28.001Z</time></trkpt><trkpt lat="42.93311557597721" lon="10.508598276791702"><ele>10.0</ele><time>2026-04-19T08:49:31.001Z</time></trkpt><trkpt lat="42.93309263987025" lon="10.50850648755439"><ele>9.5</ele><time>2026-04-19T08:49:34.001Z</time></trkpt><trkpt lat="42.93308864885472" lon="10.508398376913311"><ele>9.0</ele><time>2026-04-19T08:49:38.001Z</time></trkpt><trkpt lat="42.93308656638821" lon="10.508293826548485"><ele>8.5</ele><time>2026-04-19T08:49:41.001Z</time></trkpt><trkpt lat="42.93309168477656" lon="10.508186696091975"><ele>8.0</ele><time>2026-04-19T08:49:44.002Z</time></trkpt><trkpt lat="42.93306317963209" lon="10.50809469813488"><ele>7.999999999999999</ele><time>2026-04-19T08:49:46.997Z</time></trkpt><trkpt lat="42.93305675047383" lon="10.507991045825287"><ele>8.0</ele><time>2026-04-19T08:49:49.998Z</time></trkpt><trkpt lat="42.933050166756495" lon="10.507892517929152"><ele>8.0</ele><time>2026-04-19T08:49:52.998Z</time></trkpt><trkpt lat="42.933038341482444" lon="10.507781733557044"><ele>8.0</ele><time>2026-04-19T08:49:56.998Z</time></trkpt><trkpt lat="42.93305542499959" lon="10.507653941689611"><ele>7.999999999999999</ele><time>2026-04-19T08:49:59.998Z</time></trkpt><trkpt lat="42.93307059089681" lon="10.507557122117507"><ele>8.0</ele><time>2026-04-19T08:50:02.998Z</time></trkpt><trkpt lat="42.93310497612694" lon="10.507474830615685"><ele>8.0</ele><time>2026-04-19T08:50:05.998Z</time></trkpt><trkpt lat="42.93313181578749" lon="10.507389786211347"><ele>7.999999999999999</ele><time>2026-04-19T08:50:08.999Z</time></trkpt><trkpt lat="42.933159175258396" lon="10.507312216083529"><ele>8.0</ele><time>2026-04-19T08:50:11.999Z</time></trkpt><trkpt lat="42.933196334827215" lon="10.507239619685889"><ele>8.0</ele><time>2026-04-19T08:50:14.999Z</time></trkpt><trkpt lat="42.93324212276492" lon="10.507172286268558"><ele>7.999999999999999</ele><time>2026-04-19T08:50:17.999Z</time></trkpt><trkpt lat="42.93329547044192" lon="10.50708241507065"><ele>8.0</ele><time>2026-04-19T08:50:21.999Z</time></trkpt><trkpt lat="42.93334295604717" lon="10.507020694615306"><ele>8.0</ele><time>2026-04-19T08:50:24.999Z</time></trkpt><trkpt lat="42.93339915124234" lon="10.50696744657918"><ele>9.5</ele><time>2026-04-19T08:50:28Z</time></trkpt><trkpt lat="42.93343474575105" lon="10.506881111388303"><ele>11.0</ele><time>2026-04-19T08:50:32Z</time></trkpt><trkpt lat="42.933473026469336" lon="10.506788264091915"><ele>12.5</ele><time>2026-04-19T08:50:36Z</time></trkpt><trkpt lat="42.93351227463906" lon="10.506701975275691"><ele>14.0</ele><time>2026-04-19T08:50:40Z</time></trkpt><trkpt lat="42.93352333452781" lon="10.506605909912832"><ele>15.500000000000002</ele><time>2026-04-19T08:50:43Z</time></trkpt><trkpt lat="42.933590075436875" lon="10.506534013762444"><ele>17.0</ele><time>2026-04-19T08:50:47Z</time></trkpt><trkpt lat="42.9336425656953" lon="10.506466071547733"><ele>17.0</ele><time>2026-04-19T08:50:51Z</time></trkpt><trkpt lat="42.93368859985806" lon="10.506384026902497"><ele>17.0</ele><time>2026-04-19T08:50:55.001Z</time></trkpt><trkpt lat="42.933748476795714" lon="10.506322520548329"><ele>17.0</ele><time>2026-04-19T08:50:59.001Z</time></trkpt><trkpt lat="42.93379093309641" lon="10.50622417764891"><ele>17.0</ele><time>2026-04-19T08:51:03.001Z</time></trkpt><trkpt lat="42.93383874890658" lon="10.506147947889033"><ele>17.0</ele><time>2026-04-19T08:51:07.001Z</time></trkpt><trkpt lat="42.93388598295972" lon="10.506074823359135"><ele>17.0</ele><time>2026-04-19T08:51:11.001Z</time></trkpt><trkpt lat="42.93391766129652" lon="10.50598667870652"><ele>17.71428571428571</ele><time>2026-04-19T08:51:15.001Z</time></trkpt><trkpt lat="42.933991834316714" lon="10.505943004977276"><ele>18.428571428571427</ele><time>2026-04-19T08:51:18.001Z</time></trkpt><trkpt lat="42.93404495458101" lon="10.505861920492508"><ele>19.142857142857142</ele><time>2026-04-19T08:51:22.001Z</time></trkpt><trkpt lat="42.934093026352464" lon="10.505803608714745"><ele>19.857142857142854</ele><time>2026-04-19T08:51:25.001Z</time></trkpt><trkpt lat="42.93414051586646" lon="10.505741995414583"><ele>20.57142857142857</ele><time>2026-04-19T08:51:28.002Z</time></trkpt><trkpt lat="42.934152863936085" lon="10.505649239612577"><ele>21.285714285714285</ele><time>2026-04-19T08:51:31.002Z</time></trkpt><trkpt lat="42.93417608800934" lon="10.505562409148784"><ele>22.0</ele><time>2026-04-19T08:51:35.002Z</time></trkpt><trkpt lat="42.93421850322125" lon="10.505496622133055"><ele>22.285714285714285</ele><time>2026-04-19T08:51:38.002Z</time></trkpt><trkpt lat="42.93425218325127" lon="10.50540801614708"><ele>22.57142857142857</ele><time>2026-04-19T08:51:42.002Z</time></trkpt><trkpt lat="42.934313475593235" lon="10.505379299945577"><ele>22.857142857142854</ele><time>2026-04-19T08:51:44.002Z</time></trkpt><trkpt lat="42.93436399180692" lon="10.505326993630826"><ele>23.142857142857142</ele><time>2026-04-19T08:51:47.002Z</time></trkpt><trkpt lat="42.93441872821883" lon="10.50524965564282"><ele>23.428571428571427</ele><time>2026-04-19T08:51:50.002Z</time></trkpt><trkpt lat="42.93447596890904" lon="10.505198388825187"><ele>23.71428571428571</ele><time>2026-04-19T08:51:52.998Z</time></trkpt><trkpt lat="42.93454771241862" lon="10.505117494852438"><ele>24.0</ele><time>2026-04-19T08:51:55.998Z</time></trkpt><trkpt lat="42.93460752766382" lon="10.505038062821386"><ele>23.999999999999996</ele><time>2026-04-19T08:51:58.998Z</time></trkpt><trkpt lat="42.93465586374552" lon="10.504956569102776"><ele>24.0</ele><time>2026-04-19T08:52:01.998Z</time></trkpt><trkpt lat="42.934687199669874" lon="10.504872862687447"><ele>24.0</ele><time>2026-04-19T08:52:04.999Z</time></trkpt><trkpt lat="42.93470079591842" lon="10.504766939670816"><ele>24.0</ele><time>2026-04-19T08:52:08.999Z</time></trkpt><trkpt lat="42.93471429259378" lon="10.504663286895829"><ele>24.0</ele><time>2026-04-19T08:52:11.999Z</time></trkpt><trkpt lat="42.93473158226815" lon="10.504580052692294"><ele>23.999999999999996</ele><time>2026-04-19T08:52:14.999Z</time></trkpt><trkpt lat="42.93475345392181" lon="10.50449770219805"><ele>24.0</ele><time>2026-04-19T08:52:17.999Z</time></trkpt><trkpt lat="42.9347728202088" lon="10.504410105497966"><ele>24.285714285714285</ele><time>2026-04-19T08:52:21Z</time></trkpt><trkpt lat="42.93476461582294" lon="10.50430300096995"><ele>24.57142857142857</ele><time>2026-04-19T08:52:24Z</time></trkpt><trkpt lat="42.934770506050526" lon="10.504207260134981"><ele>24.857142857142854</ele><time>2026-04-19T08:52:27Z</time></trkpt><trkpt lat="42.9348144223232" lon="10.504116682730436"><ele>25.142857142857142</ele><time>2026-04-19T08:52:31Z</time></trkpt><trkpt lat="42.93484474109909" lon="10.504036590777991"><ele>25.42857142857143</ele><time>2026-04-19T08:52:34Z</time></trkpt><trkpt lat="42.934882248366236" lon="10.503959850231348"><ele>25.71428571428571</ele><time>2026-04-19T08:52:37Z</time></trkpt><trkpt lat="42.93492123299395" lon="10.50386876025284"><ele>26.0</ele><time>2026-04-19T08:52:41Z</time></trkpt><trkpt lat="42.93495833520576" lon="10.50378788966751"><ele>26.166666666666664</ele><time>2026-04-19T08:52:44Z</time></trkpt><trkpt lat="42.935007004842994" lon="10.503709683294707"><ele>26.333333333333332</ele><time>2026-04-19T08:52:47Z</time></trkpt><trkpt lat="42.935062276007514" lon="10.5036376184595"><ele>26.5</ele><time>2026-04-19T08:52:50.001Z</time></trkpt><trkpt lat="42.93508270369898" lon="10.503533373356468"><ele>26.666666666666664</ele><time>2026-04-19T08:52:55.001Z</time></trkpt><trkpt lat="42.935099536921996" lon="10.503444201829748"><ele>26.833333333333332</ele><time>2026-04-19T08:52:57.001Z</time></trkpt><trkpt lat="42.935144369193246" lon="10.503343602387751"><ele>27.0</ele><time>2026-04-19T08:53:01.001Z</time></trkpt><trkpt lat="42.93516875152202" lon="10.503241205219256"><ele>26.666666666666668</ele><time>2026-04-19T08:53:04.001Z</time></trkpt><trkpt lat="42.93520700292793" lon="10.503135126409257"><ele>26.333333333333336</ele><time>2026-04-19T08:53:07.001Z</time></trkpt><trkpt lat="42.93523117066992" lon="10.503040231700107"><ele>26.0</ele><time>2026-04-19T08:53:10.001Z</time></trkpt><trkpt lat="42.93525716801567" lon="10.502938355116477"><ele>25.666666666666668</ele><time>2026-04-19T08:53:13.001Z</time></trkpt><trkpt lat="42.93527995388623" lon="10.50284883919822"><ele>25.333333333333336</ele><time>2026-04-19T08:53:16.001Z</time></trkpt><trkpt lat="42.93531220320957" lon="10.502748181542442"><ele>25.0</ele><time>2026-04-19T08:53:19.002Z</time></trkpt><trkpt lat="42.93534098481" lon="10.502665259582203"><ele>25.000000000000004</ele><time>2026-04-19T08:53:22.002Z</time></trkpt><trkpt lat="42.93536914853672" lon="10.502583037949707"><ele>25.0</ele><time>2026-04-19T08:53:25.002Z</time></trkpt><trkpt lat="42.93539485566174" lon="10.502499404108134"><ele>25.0</ele><time>2026-04-19T08:53:28.002Z</time></trkpt><trkpt lat="42.935419542806486" lon="10.502387536931757"><ele>25.0</ele><time>2026-04-19T08:53:32.002Z</time></trkpt><trkpt lat="42.93542621754665" lon="10.50229265940707"><ele>25.0</ele><time>2026-04-19T08:53:35.002Z</time></trkpt><trkpt lat="42.93543792557976" lon="10.502206013374861"><ele>25.000000000000004</ele><time>2026-04-19T08:53:38.002Z</time></trkpt><trkpt lat="42.935441834736565" lon="10.502108427538976"><ele>25.0</ele><time>2026-04-19T08:53:41.002Z</time></trkpt><trkpt lat="42.93544661174263" lon="10.502015412971046"><ele>25.142857142857146</ele><time>2026-04-19T08:53:44.002Z</time></trkpt><trkpt lat="42.93546199746943" lon="10.501930255241012"><ele>25.285714285714285</ele><time>2026-04-19T08:53:47.002Z</time></trkpt><trkpt lat="42.935486387673286" lon="10.501833939552567"><ele>25.42857142857143</ele><time>2026-04-19T08:53:51.002Z</time></trkpt><trkpt lat="42.93548000227261" lon="10.50173685032748"><ele>25.571428571428573</ele><time>2026-04-19T08:53:54.003Z</time></trkpt><trkpt lat="42.93549428019848" lon="10.50164933502918"><ele>25.714285714285715</ele><time>2026-04-19T08:53:56.998Z</time></trkpt><trkpt lat="42.93550982046277" lon="10.501555084867604"><ele>25.857142857142858</ele><time>2026-04-19T08:53:59.999Z</time></trkpt><trkpt lat="42.935520587222534" lon="10.501460758363233"><ele>26.0</ele><time>2026-04-19T08:54:01.999Z</time></trkpt><trkpt lat="42.935543042569144" lon="10.50135199120332"><ele>26.166666666666664</ele><time>2026-04-19T08:54:04.999Z</time></trkpt><trkpt lat="42.93556131850015" lon="10.501246399215551"><ele>26.333333333333332</ele><time>2026-04-19T08:54:07.999Z</time></trkpt><trkpt lat="42.93557337837219" lon="10.501148479391627"><ele>26.5</ele><time>2026-04-19T08:54:10.999Z</time></trkpt><trkpt lat="42.935587503183434" lon="10.501043891036076"><ele>26.666666666666664</ele><time>2026-04-19T08:54:15Z</time></trkpt><trkpt lat="42.93560615579329" lon="10.500926057593926"><ele>26.833333333333332</ele><time>2026-04-19T08:54:19Z</time></trkpt><trkpt lat="42.93560124106847" lon="10.50082421468755"><ele>27.0</ele><time>2026-04-19T08:54:22Z</time></trkpt><trkpt lat="42.935604155272685" lon="10.500721237088548"><ele>27.0</ele><time>2026-04-19T08:54:25Z</time></trkpt><trkpt lat="42.93562634218864" lon="10.500621977431578"><ele>27.0</ele><time>2026-04-19T08:54:28Z</time></trkpt><trkpt lat="42.935659245171585" lon="10.500519048165957"><ele>27.0</ele><time>2026-04-19T08:54:31Z</time></trkpt><trkpt lat="42.93568964736128" lon="10.500411286570149"><ele>27.0</ele><time>2026-04-19T08:54:34.001Z</time></trkpt><trkpt lat="42.935755819416514" lon="10.500406534719113"><ele>27.0</ele><time>2026-04-19T08:54:37.001Z</time></trkpt><trkpt lat="42.93577110869247" lon="10.500511627050685"><ele>27.0</ele><time>2026-04-19T08:54:40.001Z</time></trkpt><trkpt lat="42.935783181772116" lon="10.500606481918712"><ele>27.0</ele><time>2026-04-19T08:54:43.001Z</time></trkpt><trkpt lat="42.93579802830697" lon="10.500717276264087"><ele>27.0</ele><time>2026-04-19T08:54:46.001Z</time></trkpt><trkpt lat="42.93579182301157" lon="10.500840493190388"><ele>27.0</ele><time>2026-04-19T08:54:49.001Z</time></trkpt><trkpt lat="42.93579615705515" lon="10.500964943069311"><ele>27.0</ele><time>2026-04-19T08:54:52.001Z</time></trkpt><trkpt lat="42.93579346375951" lon="10.501055369843284"><ele>27.0</ele><time>2026-04-19T08:54:54.001Z</time></trkpt><trkpt lat="42.93579983960566" lon="10.501177738271544"><ele>27.0</ele><time>2026-04-19T08:54:57.001Z</time></trkpt><trkpt lat="42.93582488116374" lon="10.501280092702585"><ele>26.833333333333332</ele><time>2026-04-19T08:55:00.002Z</time></trkpt><trkpt lat="42.9358585855625" lon="10.501396985325146"><ele>26.666666666666664</ele><time>2026-04-19T08:55:03.002Z</time></trkpt><trkpt lat="42.935902818218985" lon="10.501500176864974"><ele>26.5</ele><time>2026-04-19T08:55:06.002Z</time></trkpt><trkpt lat="42.93596029657496" lon="10.501573782138983"><ele>26.333333333333332</ele><time>2026-04-19T08:55:09.002Z</time></trkpt><trkpt lat="42.93600898796057" lon="10.501660799642325"><ele>26.166666666666664</ele><time>2026-04-19T08:55:12.002Z</time></trkpt><trkpt lat="42.93606098826954" lon="10.501739358193676"><ele>26.0</ele><time>2026-04-19T08:55:15.002Z</time></trkpt><trkpt lat="42.93610521137617" lon="10.501839251506608"><ele>25.857142857142858</ele><time>2026-04-19T08:55:18.002Z</time></trkpt><trkpt lat="42.93615874129968" lon="10.501891620711035"><ele>25.714285714285715</ele><time>2026-04-19T08:55:21.002Z</time></trkpt><trkpt lat="42.93620433722646" lon="10.501976471051503"><ele>25.571428571428573</ele><time>2026-04-19T08:55:24.002Z</time></trkpt><trkpt lat="42.93625089984956" lon="10.502055031172853"><ele>25.42857142857143</ele><time>2026-04-19T08:55:27.002Z</time></trkpt><trkpt lat="42.93629917401938" lon="10.50211547030462"><ele>25.285714285714285</ele><time>2026-04-19T08:55:30.002Z</time></trkpt><trkpt lat="42.936345015396874" lon="10.5022040228202"><ele>25.142857142857146</ele><time>2026-04-19T08:55:33.003Z</time></trkpt><trkpt lat="42.93639570245225" lon="10.502282283020463"><ele>25.0</ele><time>2026-04-19T08:55:36.003Z</time></trkpt><trkpt lat="42.93644975034793" lon="10.502365983895386"><ele>25.000000000000004</ele><time>2026-04-19T08:55:39.003Z</time></trkpt><trkpt lat="42.93650059565982" lon="10.502436086499708"><ele>25.0</ele><time>2026-04-19T08:55:42.003Z</time></trkpt><trkpt lat="42.93654887360628" lon="10.50252073531252"><ele>25.0</ele><time>2026-04-19T08:55:45.003Z</time></trkpt><trkpt lat="42.93659887177057" lon="10.502599562229566"><ele>25.0</ele><time>2026-04-19T08:55:48.003Z</time></trkpt><trkpt lat="42.936651642250325" lon="10.502686185910838"><ele>25.0</ele><time>2026-04-19T08:55:51.003Z</time></trkpt><trkpt lat="42.93671367436016" lon="10.502714708616416"><ele>25.000000000000004</ele><time>2026-04-19T08:55:54.003Z</time></trkpt><trkpt lat="42.936784842712996" lon="10.502692520611143"><ele>25.0</ele><time>2026-04-19T08:55:57.003Z</time></trkpt><trkpt lat="42.93683814957251" lon="10.50264121838708"><ele>26.166666666666668</ele><time>2026-04-19T08:56:00.003Z</time></trkpt><trkpt lat="42.936911432223944" lon="10.502613205214281"><ele>27.333333333333336</ele><time>2026-04-19T08:56:02.999Z</time></trkpt><trkpt lat="42.936965586558365" lon="10.502545597913437"><ele>28.5</ele><time>2026-04-19T08:56:05.999Z</time></trkpt><trkpt lat="42.93701188185359" lon="10.502468594643348"><ele>29.666666666666664</ele><time>2026-04-19T08:56:08.999Z</time></trkpt><trkpt lat="42.937050242080915" lon="10.502368975493216"><ele>30.833333333333332</ele><time>2026-04-19T08:56:12.999Z</time></trkpt><trkpt lat="42.937071611918626" lon="10.502267280309853"><ele>32.0</ele><time>2026-04-19T08:56:15.999Z</time></trkpt><trkpt lat="42.93708591738817" lon="10.502169834135673"><ele>31.999999999999996</ele><time>2026-04-19T08:56:19Z</time></trkpt><trkpt lat="42.93709967862752" lon="10.502067082233802"><ele>32.0</ele><time>2026-04-19T08:56:22Z</time></trkpt><trkpt lat="42.93710880374756" lon="10.501974046438058"><ele>32.0</ele><time>2026-04-19T08:56:25Z</time></trkpt><trkpt lat="42.93711464274376" lon="10.50187564051744"><ele>32.0</ele><time>2026-04-19T08:56:28Z</time></trkpt><trkpt lat="42.93711963026433" lon="10.501757417492904"><ele>31.999999999999996</ele><time>2026-04-19T08:56:31Z</time></trkpt><trkpt lat="42.9371598502532" lon="10.50167044698856"><ele>32.0</ele><time>2026-04-19T08:56:35.001Z</time></trkpt><trkpt lat="42.93722729145402" lon="10.501635819389012"><ele>32.0</ele><time>2026-04-19T08:56:39.001Z</time></trkpt><trkpt lat="42.937289493321686" lon="10.501608060605529"><ele>31.999999999999996</ele><time>2026-04-19T08:56:42.001Z</time></trkpt><trkpt lat="42.93735859548676" lon="10.501631605214696"><ele>32.0</ele><time>2026-04-19T08:56:45.001Z</time></trkpt><trkpt lat="42.93744554406578" lon="10.501643265345255"><ele>32.0</ele><time>2026-04-19T08:56:49.001Z</time></trkpt><trkpt lat="42.937514720366615" lon="10.50167933902718"><ele>31.999999999999996</ele><time>2026-04-19T08:56:52.001Z</time></trkpt><trkpt lat="42.93757672642274" lon="10.501703469132252"><ele>32.0</ele><time>2026-04-19T08:56:54.001Z</time></trkpt><trkpt lat="42.937645658604595" lon="10.50173972308571"><ele>32.0</ele><time>2026-04-19T08:56:57.001Z</time></trkpt><trkpt lat="42.93772345612928" lon="10.501761566356627"><ele>32.14285714285714</ele><time>2026-04-19T08:57:00.001Z</time></trkpt><trkpt lat="42.93779500566662" lon="10.501776677496851"><ele>32.285714285714285</ele><time>2026-04-19T08:57:03.002Z</time></trkpt><trkpt lat="42.93787468072066" lon="10.501776007760101"><ele>32.42857142857143</ele><time>2026-04-19T08:57:07.002Z</time></trkpt><trkpt lat="42.93793337340624" lon="10.501816576224932"><ele>32.57142857142857</ele><time>2026-04-19T08:57:10.002Z</time></trkpt><trkpt lat="42.93801490578215" lon="10.501837062669606"><ele>32.714285714285715</ele><time>2026-04-19T08:57:17.002Z</time></trkpt><trkpt lat="42.93807254169971" lon="10.501791942233547"><ele>32.857142857142854</ele><time>2026-04-19T08:57:21.002Z</time></trkpt><trkpt lat="42.93809257138739" lon="10.501683630963326"><ele>33.0</ele><time>2026-04-19T08:57:27.002Z</time></trkpt><trkpt lat="42.93812708755255" lon="10.501591318174226"><ele>33.0</ele><time>2026-04-19T08:57:30.002Z</time></trkpt><trkpt lat="42.93815864167353" lon="10.50148372722931"><ele>33.0</ele><time>2026-04-19T08:57:33.002Z</time></trkpt><trkpt lat="42.9381809541966" lon="10.50139554964863"><ele>33.0</ele><time>2026-04-19T08:57:36.003Z</time></trkpt><trkpt lat="42.938200166227894" lon="10.501309067059237"><ele>33.0</ele><time>2026-04-19T08:57:39.003Z</time></trkpt><trkpt lat="42.93822497996291" lon="10.501213087633952"><ele>33.0</ele><time>2026-04-19T08:57:42.003Z</time></trkpt><trkpt lat="42.93822692206518" lon="10.501119471577333"><ele>33.0</ele><time>2026-04-19T08:57:45.003Z</time></trkpt><trkpt lat="42.938251089985165" lon="10.501030911859756"><ele>33.0</ele><time>2026-04-19T08:57:48.003Z</time></trkpt><trkpt lat="42.938317830607915" lon="10.500961109459269"><ele>34.0</ele><time>2026-04-19T08:57:51.003Z</time></trkpt><trkpt lat="42.93838886454059" lon="10.50096163916814"><ele>35.0</ele><time>2026-04-19T08:57:55.003Z</time></trkpt><trkpt lat="42.938452002148495" lon="10.500950218577723"><ele>36.0</ele><time>2026-04-19T08:58:01.003Z</time></trkpt><trkpt lat="42.938525957303476" lon="10.501002641924302"><ele>37.0</ele><time>2026-04-19T08:58:05.003Z</time></trkpt><trkpt lat="42.938600575398596" lon="10.500996449550032"><ele>38.0</ele><time>2026-04-19T08:58:10.999Z</time></trkpt><trkpt lat="42.938686775215594" lon="10.501050959795924"><ele>39.0</ele><time>2026-04-19T08:58:13.999Z</time></trkpt><trkpt lat="42.938754931355376" lon="10.50105952419183"><ele>39.0</ele><time>2026-04-19T08:58:18.999Z</time></trkpt><trkpt lat="42.93881636901199" lon="10.501089981297195"><ele>39.0</ele><time>2026-04-19T08:58:23Z</time></trkpt><trkpt lat="42.93902533001385" lon="10.501108791368189"><ele>39.0</ele><time>2026-04-19T08:58:33Z</time></trkpt><trkpt lat="42.939155647277516" lon="10.501158266644495"><ele>39.0</ele><time>2026-04-19T08:58:36Z</time></trkpt><trkpt lat="42.93924142739429" lon="10.501185872924847"><ele>39.4</ele><time>2026-04-19T08:58:38Z</time></trkpt><trkpt lat="42.93932034972969" lon="10.501199723643959"><ele>39.8</ele><time>2026-04-19T08:58:41.001Z</time></trkpt><trkpt lat="42.93938731957717" lon="10.501218120021884"><ele>40.199999999999996</ele><time>2026-04-19T08:58:44.001Z</time></trkpt><trkpt lat="42.93959868820683" lon="10.501257672869926"><ele>40.599999999999994</ele><time>2026-04-19T08:58:53.001Z</time></trkpt><trkpt lat="42.93966243240596" lon="10.501280124700235"><ele>41.0</ele><time>2026-04-19T08:58:55.001Z</time></trkpt><trkpt lat="42.9397453192487" lon="10.50129779088161"><ele>41.0</ele><time>2026-04-19T08:58:58.001Z</time></trkpt><trkpt lat="42.93981858306152" lon="10.501312473224532"><ele>41.0</ele><time>2026-04-19T08:59:01.001Z</time></trkpt><trkpt lat="42.93989849770316" lon="10.501325768781975"><ele>41.0</ele><time>2026-04-19T08:59:03.001Z</time></trkpt><trkpt lat="42.93997244336439" lon="10.501319195450035"><ele>41.0</ele><time>2026-04-19T08:59:06.001Z</time></trkpt><trkpt lat="42.940044084892556" lon="10.501351418012668"><ele>41.0</ele><time>2026-04-19T08:59:10.002Z</time></trkpt><trkpt lat="42.94012310470682" lon="10.501321743861922"><ele>41.0</ele><time>2026-04-19T08:59:14.002Z</time></trkpt><trkpt lat="42.940188113138746" lon="10.501311854124088"><ele>41.5</ele><time>2026-04-19T08:59:17.002Z</time></trkpt><trkpt lat="42.94025978604133" lon="10.501289102460145"><ele>42.0</ele><time>2026-04-19T08:59:20.002Z</time></trkpt><trkpt lat="42.940321881534686" lon="10.501241968467458"><ele>42.5</ele><time>2026-04-19T08:59:23.002Z</time></trkpt><trkpt lat="42.94039050520769" lon="10.50117168641296"><ele>43.0</ele><time>2026-04-19T08:59:27.002Z</time></trkpt><trkpt lat="42.9404649783712" lon="10.501140184508719"><ele>43.5</ele><time>2026-04-19T08:59:31.002Z</time></trkpt><trkpt lat="42.94054849829735" lon="10.501144775197323"><ele>44.0</ele><time>2026-04-19T08:59:35.002Z</time></trkpt><trkpt lat="42.940608912975875" lon="10.501171322188979"><ele>44.0</ele><time>2026-04-19T08:59:38.002Z</time></trkpt><trkpt lat="42.94068899317857" lon="10.501194581656614"><ele>44.0</ele><time>2026-04-19T08:59:42.003Z</time></trkpt><trkpt lat="42.94075343585117" lon="10.501189672022274"><ele>44.0</ele><time>2026-04-19T08:59:45.003Z</time></trkpt><trkpt lat="42.94083428418541" lon="10.501205698400025"><ele>44.0</ele><time>2026-04-19T08:59:48.003Z</time></trkpt><trkpt lat="42.94091502110476" lon="10.50121855273467"><ele>44.0</ele><time>2026-04-19T08:59:51.003Z</time></trkpt><trkpt lat="42.94098170493673" lon="10.501256738723397"><ele>44.0</ele><time>2026-04-19T08:59:54.003Z</time></trkpt><trkpt lat="42.941052433126636" lon="10.50128726861919"><ele>44.85714285714286</ele><time>2026-04-19T08:59:58.003Z</time></trkpt><trkpt lat="42.94111880607011" lon="10.501302062561436"><ele>45.714285714285715</ele><time>2026-04-19T09:00:02.003Z</time></trkpt><trkpt lat="42.94118559623284" lon="10.501232728180334"><ele>46.57142857142857</ele><time>2026-04-19T09:00:06.003Z</time></trkpt><trkpt lat="42.941200297208916" lon="10.501129509419561"><ele>47.42857142857143</ele><time>2026-04-19T09:00:10.003Z</time></trkpt><trkpt lat="42.941238031932464" lon="10.501038178089333"><ele>48.285714285714285</ele><time>2026-04-19T09:00:14.004Z</time></trkpt><trkpt lat="42.94125807764201" lon="10.50094085970989"><ele>49.142857142857146</ele><time>2026-04-19T09:00:17.999Z</time></trkpt><trkpt lat="42.94127459037754" lon="10.500857423948501"><ele>50.0</ele><time>2026-04-19T09:00:20.999Z</time></trkpt><trkpt lat="42.94129936874494" lon="10.500750705238762"><ele>50.714285714285715</ele><time>2026-04-19T09:00:24.999Z</time></trkpt><trkpt lat="42.94131522104524" lon="10.500656037704665"><ele>51.42857142857143</ele><time>2026-04-19T09:00:28Z</time></trkpt><trkpt lat="42.94134976800616" lon="10.500564364593357"><ele>52.14285714285714</ele><time>2026-04-19T09:00:32Z</time></trkpt><trkpt lat="42.941376106315396" lon="10.500474351765693"><ele>52.85714285714286</ele><time>2026-04-19T09:00:36Z</time></trkpt><trkpt lat="42.94140490210925" lon="10.50038529290956"><ele>53.57142857142857</ele><time>2026-04-19T09:00:40Z</time></trkpt><trkpt lat="42.941464006741874" lon="10.500324014672977"><ele>54.285714285714285</ele><time>2026-04-19T09:00:44.001Z</time></trkpt><trkpt lat="42.941522770151444" lon="10.500263438942795"><ele>55.0</ele><time>2026-04-19T09:00:48.001Z</time></trkpt><trkpt lat="42.94159572944344" lon="10.500230188068052"><ele>54.99999999999999</ele><time>2026-04-19T09:00:52.001Z</time></trkpt><trkpt lat="42.94165777245202" lon="10.500213052616525"><ele>55.0</ele><time>2026-04-19T09:00:55.001Z</time></trkpt><trkpt lat="42.94173589520633" lon="10.500208893802176"><ele>55.0</ele><time>2026-04-19T09:00:59.001Z</time></trkpt><trkpt lat="42.941817933615965" lon="10.5002266449304"><ele>55.0</ele><time>2026-04-19T09:01:03.001Z</time></trkpt><trkpt lat="42.94189008065562" lon="10.500273157196045"><ele>54.99999999999999</ele><time>2026-04-19T09:01:07.001Z</time></trkpt><trkpt lat="42.94196785930324" lon="10.500310738765949"><ele>55.0</ele><time>2026-04-19T09:01:11.002Z</time></trkpt><trkpt lat="42.94204065119266" lon="10.500348593665512"><ele>55.28571428571428</ele><time>2026-04-19T09:01:15.002Z</time></trkpt><trkpt lat="42.94211327347539" lon="10.500392248278619"><ele>55.57142857142857</ele><time>2026-04-19T09:01:19.002Z</time></trkpt><trkpt lat="42.94217284191097" lon="10.500433372985023"><ele>55.857142857142854</ele><time>2026-04-19T09:01:23.002Z</time></trkpt><trkpt lat="42.94225517439144" lon="10.50042036098715"><ele>56.14285714285714</ele><time>2026-04-19T09:01:30.002Z</time></trkpt><trkpt lat="42.94231843675056" lon="10.500444520923768"><ele>56.42857142857142</ele><time>2026-04-19T09:01:34.002Z</time></trkpt><trkpt lat="42.94238001424906" lon="10.50048938542726"><ele>56.71428571428571</ele><time>2026-04-19T09:01:37.002Z</time></trkpt><trkpt lat="42.94244293103524" lon="10.500537090160188"><ele>57.0</ele><time>2026-04-19T09:01:40.002Z</time></trkpt><trkpt lat="42.94251480163706" lon="10.500592953601007"><ele>58.833333333333336</ele><time>2026-04-19T09:01:44.003Z</time></trkpt><trkpt lat="42.94256686733131" lon="10.500645794421539"><ele>60.66666666666667</ele><time>2026-04-19T09:01:47.003Z</time></trkpt><trkpt lat="42.942635457847764" lon="10.500693656861015"><ele>62.5</ele><time>2026-04-19T09:01:51.003Z</time></trkpt><trkpt lat="42.94270968246365" lon="10.500724821333465"><ele>64.33333333333334</ele><time>2026-04-19T09:01:55.003Z</time></trkpt><trkpt lat="42.942787720638336" lon="10.50076718570555"><ele>66.16666666666667</ele><time>2026-04-19T09:01:59.003Z</time></trkpt><trkpt lat="42.94286105449476" lon="10.500800742589206"><ele>68.0</ele><time>2026-04-19T09:02:03.003Z</time></trkpt><trkpt lat="42.94292692951836" lon="10.500847892750814"><ele>68.0</ele><time>2026-04-19T09:02:07.003Z</time></trkpt><trkpt lat="42.94299173866427" lon="10.500907709391868"><ele>68.0</ele><time>2026-04-19T09:02:12.003Z</time></trkpt><trkpt lat="42.943051156061905" lon="10.500956884716837"><ele>68.0</ele><time>2026-04-19T09:02:15.004Z</time></trkpt><trkpt lat="42.9431291849512" lon="10.500978843628692"><ele>68.0</ele><time>2026-04-19T09:02:19.004Z</time></trkpt><trkpt lat="42.94319197710606" lon="10.501030936399259"><ele>68.0</ele><time>2026-04-19T09:02:22.999Z</time></trkpt><trkpt lat="42.94326725792248" lon="10.501054582085162"><ele>68.0</ele><time>2026-04-19T09:02:26.999Z</time></trkpt><trkpt lat="42.94332468915443" lon="10.501115067832213"><ele>68.14285714285714</ele><time>2026-04-19T09:02:30.999Z</time></trkpt><trkpt lat="42.943397033898336" lon="10.50113389248586"><ele>68.28571428571428</ele><time>2026-04-19T09:02:35Z</time></trkpt><trkpt lat="42.94346669948828" lon="10.50114637722515"><ele>68.42857142857143</ele><time>2026-04-19T09:02:39Z</time></trkpt><trkpt lat="42.94353382736543" lon="10.501191150152044"><ele>68.57142857142857</ele><time>2026-04-19T09:02:43Z</time></trkpt><trkpt lat="42.943602007891364" lon="10.501234802887463"><ele>68.71428571428572</ele><time>2026-04-19T09:02:47Z</time></trkpt><trkpt lat="42.94367086757998" lon="10.501281618347234"><ele>68.85714285714286</ele><time>2026-04-19T09:02:51.001Z</time></trkpt><trkpt lat="42.94373596128287" lon="10.501317550368277"><ele>69.0</ele><time>2026-04-19T09:02:55.001Z</time></trkpt><trkpt lat="42.943792909829114" lon="10.501365317703893"><ele>69.0</ele><time>2026-04-19T09:02:59.001Z</time></trkpt><trkpt lat="42.94386166893888" lon="10.501396044029251"><ele>69.0</ele><time>2026-04-19T09:03:03.001Z</time></trkpt><trkpt lat="42.94393274197249" lon="10.501391187155022"><ele>69.0</ele><time>2026-04-19T09:03:07.001Z</time></trkpt><trkpt lat="42.94400681074929" lon="10.501425863616026"><ele>69.0</ele><time>2026-04-19T09:03:11.001Z</time></trkpt><trkpt lat="42.94405690375091" lon="10.501478294243547"><ele>69.0</ele><time>2026-04-19T09:03:14.001Z</time></trkpt><trkpt lat="42.94414039031236" lon="10.501537451289169"><ele>69.0</ele><time>2026-04-19T09:03:18.002Z</time></trkpt><trkpt lat="42.94421272704475" lon="10.50157436474486"><ele>70.5</ele><time>2026-04-19T09:03:22.002Z</time></trkpt><trkpt lat="42.944262054407126" lon="10.501634179458621"><ele>72.0</ele><time>2026-04-19T09:03:25.002Z</time></trkpt><trkpt lat="42.9443322685765" lon="10.501650786765392"><ele>73.5</ele><time>2026-04-19T09:03:28.002Z</time></trkpt><trkpt lat="42.94440690223636" lon="10.501689168697522"><ele>75.0</ele><time>2026-04-19T09:03:32.002Z</time></trkpt><trkpt lat="42.9444785093149" lon="10.501756089285413"><ele>76.5</ele><time>2026-04-19T09:03:36.002Z</time></trkpt><trkpt lat="42.94452321336119" lon="10.50183264000699"><ele>78.0</ele><time>2026-04-19T09:03:40.002Z</time></trkpt><trkpt lat="42.94453521518408" lon="10.501940908353347"><ele>78.0</ele><time>2026-04-19T09:03:43.002Z</time></trkpt><trkpt lat="42.944579348559806" lon="10.50202278411673"><ele>78.0</ele><time>2026-04-19T09:03:46.003Z</time></trkpt><trkpt lat="42.9446104585909" lon="10.502119648347596"><ele>78.0</ele><time>2026-04-19T09:03:49.003Z</time></trkpt><trkpt lat="42.94466913315701" lon="10.502155025036759"><ele>78.0</ele><time>2026-04-19T09:03:52.003Z</time></trkpt><trkpt lat="42.944725246104575" lon="10.502236895255987"><ele>78.0</ele><time>2026-04-19T09:03:56.003Z</time></trkpt><trkpt lat="42.944793030430766" lon="10.502289265220769"><ele>78.0</ele><time>2026-04-19T09:04:00.003Z</time></trkpt><trkpt lat="42.94485181075687" lon="10.502345946211086"><ele>78.0</ele><time>2026-04-19T09:04:04.003Z</time></trkpt><trkpt lat="42.94490716969773" lon="10.502398367556394"><ele>78.28571428571429</ele><time>2026-04-19T09:04:07.003Z</time></trkpt><trkpt lat="42.94495776582934" lon="10.502455682047053"><ele>78.57142857142857</ele><time>2026-04-19T09:04:10.003Z</time></trkpt><trkpt lat="42.94500786639889" lon="10.502512924886522"><ele>78.85714285714286</ele><time>2026-04-19T09:04:13.003Z</time></trkpt><trkpt lat="42.94507060199085" lon="10.502583790253095"><ele>79.14285714285714</ele><time>2026-04-19T09:04:17.003Z</time></trkpt><trkpt lat="42.94513110236696" lon="10.502656938671336"><ele>79.42857142857143</ele><time>2026-04-19T09:04:21.004Z</time></trkpt><trkpt lat="42.94518001708021" lon="10.502713352520407"><ele>79.71428571428571</ele><time>2026-04-19T09:04:24.004Z</time></trkpt><trkpt lat="42.94522524193952" lon="10.50277560499953"><ele>80.0</ele><time>2026-04-19T09:04:26.999Z</time></trkpt><trkpt lat="42.945274905381055" lon="10.502829387569234"><ele>80.0</ele><time>2026-04-19T09:04:29.999Z</time></trkpt><trkpt lat="42.94532962930666" lon="10.502900241780779"><ele>80.0</ele><time>2026-04-19T09:04:33.999Z</time></trkpt><trkpt lat="42.9453751774768" lon="10.502967651610785"><ele>80.0</ele><time>2026-04-19T09:04:37Z</time></trkpt><trkpt lat="42.94540759970531" lon="10.503085452795315"><ele>80.0</ele><time>2026-04-19T09:04:40Z</time></trkpt><trkpt lat="42.94546464139971" lon="10.503128989137197"><ele>80.0</ele><time>2026-04-19T09:04:43Z</time></trkpt><trkpt lat="42.94551582441351" lon="10.503191947094413"><ele>80.0</ele><time>2026-04-19T09:04:47Z</time></trkpt><trkpt lat="42.945580714761896" lon="10.503245061664117"><ele>80.0</ele><time>2026-04-19T09:04:51Z</time></trkpt><trkpt lat="42.94564467355011" lon="10.503305664450739"><ele>80.28571428571428</ele><time>2026-04-19T09:04:55.001Z</time></trkpt><trkpt lat="42.945679106232895" lon="10.50338834210084"><ele>80.57142857142857</ele><time>2026-04-19T09:04:58.001Z</time></trkpt><trkpt lat="42.94571078100265" lon="10.503479118399284"><ele>80.85714285714286</ele><time>2026-04-19T09:05:01.001Z</time></trkpt><trkpt lat="42.94575999876121" lon="10.503554152371683"><ele>81.14285714285714</ele><time>2026-04-19T09:05:04.001Z</time></trkpt><trkpt lat="42.94580459823176" lon="10.503635465442422"><ele>81.42857142857143</ele><time>2026-04-19T09:05:07.001Z</time></trkpt><trkpt lat="42.94584150988028" lon="10.503711200111372"><ele>81.71428571428571</ele><time>2026-04-19T09:05:10.001Z</time></trkpt><trkpt lat="42.945889603292244" lon="10.50377509844803"><ele>82.0</ele><time>2026-04-19T09:05:13.001Z</time></trkpt><trkpt lat="42.94593800960247" lon="10.50386598010719"><ele>81.99999999999999</ele><time>2026-04-19T09:05:17.001Z</time></trkpt><trkpt lat="42.945991916541324" lon="10.503914776631452"><ele>82.0</ele><time>2026-04-19T09:05:20.002Z</time></trkpt><trkpt lat="42.94605408858989" lon="10.503982599422558"><ele>82.0</ele><time>2026-04-19T09:05:24.002Z</time></trkpt><trkpt lat="42.94607982542133" lon="10.504081908734516"><ele>82.0</ele><time>2026-04-19T09:05:28.002Z</time></trkpt><trkpt lat="42.9460350448477" lon="10.504161944933859"><ele>82.0</ele><time>2026-04-19T09:05:31.002Z</time></trkpt><trkpt lat="42.94602697208302" lon="10.504248314020389"><ele>81.99999999999999</ele><time>2026-04-19T09:05:34.002Z</time></trkpt><trkpt lat="42.94596348724737" lon="10.504294623401355"><ele>82.0</ele><time>2026-04-19T09:05:37.002Z</time></trkpt><trkpt lat="42.945889483626765" lon="10.504357384755997"><ele>81.14285714285714</ele><time>2026-04-19T09:05:40.002Z</time></trkpt><trkpt lat="42.945812175339675" lon="10.504385645552864"><ele>80.28571428571428</ele><time>2026-04-19T09:05:43.002Z</time></trkpt><trkpt lat="42.945748143240316" lon="10.504392609694097"><ele>79.42857142857142</ele><time>2026-04-19T09:05:45.002Z</time></trkpt><trkpt lat="42.94567585063657" lon="10.50440510486026"><ele>78.57142857142857</ele><time>2026-04-19T09:05:48.002Z</time></trkpt><trkpt lat="42.94558568945175" lon="10.504396916350276"><ele>77.71428571428572</ele><time>2026-04-19T09:05:51.003Z</time></trkpt><trkpt lat="42.945511474280714" lon="10.504384211783721"><ele>76.85714285714285</ele><time>2026-04-19T09:05:54.003Z</time></trkpt><trkpt lat="42.945447833772725" lon="10.50436534104437"><ele>76.0</ele><time>2026-04-19T09:05:56.003Z</time></trkpt><trkpt lat="42.94537229483032" lon="10.504321433397235"><ele>76.0</ele><time>2026-04-19T09:05:59.003Z</time></trkpt><trkpt lat="42.94529757267022" lon="10.504307124062588"><ele>76.0</ele><time>2026-04-19T09:06:01.003Z</time></trkpt><trkpt lat="42.945207563942276" lon="10.50431710918296"><ele>76.0</ele><time>2026-04-19T09:06:04.003Z</time></trkpt><trkpt lat="42.9451254107662" lon="10.504286365579993"><ele>76.0</ele><time>2026-04-19T09:06:07.003Z</time></trkpt><trkpt lat="42.9450621078114" lon="10.50427502887342"><ele>76.0</ele><time>2026-04-19T09:06:09.002Z</time></trkpt><trkpt lat="42.944985630289445" lon="10.504237835714157"><ele>76.0</ele><time>2026-04-19T09:06:12.002Z</time></trkpt><trkpt lat="42.9449104958288" lon="10.504181740800815"><ele>75.42857142857143</ele><time>2026-04-19T09:06:15.002Z</time></trkpt><trkpt lat="42.94486283077577" lon="10.504123133344425"><ele>74.85714285714286</ele><time>2026-04-19T09:06:17.002Z</time></trkpt><trkpt lat="42.94481517545074" lon="10.504040263070214"><ele>74.28571428571429</ele><time>2026-04-19T09:06:20.002Z</time></trkpt><trkpt lat="42.944774559667835" lon="10.503956302604072"><ele>73.71428571428572</ele><time>2026-04-19T09:06:23.003Z</time></trkpt><trkpt lat="42.944715199925696" lon="10.503878716727447"><ele>73.14285714285714</ele><time>2026-04-19T09:06:26.003Z</time></trkpt><trkpt lat="42.94468326567378" lon="10.503789683951302"><ele>72.57142857142858</ele><time>2026-04-19T09:06:29.003Z</time></trkpt><trkpt lat="42.944645408418296" lon="10.503696141470076"><ele>72.0</ele><time>2026-04-19T09:06:32.003Z</time></trkpt><trkpt lat="42.944605367241245" lon="10.503619459054207"><ele>72.0</ele><time>2026-04-19T09:06:34.998Z</time></trkpt><trkpt lat="42.94456359981754" lon="10.503531064670621"><ele>72.0</ele><time>2026-04-19T09:06:37.998Z</time></trkpt><trkpt lat="42.94451688554281" lon="10.503434623803138"><ele>72.0</ele><time>2026-04-19T09:06:40.999Z</time></trkpt><trkpt lat="42.944457977296814" lon="10.503367791915336"><ele>72.0</ele><time>2026-04-19T09:06:43.999Z</time></trkpt><trkpt lat="42.94440211953938" lon="10.503315818099896"><ele>72.0</ele><time>2026-04-19T09:06:47.999Z</time></trkpt><trkpt lat="42.94434542064221" lon="10.50325352073266"><ele>72.0</ele><time>2026-04-19T09:06:50.999Z</time></trkpt><trkpt lat="42.94428904714431" lon="10.503190004851437"><ele>72.00000000000001</ele><time>2026-04-19T09:06:52.999Z</time></trkpt><trkpt lat="42.944220671145864" lon="10.50314767202455"><ele>72.0</ele><time>2026-04-19T09:06:55.999Z</time></trkpt><trkpt lat="42.94414669273227" lon="10.503116839891328"><ele>72.0</ele><time>2026-04-19T09:06:59Z</time></trkpt><trkpt lat="42.944078540231025" lon="10.503053723493801"><ele>72.0</ele><time>2026-04-19T09:07:02Z</time></trkpt><trkpt lat="42.94403109089003" lon="10.502988441403087"><ele>72.0</ele><time>2026-04-19T09:07:04Z</time></trkpt><trkpt lat="42.94397117275528" lon="10.502914603282369"><ele>72.00000000000001</ele><time>2026-04-19T09:07:07Z</time></trkpt><trkpt lat="42.94392964532329" lon="10.502843270556713"><ele>72.0</ele><time>2026-04-19T09:07:10Z</time></trkpt><trkpt lat="42.943887195428886" lon="10.502761164981239"><ele>71.28571428571429</ele><time>2026-04-19T09:07:13Z</time></trkpt><trkpt lat="42.9438626597725" lon="10.50267764238165"><ele>70.57142857142857</ele><time>2026-04-19T09:07:16Z</time></trkpt><trkpt lat="42.943825442507034" lon="10.502592772926418"><ele>69.85714285714286</ele><time>2026-04-19T09:07:19Z</time></trkpt><trkpt lat="42.943766077353594" lon="10.502529429055024"><ele>69.14285714285714</ele><time>2026-04-19T09:07:22Z</time></trkpt><trkpt lat="42.943702483601896" lon="10.50259276740204"><ele>68.42857142857143</ele><time>2026-04-19T09:07:24.001Z</time></trkpt><trkpt lat="42.94364245365992" lon="10.502638961791169"><ele>67.71428571428572</ele><time>2026-04-19T09:07:27.001Z</time></trkpt><trkpt lat="42.943572347804334" lon="10.502688004520811"><ele>67.0</ele><time>2026-04-19T09:07:30.001Z</time></trkpt><trkpt lat="42.94350544353289" lon="10.502763573278296"><ele>67.0</ele><time>2026-04-19T09:07:33.001Z</time></trkpt><trkpt lat="42.94343138783263" lon="10.502828040376453"><ele>67.0</ele><time>2026-04-19T09:07:36.001Z</time></trkpt><trkpt lat="42.943362561802005" lon="10.502876256047704"><ele>67.0</ele><time>2026-04-19T09:07:39.001Z</time></trkpt><trkpt lat="42.94330489283793" lon="10.502960389056325"><ele>67.0</ele><time>2026-04-19T09:07:42.001Z</time></trkpt><trkpt lat="42.94324640415291" lon="10.503020199504013"><ele>67.0</ele><time>2026-04-19T09:07:45.001Z</time></trkpt><trkpt lat="42.94317510281695" lon="10.503060655042528"><ele>67.0</ele><time>2026-04-19T09:07:48.001Z</time></trkpt><trkpt lat="42.94309901178905" lon="10.503060477102695"><ele>65.83333333333333</ele><time>2026-04-19T09:07:51.001Z</time></trkpt><trkpt lat="42.94302713074381" lon="10.503016039417576"><ele>64.66666666666666</ele><time>2026-04-19T09:07:54.002Z</time></trkpt><trkpt lat="42.9429522329564" lon="10.502996169353292"><ele>63.5</ele><time>2026-04-19T09:07:57.002Z</time></trkpt><trkpt lat="42.94286533963395" lon="10.502982783246932"><ele>62.33333333333333</ele><time>2026-04-19T09:08:00.002Z</time></trkpt><trkpt lat="42.94277966926331" lon="10.502963559494942"><ele>61.166666666666664</ele><time>2026-04-19T09:08:03.002Z</time></trkpt><trkpt lat="42.94270237752283" lon="10.502957892965421"><ele>60.0</ele><time>2026-04-19T09:08:06.002Z</time></trkpt><trkpt lat="42.94261616931025" lon="10.50292121700454"><ele>59.5</ele><time>2026-04-19T09:08:09.002Z</time></trkpt><trkpt lat="42.942532138704046" lon="10.502912791462036"><ele>59.0</ele><time>2026-04-19T09:08:12.002Z</time></trkpt><trkpt lat="42.94244780715956" lon="10.502895209989763"><ele>58.5</ele><time>2026-04-19T09:08:15.002Z</time></trkpt><trkpt lat="42.9423723790804" lon="10.502869954381989"><ele>58.0</ele><time>2026-04-19T09:08:18.002Z</time></trkpt><trkpt lat="42.94229202935462" lon="10.50285757841368"><ele>57.5</ele><time>2026-04-19T09:08:21.002Z</time></trkpt><trkpt lat="42.94220816518416" lon="10.502850952934518"><ele>57.0</ele><time>2026-04-19T09:08:24.002Z</time></trkpt><trkpt lat="42.942128006284804" lon="10.502814240705092"><ele>57.0</ele><time>2026-04-19T09:08:27.003Z</time></trkpt><trkpt lat="42.94206307899824" lon="10.502764101022311"><ele>57.0</ele><time>2026-04-19T09:08:30.003Z</time></trkpt><trkpt lat="42.94200118113857" lon="10.50271294697121"><ele>57.0</ele><time>2026-04-19T09:08:33.003Z</time></trkpt><trkpt lat="42.94195673730559" lon="10.502601292576946"><ele>57.0</ele><time>2026-04-19T09:08:36.003Z</time></trkpt><trkpt lat="42.94190925963769" lon="10.502529212791922"><ele>57.0</ele><time>2026-04-19T09:08:38.998Z</time></trkpt><trkpt lat="42.94186902555685" lon="10.502431552137091"><ele>57.0</ele><time>2026-04-19T09:08:41.998Z</time></trkpt><trkpt lat="42.941825825240365" lon="10.502338677849583"><ele>57.0</ele><time>2026-04-19T09:08:44.999Z</time></trkpt><trkpt lat="42.94179733803784" lon="10.502257924438737"><ele>57.0</ele><time>2026-04-19T09:08:47.999Z</time></trkpt><trkpt lat="42.94175881245924" lon="10.502154623410673"><ele>57.0</ele><time>2026-04-19T09:08:51.999Z</time></trkpt><trkpt lat="42.94172163167913" lon="10.502048500519562"><ele>57.0</ele><time>2026-04-19T09:08:55.999Z</time></trkpt><trkpt lat="42.94168385906719" lon="10.50195832855562"><ele>57.0</ele><time>2026-04-19T09:08:58.999Z</time></trkpt><trkpt lat="42.941648342426625" lon="10.501856899019682"><ele>57.0</ele><time>2026-04-19T09:09:01.999Z</time></trkpt><trkpt lat="42.94164244930254" lon="10.501763663823597"><ele>57.333333333333336</ele><time>2026-04-19T09:09:05Z</time></trkpt><trkpt lat="42.9416180028175" lon="10.501662898478425"><ele>57.66666666666667</ele><time>2026-04-19T09:09:09Z</time></trkpt><trkpt lat="42.94160599282201" lon="10.501564613213622"><ele>58.0</ele><time>2026-04-19T09:09:11Z</time></trkpt><trkpt lat="42.94163328878793" lon="10.501456742653833"><ele>58.333333333333336</ele><time>2026-04-19T09:09:13Z</time></trkpt><trkpt lat="42.94158741768935" lon="10.50135871295704"><ele>58.66666666666667</ele><time>2026-04-19T09:09:16Z</time></trkpt><trkpt lat="42.94158016179768" lon="10.501254645014464"><ele>59.0</ele><time>2026-04-19T09:09:19Z</time></trkpt><trkpt lat="42.94155617095331" lon="10.50115012673452"><ele>59.00000000000001</ele><time>2026-04-19T09:09:22Z</time></trkpt><trkpt lat="42.941517695823016" lon="10.501043933768557"><ele>59.0</ele><time>2026-04-19T09:09:26.001Z</time></trkpt><trkpt lat="42.941451323050494" lon="10.501010582838274"><ele>59.0</ele><time>2026-04-19T09:09:28.001Z</time></trkpt><trkpt lat="42.941388356448854" lon="10.50099864565728"><ele>59.0</ele><time>2026-04-19T09:09:30.001Z</time></trkpt><trkpt lat="42.94132286533078" lon="10.501025981846649"><ele>59.00000000000001</ele><time>2026-04-19T09:09:32.001Z</time></trkpt><trkpt lat="42.94128169463877" lon="10.501129950179969"><ele>59.0</ele><time>2026-04-19T09:09:35.001Z</time></trkpt><trkpt lat="42.94125097504791" lon="10.501239869670716"><ele>57.50000000000001</ele><time>2026-04-19T09:09:38.001Z</time></trkpt><trkpt lat="42.94123908825438" lon="10.501333261276894"><ele>56.0</ele><time>2026-04-19T09:09:41.001Z</time></trkpt><trkpt lat="42.94120134999023" lon="10.50143794594675"><ele>54.5</ele><time>2026-04-19T09:09:44.001Z</time></trkpt><trkpt lat="42.94116412583059" lon="10.501536875087538"><ele>53.0</ele><time>2026-04-19T09:09:47.001Z</time></trkpt><trkpt lat="42.94114038368192" lon="10.501636235190762"><ele>51.50000000000001</ele><time>2026-04-19T09:09:50.001Z</time></trkpt><trkpt lat="42.94111755144655" lon="10.50173667741605"><ele>50.0</ele><time>2026-04-19T09:09:53.001Z</time></trkpt><trkpt lat="42.941099368137515" lon="10.501841215120558"><ele>50.00000000000001</ele><time>2026-04-19T09:09:56.001Z</time></trkpt><trkpt lat="42.9410591248583" lon="10.501945238550883"><ele>50.0</ele><time>2026-04-19T09:09:59.002Z</time></trkpt><trkpt lat="42.941040623718024" lon="10.50203897050979"><ele>50.0</ele><time>2026-04-19T09:10:02.002Z</time></trkpt><trkpt lat="42.94100790836157" lon="10.502123881828046"><ele>50.0</ele><time>2026-04-19T09:10:05.002Z</time></trkpt><trkpt lat="42.94098093687952" lon="10.502218068725368"><ele>50.0</ele><time>2026-04-19T09:10:08.002Z</time></trkpt><trkpt lat="42.94095570509637" lon="10.502317858503089"><ele>50.00000000000001</ele><time>2026-04-19T09:10:11.002Z</time></trkpt><trkpt lat="42.94093336898126" lon="10.502401758135472"><ele>50.0</ele><time>2026-04-19T09:10:14.002Z</time></trkpt><trkpt lat="42.940908801032535" lon="10.50249534227993"><ele>49.50000000000001</ele><time>2026-04-19T09:10:17.002Z</time></trkpt><trkpt lat="42.94088514815873" lon="10.502593391145727"><ele>49.0</ele><time>2026-04-19T09:10:20.002Z</time></trkpt><trkpt lat="42.940849803460516" lon="10.502691168479659"><ele>48.5</ele><time>2026-04-19T09:10:23.002Z</time></trkpt><trkpt lat="42.9408246389339" lon="10.502789852692066"><ele>48.0</ele><time>2026-04-19T09:10:26.002Z</time></trkpt><trkpt lat="42.9407941091514" lon="10.502888111832474"><ele>47.5</ele><time>2026-04-19T09:10:29.003Z</time></trkpt><trkpt lat="42.940774339698194" lon="10.502982031220295"><ele>47.0</ele><time>2026-04-19T09:10:32.003Z</time></trkpt><trkpt lat="42.94075380535623" lon="10.503077514738058"><ele>46.5</ele><time>2026-04-19T09:10:35.003Z</time></trkpt><trkpt lat="42.940733426091874" lon="10.503173298574398"><ele>46.0</ele><time>2026-04-19T09:10:38.003Z</time></trkpt><trkpt lat="42.94072505938259" lon="10.503265195419452"><ele>45.5</ele><time>2026-04-19T09:10:41.003Z</time></trkpt><trkpt lat="42.94070005706964" lon="10.503375223928469"><ele>45.0</ele><time>2026-04-19T09:10:44.003Z</time></trkpt><trkpt lat="42.94067690194269" lon="10.503480772100238"><ele>44.5</ele><time>2026-04-19T09:10:46.999Z</time></trkpt><trkpt lat="42.94065770460061" lon="10.503580707315296"><ele>44.0</ele><time>2026-04-19T09:10:49.999Z</time></trkpt><trkpt lat="42.94066108308706" lon="10.503702088376553"><ele>43.83333333333333</ele><time>2026-04-19T09:10:52.999Z</time></trkpt><trkpt lat="42.94065284836013" lon="10.50381868848082"><ele>43.666666666666664</ele><time>2026-04-19T09:10:55.999Z</time></trkpt><trkpt lat="42.9406312786659" lon="10.503921891589528"><ele>43.5</ele><time>2026-04-19T09:10:58.999Z</time></trkpt><trkpt lat="42.94061609734151" lon="10.504029496125304"><ele>43.333333333333336</ele><time>2026-04-19T09:11:01.999Z</time></trkpt><trkpt lat="42.940613227766335" lon="10.504130180268692"><ele>43.16666666666667</ele><time>2026-04-19T09:11:04.999Z</time></trkpt><trkpt lat="42.94059216551448" lon="10.504231362232352"><ele>43.0</ele><time>2026-04-19T09:11:08Z</time></trkpt><trkpt lat="42.94054405228562" lon="10.50432503150476"><ele>43.0</ele><time>2026-04-19T09:11:11Z</time></trkpt><trkpt lat="42.94053018440949" lon="10.50442770233646"><ele>43.0</ele><time>2026-04-19T09:11:14Z</time></trkpt><trkpt lat="42.94048419359131" lon="10.504513372634449"><ele>43.0</ele><time>2026-04-19T09:11:17Z</time></trkpt><trkpt lat="42.94043634140767" lon="10.504595367465326"><ele>43.0</ele><time>2026-04-19T09:11:20Z</time></trkpt><trkpt lat="42.94039401818561" lon="10.504690843677336"><ele>43.0</ele><time>2026-04-19T09:11:23Z</time></trkpt><trkpt lat="42.94034014179379" lon="10.504753212168762"><ele>43.0</ele><time>2026-04-19T09:11:26Z</time></trkpt><trkpt lat="42.94026377540288" lon="10.504798290246114"><ele>43.0</ele><time>2026-04-19T09:11:29Z</time></trkpt><trkpt lat="42.94019661677479" lon="10.504834754406144"><ele>43.0</ele><time>2026-04-19T09:11:32.001Z</time></trkpt><trkpt lat="42.94013304838176" lon="10.504891771747143"><ele>43.0</ele><time>2026-04-19T09:11:35.001Z</time></trkpt><trkpt lat="42.94005592280705" lon="10.504927676963256"><ele>43.0</ele><time>2026-04-19T09:11:38.001Z</time></trkpt><trkpt lat="42.93996908224414" lon="10.504961652602717"><ele>43.0</ele><time>2026-04-19T09:11:41.001Z</time></trkpt><trkpt lat="42.93989439739284" lon="10.505020719853993"><ele>43.0</ele><time>2026-04-19T09:11:44.001Z</time></trkpt><trkpt lat="42.93980942608194" lon="10.505022557318547"><ele>42.16666666666667</ele><time>2026-04-19T09:11:47.001Z</time></trkpt><trkpt lat="42.93972514412588" lon="10.505027305378885"><ele>41.333333333333336</ele><time>2026-04-19T09:11:50.001Z</time></trkpt><trkpt lat="42.93965287886034" lon="10.505042417207033"><ele>40.5</ele><time>2026-04-19T09:11:53.001Z</time></trkpt><trkpt lat="42.93957577575994" lon="10.505031574703215"><ele>39.666666666666664</ele><time>2026-04-19T09:11:56.001Z</time></trkpt><trkpt lat="42.939496074445316" lon="10.50503587875151"><ele>38.83333333333333</ele><time>2026-04-19T09:11:59.001Z</time></trkpt><trkpt lat="42.93941579535407" lon="10.505050240431533"><ele>38.0</ele><time>2026-04-19T09:12:02.002Z</time></trkpt><trkpt lat="42.93935539356354" lon="10.505119040626905"><ele>38.0</ele><time>2026-04-19T09:12:05.002Z</time></trkpt><trkpt lat="42.939310241976514" lon="10.505202621698228"><ele>38.0</ele><time>2026-04-19T09:12:08.002Z</time></trkpt><trkpt lat="42.93924944732263" lon="10.50524971090479"><ele>38.0</ele><time>2026-04-19T09:12:11.002Z</time></trkpt><trkpt lat="42.939168270434934" lon="10.505264781188568"><ele>38.0</ele><time>2026-04-19T09:12:14.002Z</time></trkpt><trkpt lat="42.939091107389295" lon="10.50529199817733"><ele>38.0</ele><time>2026-04-19T09:12:17.002Z</time></trkpt><trkpt lat="42.939016659778865" lon="10.505307782929876"><ele>38.0</ele><time>2026-04-19T09:12:20.002Z</time></trkpt><trkpt lat="42.93893375906371" lon="10.505337031347475"><ele>38.0</ele><time>2026-04-19T09:12:23.002Z</time></trkpt><trkpt lat="42.93886261777043" lon="10.505406201616301"><ele>38.0</ele><time>2026-04-19T09:12:27.002Z</time></trkpt><trkpt lat="42.93879416252063" lon="10.505448775613544"><ele>38.0</ele><time>2026-04-19T09:12:30.002Z</time></trkpt><trkpt lat="42.93873445353643" lon="10.505515919437709"><ele>38.0</ele><time>2026-04-19T09:12:33.003Z</time></trkpt><trkpt lat="42.938669200399346" lon="10.505574849678085"><ele>38.0</ele><time>2026-04-19T09:12:36.003Z</time></trkpt><trkpt lat="42.938587184897465" lon="10.50563295702001"><ele>38.0</ele><time>2026-04-19T09:12:39.003Z</time></trkpt><trkpt lat="42.93851401485004" lon="10.505688619824785"><ele>38.0</ele><time>2026-04-19T09:12:42.003Z</time></trkpt><trkpt lat="42.938464532151464" lon="10.505770393545323"><ele>38.0</ele><time>2026-04-19T09:12:45.003Z</time></trkpt><trkpt lat="42.9384089889385" lon="10.505838570401025"><ele>38.0</ele><time>2026-04-19T09:12:48.003Z</time></trkpt><trkpt lat="42.93835481126279" lon="10.505892229660882"><ele>38.0</ele><time>2026-04-19T09:12:50.999Z</time></trkpt><trkpt lat="42.93830109212733" lon="10.50596638313333"><ele>38.0</ele><time>2026-04-19T09:12:53.999Z</time></trkpt><trkpt lat="42.93823895538368" lon="10.50603081404516"><ele>38.0</ele><time>2026-04-19T09:12:56.999Z</time></trkpt><trkpt lat="42.93818317749199" lon="10.506080809017654"><ele>38.0</ele><time>2026-04-19T09:12:58.999Z</time></trkpt><trkpt lat="42.938119612934706" lon="10.50615781304976"><ele>38.0</ele><time>2026-04-19T09:13:01.999Z</time></trkpt><trkpt lat="42.938071720532044" lon="10.506249852154074"><ele>38.0</ele><time>2026-04-19T09:13:04.999Z</time></trkpt><trkpt lat="42.93800212362154" lon="10.506301220282467"><ele>38.0</ele><time>2026-04-19T09:13:07.999Z</time></trkpt><trkpt lat="42.93793911381324" lon="10.506306028728435"><ele>38.0</ele><time>2026-04-19T09:13:11Z</time></trkpt><trkpt lat="42.937881526209665" lon="10.50639783298339"><ele>38.0</ele><time>2026-04-19T09:13:14Z</time></trkpt><trkpt lat="42.93785555506126" lon="10.506489176425163"><ele>38.0</ele><time>2026-04-19T09:13:18Z</time></trkpt><trkpt lat="42.93779662035186" lon="10.506536805205421"><ele>38.0</ele><time>2026-04-19T09:13:20Z</time></trkpt><trkpt lat="42.93772095504911" lon="10.506584531099746"><ele>38.0</ele><time>2026-04-19T09:13:23Z</time></trkpt><trkpt lat="42.93765879975313" lon="10.50661775607876"><ele>38.0</ele><time>2026-04-19T09:13:26Z</time></trkpt><trkpt lat="42.9377172141966" lon="10.506697021539068"><ele>38.0</ele><time>2026-04-19T09:13:32Z</time></trkpt><trkpt lat="42.93778632259279" lon="10.506718099247479"><ele>38.0</ele><time>2026-04-19T09:13:36.001Z</time></trkpt><trkpt lat="42.937839870218156" lon="10.506793001684127"><ele>38.0</ele><time>2026-04-19T09:13:40.001Z</time></trkpt><trkpt lat="42.93787424554645" lon="10.506899820187618"><ele>38.0</ele><time>2026-04-19T09:13:44.001Z</time></trkpt><trkpt lat="42.93791045914845" lon="10.506972604846068"><ele>38.0</ele><time>2026-04-19T09:13:47.001Z</time></trkpt><trkpt lat="42.937937583561535" lon="10.507053745561494"><ele>38.0</ele><time>2026-04-19T09:13:50.001Z</time></trkpt><trkpt lat="42.93797510949502" lon="10.507148303017516"><ele>38.0</ele><time>2026-04-19T09:13:53.001Z</time></trkpt><trkpt lat="42.93800575301817" lon="10.507229449805605"><ele>38.0</ele><time>2026-04-19T09:13:56.001Z</time></trkpt><trkpt lat="42.9380641077764" lon="10.507305347829016"><ele>38.0</ele><time>2026-04-19T09:14:00.001Z</time></trkpt><trkpt lat="42.93810873770924" lon="10.507384914491146"><ele>38.0</ele><time>2026-04-19T09:14:04.002Z</time></trkpt><trkpt lat="42.93812696118378" lon="10.50748091566953"><ele>38.714285714285715</ele><time>2026-04-19T09:14:07.002Z</time></trkpt><trkpt lat="42.93818104440995" lon="10.507536334468252"><ele>39.42857142857143</ele><time>2026-04-19T09:14:12.002Z</time></trkpt><trkpt lat="42.938224858876225" lon="10.507617239457476"><ele>40.142857142857146</ele><time>2026-04-19T09:14:17.002Z</time></trkpt><trkpt lat="42.938250401378426" lon="10.5077033456114"><ele>40.85714285714286</ele><time>2026-04-19T09:14:21.002Z</time></trkpt><trkpt lat="42.938299123877194" lon="10.507771664470257"><ele>41.57142857142857</ele><time>2026-04-19T09:14:27.002Z</time></trkpt><trkpt lat="42.93834728386272" lon="10.507853775591828"><ele>42.28571428571429</ele><time>2026-04-19T09:14:35.002Z</time></trkpt><trkpt lat="42.93839106392751" lon="10.507933278525684"><ele>43.0</ele><time>2026-04-19T09:14:39.003Z</time></trkpt><trkpt lat="42.9384466470231" lon="10.507994261736238"><ele>44.57142857142858</ele><time>2026-04-19T09:14:44.003Z</time></trkpt><trkpt lat="42.938470071055676" lon="10.508077659276895"><ele>46.142857142857146</ele><time>2026-04-19T09:14:48.003Z</time></trkpt><trkpt lat="42.93849106047402" lon="10.508170445979347"><ele>47.714285714285715</ele><time>2026-04-19T09:14:52.003Z</time></trkpt><trkpt lat="42.93853021111729" lon="10.508254418684455"><ele>49.28571428571429</ele><time>2026-04-19T09:14:57.999Z</time></trkpt><trkpt lat="42.93859135507099" lon="10.50830622356669"><ele>50.857142857142854</ele><time>2026-04-19T09:15:04.999Z</time></trkpt><trkpt lat="42.93862107519875" lon="10.508400202562616"><ele>52.42857142857143</ele><time>2026-04-19T09:15:08.999Z</time></trkpt><trkpt lat="42.9386654060132" lon="10.508466649212147"><ele>54.0</ele><time>2026-04-19T09:15:13Z</time></trkpt><trkpt lat="42.93870680593183" lon="10.50856744474647"><ele>54.0</ele><time>2026-04-19T09:15:17Z</time></trkpt><trkpt lat="42.9387425844777" lon="10.508645577300795"><ele>54.0</ele><time>2026-04-19T09:15:21Z</time></trkpt><trkpt lat="42.93878710595985" lon="10.508721046259593"><ele>54.0</ele><time>2026-04-19T09:15:26Z</time></trkpt><trkpt lat="42.938826481615436" lon="10.508803743175495"><ele>54.0</ele><time>2026-04-19T09:15:32Z</time></trkpt><trkpt lat="42.93886027816478" lon="10.508878577732562"><ele>54.0</ele><time>2026-04-19T09:15:36.001Z</time></trkpt><trkpt lat="42.938897085468355" lon="10.50895334913779"><ele>54.0</ele><time>2026-04-19T09:15:40.001Z</time></trkpt><trkpt lat="42.93891968513649" lon="10.509043217579464"><ele>54.0</ele><time>2026-04-19T09:15:46.001Z</time></trkpt><trkpt lat="42.93892042004017" lon="10.509145982815198"><ele>55.42857142857143</ele><time>2026-04-19T09:15:53.001Z</time></trkpt><trkpt lat="42.93892227657483" lon="10.509241273382882"><ele>56.857142857142854</ele><time>2026-04-19T09:15:57.001Z</time></trkpt><trkpt lat="42.93892860241327" lon="10.509346327511839"><ele>58.285714285714285</ele><time>2026-04-19T09:16:02.001Z</time></trkpt><trkpt lat="42.93893809134051" lon="10.509443348532999"><ele>59.71428571428571</ele><time>2026-04-19T09:16:06.001Z</time></trkpt><trkpt lat="42.93893478314101" lon="10.509537362301183"><ele>61.14285714285714</ele><time>2026-04-19T09:16:10.002Z</time></trkpt><trkpt lat="42.93893092162362" lon="10.509640173320822"><ele>62.57142857142857</ele><time>2026-04-19T09:16:15.002Z</time></trkpt><trkpt lat="42.93894918516645" lon="10.509723908097321"><ele>64.0</ele><time>2026-04-19T09:16:20.002Z</time></trkpt><trkpt lat="42.938949980967934" lon="10.509826129724056"><ele>65.0</ele><time>2026-04-19T09:16:25.002Z</time></trkpt><trkpt lat="42.93896026911584" lon="10.509935476273304"><ele>66.0</ele><time>2026-04-19T09:16:30.002Z</time></trkpt><trkpt lat="42.93899387258796" lon="10.510010897828073"><ele>67.0</ele><time>2026-04-19T09:16:34.002Z</time></trkpt><trkpt lat="42.939003565823356" lon="10.510099949607062"><ele>68.0</ele><time>2026-04-19T09:16:38.002Z</time></trkpt><trkpt lat="42.93900405246102" lon="10.510212226636009"><ele>69.0</ele><time>2026-04-19T09:16:42.003Z</time></trkpt><trkpt lat="42.93900207173092" lon="10.510313222045683"><ele>70.0</ele><time>2026-04-19T09:16:46.003Z</time></trkpt><trkpt lat="42.93900982193363" lon="10.510405250737236"><ele>71.0</ele><time>2026-04-19T09:16:50.003Z</time></trkpt><trkpt lat="42.9389920931746" lon="10.510492075459483"><ele>72.57142857142857</ele><time>2026-04-19T09:16:54.003Z</time></trkpt><trkpt lat="42.93896526999779" lon="10.510589451519257"><ele>74.14285714285714</ele><time>2026-04-19T09:16:58.003Z</time></trkpt><trkpt lat="42.93894154924402" lon="10.510675188875775"><ele>75.71428571428571</ele><time>2026-04-19T09:17:02.003Z</time></trkpt><trkpt lat="42.93890212804045" lon="10.510765968540937"><ele>77.28571428571428</ele><time>2026-04-19T09:17:05.999Z</time></trkpt><trkpt lat="42.93884809529188" lon="10.510847543814055"><ele>78.85714285714286</ele><time>2026-04-19T09:17:09.999Z</time></trkpt><trkpt lat="42.938788883569345" lon="10.510916742747225"><ele>80.42857142857142</ele><time>2026-04-19T09:17:14Z</time></trkpt><trkpt lat="42.93873295674325" lon="10.510974626591477"><ele>82.0</ele><time>2026-04-19T09:17:18Z</time></trkpt><trkpt lat="42.93867430275927" lon="10.511017025129439"><ele>81.99999999999999</ele><time>2026-04-19T09:17:21Z</time></trkpt><trkpt lat="42.93861153652208" lon="10.511049287948937"><ele>82.0</ele><time>2026-04-19T09:17:25Z</time></trkpt><trkpt lat="42.93853980642108" lon="10.511076772006433"><ele>82.0</ele><time>2026-04-19T09:17:29Z</time></trkpt><trkpt lat="42.9384696914549" lon="10.511101282517389"><ele>82.0</ele><time>2026-04-19T09:17:33Z</time></trkpt><trkpt lat="42.93841756764941" lon="10.51115266472571"><ele>82.0</ele><time>2026-04-19T09:17:37Z</time></trkpt><trkpt lat="42.938368254731664" lon="10.511214845703236"><ele>81.99999999999999</ele><time>2026-04-19T09:17:41.001Z</time></trkpt><trkpt lat="42.93835404691948" lon="10.511312697053535"><ele>82.0</ele><time>2026-04-19T09:17:46.001Z</time></trkpt><trkpt lat="42.938376309755654" lon="10.511404187622627"><ele>83.14285714285714</ele><time>2026-04-19T09:17:51.001Z</time></trkpt><trkpt lat="42.938426171266116" lon="10.51148625268241"><ele>84.28571428571428</ele><time>2026-04-19T09:17:56.001Z</time></trkpt><trkpt lat="42.938490215315234" lon="10.511515321400053"><ele>85.42857142857142</ele><time>2026-04-19T09:18:00.001Z</time></trkpt><trkpt lat="42.938565188867116" lon="10.511522741634955"><ele>86.57142857142857</ele><time>2026-04-19T09:18:05.001Z</time></trkpt><trkpt lat="42.938641990965316" lon="10.511517472542405"><ele>87.71428571428572</ele><time>2026-04-19T09:18:09.001Z</time></trkpt><trkpt lat="42.93870564437023" lon="10.511523028757097"><ele>88.85714285714285</ele><time>2026-04-19T09:18:14.002Z</time></trkpt><trkpt lat="42.938787420082676" lon="10.511517604883098"><ele>90.0</ele><time>2026-04-19T09:18:29.002Z</time></trkpt><trkpt lat="42.93885790458791" lon="10.511550672201816"><ele>90.0</ele><time>2026-04-19T09:18:40.002Z</time></trkpt><trkpt lat="42.938919957575195" lon="10.51158187862433"><ele>90.0</ele><time>2026-04-19T09:18:45.003Z</time></trkpt><trkpt lat="42.938983325766955" lon="10.51160279277945"><ele>90.0</ele><time>2026-04-19T09:18:52.003Z</time></trkpt><trkpt lat="42.93905357125486" lon="10.511618181169998"><ele>90.0</ele><time>2026-04-19T09:18:58.003Z</time></trkpt><trkpt lat="42.939109359642465" lon="10.511660527706303"><ele>90.0</ele><time>2026-04-19T09:19:04.003Z</time></trkpt><trkpt lat="42.93916764007371" lon="10.51171151385147"><ele>90.0</ele><time>2026-04-19T09:19:10Z</time></trkpt><trkpt lat="42.93923003439324" lon="10.511760756096216"><ele>90.0</ele><time>2026-04-19T09:19:18Z</time></trkpt><trkpt lat="42.93929920904961" lon="10.51183327304682"><ele>90.33333333333333</ele><time>2026-04-19T09:19:23Z</time></trkpt><trkpt lat="42.93936075815698" lon="10.511916750364827"><ele>90.66666666666667</ele><time>2026-04-19T09:19:28Z</time></trkpt><trkpt lat="42.93941548395008" lon="10.511988521728655"><ele>91.0</ele><time>2026-04-19T09:19:32Z</time></trkpt><trkpt lat="42.939464984714554" lon="10.512073144449106"><ele>91.33333333333334</ele><time>2026-04-19T09:19:35Z</time></trkpt><trkpt lat="42.93950804146235" lon="10.512149808514973"><ele>91.66666666666667</ele><time>2026-04-19T09:19:38Z</time></trkpt><trkpt lat="42.939554429407465" lon="10.512213234064557"><ele>92.0</ele><time>2026-04-19T09:19:41Z</time></trkpt><trkpt lat="42.93959802527302" lon="10.512308667149313"><ele>92.71428571428572</ele><time>2026-04-19T09:19:44.001Z</time></trkpt><trkpt lat="42.93962781790465" lon="10.51239624675787"><ele>93.42857142857142</ele><time>2026-04-19T09:19:47.001Z</time></trkpt><trkpt lat="42.939667577429724" lon="10.512490001419712"><ele>94.14285714285714</ele><time>2026-04-19T09:19:51.001Z</time></trkpt><trkpt lat="42.93967667759496" lon="10.512588945975684"><ele>94.85714285714286</ele><time>2026-04-19T09:19:54.001Z</time></trkpt><trkpt lat="42.93968943845234" lon="10.512684922636948"><ele>95.57142857142858</ele><time>2026-04-19T09:19:57.001Z</time></trkpt><trkpt lat="42.93970209799163" lon="10.512777491450889"><ele>96.28571428571428</ele><time>2026-04-19T09:20:00.001Z</time></trkpt><trkpt lat="42.939741986636534" lon="10.512872008835418"><ele>97.0</ele><time>2026-04-19T09:20:03.001Z</time></trkpt><trkpt lat="42.93975924248109" lon="10.512977325946276"><ele>97.00000000000001</ele><time>2026-04-19T09:20:06.001Z</time></trkpt><trkpt lat="42.93978547460978" lon="10.51308554490015"><ele>97.0</ele><time>2026-04-19T09:20:09.001Z</time></trkpt><trkpt lat="42.93982118250023" lon="10.513175501066941"><ele>97.0</ele><time>2026-04-19T09:20:12.001Z</time></trkpt><trkpt lat="42.93985237076572" lon="10.513282375195077"><ele>97.0</ele><time>2026-04-19T09:20:15.002Z</time></trkpt><trkpt lat="42.93989439470709" lon="10.51339569332763"><ele>97.00000000000001</ele><time>2026-04-19T09:20:18.002Z</time></trkpt><trkpt lat="42.93993256637381" lon="10.513483136978309"><ele>97.0</ele><time>2026-04-19T09:20:21.002Z</time></trkpt><trkpt lat="42.93997050461665" lon="10.513583299592701"><ele>97.00000000000001</ele><time>2026-04-19T09:20:24.002Z</time></trkpt><trkpt lat="42.94001872590863" lon="10.51367834926297"><ele>97.0</ele><time>2026-04-19T09:20:27.002Z</time></trkpt><trkpt lat="42.94006509941174" lon="10.513771632156706"><ele>97.0</ele><time>2026-04-19T09:20:30.002Z</time></trkpt><trkpt lat="42.94010818289872" lon="10.513879150228515"><ele>97.0</ele><time>2026-04-19T09:20:33.002Z</time></trkpt><trkpt lat="42.940137440711126" lon="10.51395810539892"><ele>97.00000000000001</ele><time>2026-04-19T09:20:35.002Z</time></trkpt><trkpt lat="42.94017818809966" lon="10.514060926751363"><ele>97.0</ele><time>2026-04-19T09:20:38.002Z</time></trkpt><trkpt lat="42.940239468476044" lon="10.51414043256474"><ele>96.33333333333334</ele><time>2026-04-19T09:20:41.002Z</time></trkpt><trkpt lat="42.940286933374836" lon="10.514232247507755"><ele>95.66666666666667</ele><time>2026-04-19T09:20:44.002Z</time></trkpt><trkpt lat="42.94034129544028" lon="10.514336751095962"><ele>95.0</ele><time>2026-04-19T09:20:47.003Z</time></trkpt><trkpt lat="42.94039245231722" lon="10.514431319219641"><ele>94.33333333333334</ele><time>2026-04-19T09:20:50.003Z</time></trkpt><trkpt lat="42.94044895925522" lon="10.51452389386988"><ele>93.66666666666667</ele><time>2026-04-19T09:20:53.003Z</time></trkpt><trkpt lat="42.94050342711587" lon="10.514602991942846"><ele>93.0</ele><time>2026-04-19T09:20:56.003Z</time></trkpt><trkpt lat="42.94054904443733" lon="10.514667994907022"><ele>92.33333333333333</ele><time>2026-04-19T09:20:58.003Z</time></trkpt><trkpt lat="42.94059831785873" lon="10.514766635956471"><ele>91.66666666666667</ele><time>2026-04-19T09:21:01.003Z</time></trkpt><trkpt lat="42.94064352191062" lon="10.514828618582046"><ele>91.0</ele><time>2026-04-19T09:21:03.003Z</time></trkpt><trkpt lat="42.940702021821046" lon="10.514907497785575"><ele>90.33333333333334</ele><time>2026-04-19T09:21:06.003Z</time></trkpt><trkpt lat="42.9407639590682" lon="10.514996378235676"><ele>89.66666666666667</ele><time>2026-04-19T09:21:09.003Z</time></trkpt><trkpt lat="42.940820601574615" lon="10.515068510584273"><ele>89.0</ele><time>2026-04-19T09:21:12.003Z</time></trkpt><trkpt lat="42.94088991956821" lon="10.515141941624229"><ele>89.0</ele><time>2026-04-19T09:21:15Z</time></trkpt><trkpt lat="42.94094167461401" lon="10.515217105991983"><ele>89.0</ele><time>2026-04-19T09:21:18Z</time></trkpt><trkpt lat="42.941018094411326" lon="10.515284408652166"><ele>89.0</ele><time>2026-04-19T09:21:21Z</time></trkpt><trkpt lat="42.94107039838482" lon="10.515370550264786"><ele>89.0</ele><time>2026-04-19T09:21:24Z</time></trkpt><trkpt lat="42.94112521489708" lon="10.515454556656154"><ele>89.0</ele><time>2026-04-19T09:21:27Z</time></trkpt><trkpt lat="42.94119463817724" lon="10.515524362103616"><ele>89.0</ele><time>2026-04-19T09:21:30Z</time></trkpt><trkpt lat="42.94125572674826" lon="10.515606135702757"><ele>87.66666666666667</ele><time>2026-04-19T09:21:33Z</time></trkpt><trkpt lat="42.94131296478207" lon="10.515686520749759"><ele>86.33333333333334</ele><time>2026-04-19T09:21:36Z</time></trkpt><trkpt lat="42.941376141110226" lon="10.515757950478873"><ele>85.0</ele><time>2026-04-19T09:21:39Z</time></trkpt><trkpt lat="42.94143003382862" lon="10.515853179146267"><ele>83.66666666666667</ele><time>2026-04-19T09:21:42Z</time></trkpt><trkpt lat="42.941477786959815" lon="10.51593407295175"><ele>82.33333333333333</ele><time>2026-04-19T09:21:45.001Z</time></trkpt><trkpt lat="42.941430231107844" lon="10.516000910754661"><ele>81.0</ele><time>2026-04-19T09:21:47.001Z</time></trkpt><trkpt lat="42.94144886706377" lon="10.516106155798518"><ele>81.0</ele><time>2026-04-19T09:21:50.001Z</time></trkpt><trkpt lat="42.941515249070136" lon="10.516173379143474"><ele>81.0</ele><time>2026-04-19T09:21:53.001Z</time></trkpt><trkpt lat="42.94150706938782" lon="10.516300120032582"><ele>81.0</ele><time>2026-04-19T09:21:56.001Z</time></trkpt><trkpt lat="42.94142754481852" lon="10.516368383762549"><ele>81.0</ele><time>2026-04-19T09:21:59.001Z</time></trkpt><trkpt lat="42.94136243311999" lon="10.516436490551817"><ele>81.0</ele><time>2026-04-19T09:22:02.001Z</time></trkpt><trkpt lat="42.941308723423184" lon="10.516531817598356"><ele>81.0</ele><time>2026-04-19T09:22:05.001Z</time></trkpt><trkpt lat="42.94124799042677" lon="10.51659992033223"><ele>80.33333333333333</ele><time>2026-04-19T09:22:08.001Z</time></trkpt><trkpt lat="42.94116635203162" lon="10.516644381179766"><ele>79.66666666666667</ele><time>2026-04-19T09:22:11.001Z</time></trkpt><trkpt lat="42.94110455513647" lon="10.516686179689506"><ele>79.0</ele><time>2026-04-19T09:22:14.001Z</time></trkpt><trkpt lat="42.94103557515994" lon="10.516748297956934"><ele>78.33333333333334</ele><time>2026-04-19T09:22:17.002Z</time></trkpt><trkpt lat="42.940983312567155" lon="10.516806076143995"><ele>77.66666666666667</ele><time>2026-04-19T09:22:19.002Z</time></trkpt><trkpt lat="42.94090177030278" lon="10.51685924327628"><ele>77.0</ele><time>2026-04-19T09:22:22.002Z</time></trkpt><trkpt lat="42.94082861179155" lon="10.516917099507385"><ele>77.0</ele><time>2026-04-19T09:22:25.002Z</time></trkpt><trkpt lat="42.94076112165653" lon="10.516983319550402"><ele>77.0</ele><time>2026-04-19T09:22:28.002Z</time></trkpt><trkpt lat="42.940682707525816" lon="10.517044929743491"><ele>77.0</ele><time>2026-04-19T09:22:31.002Z</time></trkpt><trkpt lat="42.94061022973776" lon="10.517071847897729"><ele>77.0</ele><time>2026-04-19T09:22:34.002Z</time></trkpt><trkpt lat="42.940517940461376" lon="10.517055131049247"><ele>77.0</ele><time>2026-04-19T09:22:37.002Z</time></trkpt><trkpt lat="42.94043643177509" lon="10.5170149319292"><ele>77.0</ele><time>2026-04-19T09:22:40.002Z</time></trkpt><trkpt lat="42.94037443102901" lon="10.516998289768402"><ele>77.0</ele><time>2026-04-19T09:22:42.002Z</time></trkpt><trkpt lat="42.94028232633754" lon="10.516984085030018"><ele>77.0</ele><time>2026-04-19T09:22:45.002Z</time></trkpt><trkpt lat="42.94019985873488" lon="10.51695855075917"><ele>77.0</ele><time>2026-04-19T09:22:48.002Z</time></trkpt><trkpt lat="42.94011896348942" lon="10.51693010768386"><ele>77.0</ele><time>2026-04-19T09:22:51.003Z</time></trkpt><trkpt lat="42.940052272069636" lon="10.516902375950623"><ele>77.0</ele><time>2026-04-19T09:22:54.003Z</time></trkpt><trkpt lat="42.93998120245441" lon="10.516876160314023"><ele>77.0</ele><time>2026-04-19T09:22:56.003Z</time></trkpt><trkpt lat="42.939915204063894" lon="10.516861179876024"><ele>76.33333333333334</ele><time>2026-04-19T09:22:58.003Z</time></trkpt><trkpt lat="42.939832528940514" lon="10.516824258863371"><ele>75.66666666666667</ele><time>2026-04-19T09:23:01.003Z</time></trkpt><trkpt lat="42.939751683575935" lon="10.516814365638284"><ele>75.0</ele><time>2026-04-19T09:23:04.003Z</time></trkpt><trkpt lat="42.93966935231593" lon="10.51678800170685"><ele>74.33333333333333</ele><time>2026-04-19T09:23:07.003Z</time></trkpt><trkpt lat="42.939584184938944" lon="10.516759667800994"><ele>73.66666666666666</ele><time>2026-04-19T09:23:10.003Z</time></trkpt><trkpt lat="42.939518048240146" lon="10.516749446514075"><ele>73.0</ele><time>2026-04-19T09:23:12.003Z</time></trkpt><trkpt lat="42.93942755979316" lon="10.5167229589894"><ele>73.0</ele><time>2026-04-19T09:23:15.003Z</time></trkpt><trkpt lat="42.93935327232785" lon="10.516704786464837"><ele>73.0</ele><time>2026-04-19T09:23:18.003Z</time></trkpt><trkpt lat="42.9392769556938" lon="10.516725983986131"><ele>73.0</ele><time>2026-04-19T09:23:21Z</time></trkpt><trkpt lat="42.939213584396214" lon="10.5167377609093"><ele>73.0</ele><time>2026-04-19T09:23:23Z</time></trkpt><trkpt lat="42.93913514289923" lon="10.516791747474153"><ele>73.0</ele><time>2026-04-19T09:23:26Z</time></trkpt><trkpt lat="42.939073503808444" lon="10.516818141270582"><ele>73.0</ele><time>2026-04-19T09:23:28Z</time></trkpt><trkpt lat="42.93900059964355" lon="10.516862422890448"><ele>72.16666666666666</ele><time>2026-04-19T09:23:31Z</time></trkpt><trkpt lat="42.938924501410305" lon="10.516915035360261"><ele>71.33333333333333</ele><time>2026-04-19T09:23:35Z</time></trkpt><trkpt lat="42.93886901843101" lon="10.516977707357398"><ele>70.5</ele><time>2026-04-19T09:23:37Z</time></trkpt><trkpt lat="42.93880761337588" lon="10.517044484691572"><ele>69.66666666666667</ele><time>2026-04-19T09:23:40Z</time></trkpt><trkpt lat="42.93873730267807" lon="10.517108485536196"><ele>68.83333333333334</ele><time>2026-04-19T09:23:43Z</time></trkpt><trkpt lat="42.93866946941848" lon="10.517168213759597"><ele>68.0</ele><time>2026-04-19T09:23:46Z</time></trkpt><trkpt lat="42.93861066182212" lon="10.517240341459695"><ele>67.33333333333334</ele><time>2026-04-19T09:23:49.001Z</time></trkpt><trkpt lat="42.93852993545305" lon="10.517281051487688"><ele>66.66666666666667</ele><time>2026-04-19T09:23:52.001Z</time></trkpt><trkpt lat="42.938455763542756" lon="10.517351129635918"><ele>66.0</ele><time>2026-04-19T09:23:55.001Z</time></trkpt><trkpt lat="42.93838181821938" lon="10.517401890893316"><ele>65.33333333333333</ele><time>2026-04-19T09:23:58.001Z</time></trkpt><trkpt lat="42.93830324458294" lon="10.517462476044297"><ele>64.66666666666666</ele><time>2026-04-19T09:24:01.001Z</time></trkpt><trkpt lat="42.9382406412514" lon="10.517492394179627"><ele>64.0</ele><time>2026-04-19T09:24:03.001Z</time></trkpt><trkpt lat="42.938175813065484" lon="10.517573602730636"><ele>63.666666666666664</ele><time>2026-04-19T09:24:06.001Z</time></trkpt><trkpt lat="42.93810661768621" lon="10.51761264326145"><ele>63.33333333333333</ele><time>2026-04-19T09:24:09.001Z</time></trkpt><trkpt lat="42.93803771800058" lon="10.517655295595695"><ele>63.0</ele><time>2026-04-19T09:24:12.001Z</time></trkpt><trkpt lat="42.937951980034896" lon="10.517684992448336"><ele>62.66666666666667</ele><time>2026-04-19T09:24:15.001Z</time></trkpt><trkpt lat="42.93788561237178" lon="10.517713590699278"><ele>62.333333333333336</ele><time>2026-04-19T09:24:18.001Z</time></trkpt><trkpt lat="42.93779207566393" lon="10.517742877324274"><ele>62.0</ele><time>2026-04-19T09:24:21.001Z</time></trkpt><trkpt lat="42.9377090162843" lon="10.51777585755638"><ele>62.00000000000001</ele><time>2026-04-19T09:24:24.002Z</time></trkpt><trkpt lat="42.93763023982669" lon="10.51779406995724"><ele>62.0</ele><time>2026-04-19T09:24:27.002Z</time></trkpt><trkpt lat="42.93756513951732" lon="10.517794878959679"><ele>62.0</ele><time>2026-04-19T09:24:29.002Z</time></trkpt><trkpt lat="42.937511735423676" lon="10.517874539112883"><ele>62.0</ele><time>2026-04-19T09:24:32.002Z</time></trkpt><trkpt lat="42.937473991089945" lon="10.51795020136079"><ele>62.00000000000001</ele><time>2026-04-19T09:24:35.002Z</time></trkpt><trkpt lat="42.93738689828832" lon="10.517979973054283"><ele>62.0</ele><time>2026-04-19T09:24:39.002Z</time></trkpt><trkpt lat="42.93733804764999" lon="10.518048618454506"><ele>61.57142857142858</ele><time>2026-04-19T09:24:42.002Z</time></trkpt><trkpt lat="42.93734342210793" lon="10.51814689701117"><ele>61.14285714285715</ele><time>2026-04-19T09:24:45.002Z</time></trkpt><trkpt lat="42.93736619512374" lon="10.518239526138002"><ele>60.714285714285715</ele><time>2026-04-19T09:24:48.002Z</time></trkpt><trkpt lat="42.937388890159106" lon="10.518331236104107"><ele>60.28571428571429</ele><time>2026-04-19T09:24:51.002Z</time></trkpt><trkpt lat="42.93741206638006" lon="10.518413669486717"><ele>59.85714285714286</ele><time>2026-04-19T09:24:54.002Z</time></trkpt><trkpt lat="42.93741554843832" lon="10.518511446831022"><ele>59.42857142857143</ele><time>2026-04-19T09:24:57.003Z</time></trkpt><trkpt lat="42.93743647779931" lon="10.518597163699356"><ele>59.0</ele><time>2026-04-19T09:25:00.003Z</time></trkpt><trkpt lat="42.93744862853875" lon="10.51869371220986"><ele>59.14285714285714</ele><time>2026-04-19T09:25:03.003Z</time></trkpt><trkpt lat="42.93746686708436" lon="10.51878172563363"><ele>59.28571428571429</ele><time>2026-04-19T09:25:06.003Z</time></trkpt><trkpt lat="42.9374928968412" lon="10.518866754073539"><ele>59.42857142857143</ele><time>2026-04-19T09:25:09.003Z</time></trkpt><trkpt lat="42.93751107660511" lon="10.51896698068434"><ele>59.57142857142857</ele><time>2026-04-19T09:25:12.003Z</time></trkpt><trkpt lat="42.93752861191215" lon="10.519077968309666"><ele>59.71428571428571</ele><time>2026-04-19T09:25:16.003Z</time></trkpt><trkpt lat="42.93754174653148" lon="10.519168519090156"><ele>59.85714285714286</ele><time>2026-04-19T09:25:19.003Z</time></trkpt><trkpt lat="42.93755586914014" lon="10.519266074253268"><ele>60.0</ele><time>2026-04-19T09:25:22.003Z</time></trkpt><trkpt lat="42.93758180235407" lon="10.519350010737005"><ele>60.142857142857146</ele><time>2026-04-19T09:25:25.003Z</time></trkpt><trkpt lat="42.937592088568124" lon="10.519455827963217"><ele>60.28571428571428</ele><time>2026-04-19T09:25:28Z</time></trkpt><trkpt lat="42.93760162376349" lon="10.519557278486127"><ele>60.42857142857142</ele><time>2026-04-19T09:25:31Z</time></trkpt><trkpt lat="42.93762188247228" lon="10.519657432180436"><ele>60.57142857142857</ele><time>2026-04-19T09:25:34Z</time></trkpt><trkpt lat="42.93763555074358" lon="10.519749621288256"><ele>60.71428571428571</ele><time>2026-04-19T09:25:37Z</time></trkpt><trkpt lat="42.93765306436631" lon="10.519836471394802"><ele>60.85714285714285</ele><time>2026-04-19T09:25:40Z</time></trkpt><trkpt lat="42.93765868311986" lon="10.519923266360665"><ele>60.99999999999999</ele><time>2026-04-19T09:25:42Z</time></trkpt><trkpt lat="42.937650007323825" lon="10.520031625127508"><ele>61.166666666666664</ele><time>2026-04-19T09:25:45Z</time></trkpt><trkpt lat="42.93765932511296" lon="10.52012683153977"><ele>61.33333333333333</ele><time>2026-04-19T09:25:48Z</time></trkpt><trkpt lat="42.93766198391842" lon="10.520246288179655"><ele>61.5</ele><time>2026-04-19T09:25:51.001Z</time></trkpt><trkpt lat="42.937682138729386" lon="10.52035439323486"><ele>61.66666666666667</ele><time>2026-04-19T09:25:54.001Z</time></trkpt><trkpt lat="42.93770101435488" lon="10.52046473247693"><ele>61.833333333333336</ele><time>2026-04-19T09:25:57.001Z</time></trkpt><trkpt lat="42.93768868079338" lon="10.52057674187937"><ele>62.0</ele><time>2026-04-19T09:26:00.001Z</time></trkpt><trkpt lat="42.93771306961833" lon="10.520656408007213"><ele>61.66666666666667</ele><time>2026-04-19T09:26:02.001Z</time></trkpt><trkpt lat="42.93777856211937" lon="10.520715773754656"><ele>61.333333333333336</ele><time>2026-04-19T09:26:05.001Z</time></trkpt><trkpt lat="42.937772253730444" lon="10.520816265331414"><ele>61.0</ele><time>2026-04-19T09:26:07.001Z</time></trkpt><trkpt lat="42.93775600371601" lon="10.520924083437533"><ele>60.66666666666667</ele><time>2026-04-19T09:26:10.001Z</time></trkpt><trkpt lat="42.937759346285674" lon="10.521029468290948"><ele>60.333333333333336</ele><time>2026-04-19T09:26:13.001Z</time></trkpt><trkpt lat="42.9377644507678" lon="10.521144179837123"><ele>60.0</ele><time>2026-04-19T09:26:16.001Z</time></trkpt><trkpt lat="42.93778345877915" lon="10.521242447383885"><ele>59.714285714285715</ele><time>2026-04-19T09:26:19.001Z</time></trkpt><trkpt lat="42.937808909529345" lon="10.521325985270565"><ele>59.42857142857143</ele><time>2026-04-19T09:26:22.001Z</time></trkpt><trkpt lat="42.93780673340668" lon="10.521432625512176"><ele>59.142857142857146</ele><time>2026-04-19T09:26:25.001Z</time></trkpt><trkpt lat="42.93781234556039" lon="10.521532339063494"><ele>58.85714285714286</ele><time>2026-04-19T09:26:28.002Z</time></trkpt><trkpt lat="42.937817871904144" lon="10.521633399163221"><ele>58.57142857142857</ele><time>2026-04-19T09:26:31.002Z</time></trkpt><trkpt lat="42.93781654108295" lon="10.521738455193983"><ele>58.28571428571429</ele><time>2026-04-19T09:26:34.002Z</time></trkpt><trkpt lat="42.937819762175835" lon="10.52184170333565"><ele>58.00000000000001</ele><time>2026-04-19T09:26:37.002Z</time></trkpt><trkpt lat="42.9378090030086" lon="10.521949283243508"><ele>58.00000000000001</ele><time>2026-04-19T09:26:40.002Z</time></trkpt><trkpt lat="42.93780692947323" lon="10.522055824878723"><ele>58.0</ele><time>2026-04-19T09:26:43.002Z</time></trkpt><trkpt lat="42.93780706825843" lon="10.522149736991448"><ele>58.00000000000001</ele><time>2026-04-19T09:26:46.002Z</time></trkpt><trkpt lat="42.93780620842355" lon="10.52224944598487"><ele>58.00000000000001</ele><time>2026-04-19T09:26:49.002Z</time></trkpt><trkpt lat="42.93780641935387" lon="10.522349415763863"><ele>58.0</ele><time>2026-04-19T09:26:52.002Z</time></trkpt><trkpt lat="42.93780138069515" lon="10.52245072952305"><ele>58.00000000000001</ele><time>2026-04-19T09:26:55.002Z</time></trkpt><trkpt lat="42.93780923403051" lon="10.522542460170687"><ele>58.00000000000001</ele><time>2026-04-19T09:26:58.002Z</time></trkpt><trkpt lat="42.9378244638648" lon="10.52263764173052"><ele>58.42857142857144</ele><time>2026-04-19T09:27:01.002Z</time></trkpt><trkpt lat="42.93783674159622" lon="10.522730894821105"><ele>58.85714285714286</ele><time>2026-04-19T09:27:04.003Z</time></trkpt><trkpt lat="42.93791327396279" lon="10.522765759787287"><ele>59.285714285714285</ele><time>2026-04-19T09:27:07.003Z</time></trkpt><trkpt lat="42.93797677631751" lon="10.522803400339006"><ele>59.714285714285715</ele><time>2026-04-19T09:27:10.003Z</time></trkpt><trkpt lat="42.938057544132896" lon="10.52283422821274"><ele>60.14285714285714</ele><time>2026-04-19T09:27:13.003Z</time></trkpt><trkpt lat="42.938125411966645" lon="10.522844418478757"><ele>60.57142857142856</ele><time>2026-04-19T09:27:16.003Z</time></trkpt><trkpt lat="42.938182773070366" lon="10.522881318625167"><ele>60.99999999999999</ele><time>2026-04-19T09:27:19.003Z</time></trkpt><trkpt lat="42.93825107787954" lon="10.52290603508554"><ele>61.14285714285714</ele><time>2026-04-19T09:27:22.003Z</time></trkpt><trkpt lat="42.938310622738854" lon="10.52294104413053"><ele>61.285714285714285</ele><time>2026-04-19T09:27:25.003Z</time></trkpt><trkpt lat="42.93839134604806" lon="10.522966112887662"><ele>61.42857142857143</ele><time>2026-04-19T09:27:28.003Z</time></trkpt><trkpt lat="42.938458858702326" lon="10.522978815000904"><ele>61.57142857142857</ele><time>2026-04-19T09:27:31.003Z</time></trkpt><trkpt lat="42.93852305075095" lon="10.522996705713693"><ele>61.71428571428572</ele><time>2026-04-19T09:27:34Z</time></trkpt><trkpt lat="42.93860283257388" lon="10.52303262959331"><ele>61.85714285714286</ele><time>2026-04-19T09:27:38Z</time></trkpt><trkpt lat="42.938678511147174" lon="10.523055831147978"><ele>62.0</ele><time>2026-04-19T09:27:41Z</time></trkpt><trkpt lat="42.93874711503091" lon="10.523107480847907"><ele>62.42857142857143</ele><time>2026-04-19T09:27:44Z</time></trkpt><trkpt lat="42.93881716773486" lon="10.523135021585917"><ele>62.85714285714286</ele><time>2026-04-19T09:27:47Z</time></trkpt><trkpt lat="42.93887928604192" lon="10.523181405401514"><ele>63.28571428571429</ele><time>2026-04-19T09:27:50Z</time></trkpt><trkpt lat="42.938951878157646" lon="10.523215111152366"><ele>63.71428571428572</ele><time>2026-04-19T09:27:53.001Z</time></trkpt><trkpt lat="42.939021596717375" lon="10.52322882457863"><ele>64.14285714285714</ele><time>2026-04-19T09:27:56.001Z</time></trkpt><trkpt lat="42.93908907028073" lon="10.523267084106072"><ele>64.57142857142858</ele><time>2026-04-19T09:27:59.001Z</time></trkpt><trkpt lat="42.93915248672144" lon="10.52327904717938"><ele>65.0</ele><time>2026-04-19T09:28:02.001Z</time></trkpt><trkpt lat="42.93922342817799" lon="10.523304325389892"><ele>65.57142857142858</ele><time>2026-04-19T09:28:05.001Z</time></trkpt><trkpt lat="42.93930373259043" lon="10.523337267891456"><ele>66.14285714285714</ele><time>2026-04-19T09:28:09.001Z</time></trkpt><trkpt lat="42.93936842498638" lon="10.523370300884638"><ele>66.71428571428572</ele><time>2026-04-19T09:28:12.001Z</time></trkpt><trkpt lat="42.93942694487865" lon="10.523402287646206"><ele>67.28571428571429</ele><time>2026-04-19T09:28:15.001Z</time></trkpt><trkpt lat="42.93948684077485" lon="10.52343489158586"><ele>67.85714285714286</ele><time>2026-04-19T09:28:18.001Z</time></trkpt><trkpt lat="42.939557251630205" lon="10.523448024240746"><ele>68.42857142857143</ele><time>2026-04-19T09:28:21.001Z</time></trkpt><trkpt lat="42.939628961824056" lon="10.523469532537137"><ele>69.0</ele><time>2026-04-19T09:28:25.001Z</time></trkpt><trkpt lat="42.939695328421685" lon="10.523482977698102"><ele>69.0</ele><time>2026-04-19T09:28:28.001Z</time></trkpt><trkpt lat="42.93976693878591" lon="10.523511707958281"><ele>69.0</ele><time>2026-04-19T09:28:32.002Z</time></trkpt><trkpt lat="42.939838314762525" lon="10.523531907715792"><ele>69.0</ele><time>2026-04-19T09:28:35.002Z</time></trkpt><trkpt lat="42.93990683724199" lon="10.523543627001887"><ele>69.0</ele><time>2026-04-19T09:28:38.002Z</time></trkpt><trkpt lat="42.939967701456496" lon="10.523573806615646"><ele>69.0</ele><time>2026-04-19T09:28:41.002Z</time></trkpt><trkpt lat="42.94003228583258" lon="10.523580341696228"><ele>69.0</ele><time>2026-04-19T09:28:44.002Z</time></trkpt><trkpt lat="42.94011186743086" lon="10.52358630368181"><ele>69.0</ele><time>2026-04-19T09:28:48.002Z</time></trkpt><trkpt lat="42.940188292012444" lon="10.523607915457266"><ele>69.5</ele><time>2026-04-19T09:28:52.002Z</time></trkpt><trkpt lat="42.94027747555284" lon="10.523606143548045"><ele>70.0</ele><time>2026-04-19T09:28:56.002Z</time></trkpt><trkpt lat="42.94036549521138" lon="10.523600523727339"><ele>70.5</ele><time>2026-04-19T09:29:00.002Z</time></trkpt><trkpt lat="42.940406322529526" lon="10.52367305337488"><ele>71.0</ele><time>2026-04-19T09:29:03.002Z</time></trkpt><trkpt lat="42.94047577417508" lon="10.523726269242099"><ele>71.5</ele><time>2026-04-19T09:29:06.003Z</time></trkpt><trkpt lat="42.94054490645399" lon="10.523707730587251"><ele>72.0</ele><time>2026-04-19T09:29:09.003Z</time></trkpt><trkpt lat="42.94062010634765" lon="10.523695588405527"><ele>72.0</ele><time>2026-04-19T09:29:13.003Z</time></trkpt><trkpt lat="42.94068086191326" lon="10.523669807992304"><ele>72.0</ele><time>2026-04-19T09:29:16.003Z</time></trkpt><trkpt lat="42.94076419758771" lon="10.523661536954124"><ele>72.0</ele><time>2026-04-19T09:29:20.003Z</time></trkpt><trkpt lat="42.9408464951918" lon="10.523631749331543"><ele>72.0</ele><time>2026-04-19T09:29:24.003Z</time></trkpt><trkpt lat="42.940920030600125" lon="10.523623623582733"><ele>72.0</ele><time>2026-04-19T09:29:28.003Z</time></trkpt><trkpt lat="42.94100091762286" lon="10.523593482921708"><ele>72.0</ele><time>2026-04-19T09:29:32.003Z</time></trkpt><trkpt lat="42.94108014239349" lon="10.523589021424383"><ele>72.28571428571429</ele><time>2026-04-19T09:29:36.003Z</time></trkpt><trkpt lat="42.941148317141455" lon="10.523580277967184"><ele>72.57142857142857</ele><time>2026-04-19T09:29:39.001Z</time></trkpt><trkpt lat="42.94122316768385" lon="10.523565857615328"><ele>72.85714285714286</ele><time>2026-04-19T09:29:42.001Z</time></trkpt><trkpt lat="42.94128778765468" lon="10.523545350712695"><ele>73.14285714285714</ele><time>2026-04-19T09:29:45.001Z</time></trkpt><trkpt lat="42.94135565504067" lon="10.523532587527347"><ele>73.42857142857143</ele><time>2026-04-19T09:29:48.001Z</time></trkpt><trkpt lat="42.94142501435425" lon="10.523520115096947"><ele>73.71428571428572</ele><time>2026-04-19T09:29:51.001Z</time></trkpt><trkpt lat="42.941488793870676" lon="10.523512021423706"><ele>74.0</ele><time>2026-04-19T09:29:54.001Z</time></trkpt><trkpt lat="42.94156125157894" lon="10.523492939050712"><ele>74.0</ele><time>2026-04-19T09:29:57.001Z</time></trkpt><trkpt lat="42.941629686588804" lon="10.523473315194542"><ele>74.0</ele><time>2026-04-19T09:30:00.001Z</time></trkpt><trkpt lat="42.94169479716486" lon="10.523463247952936"><ele>74.0</ele><time>2026-04-19T09:30:03.001Z</time></trkpt><trkpt lat="42.94177158031108" lon="10.523453214601728"><ele>74.0</ele><time>2026-04-19T09:30:07.001Z</time></trkpt><trkpt lat="42.94185803490014" lon="10.523439720356667"><ele>74.0</ele><time>2026-04-19T09:30:11.001Z</time></trkpt><trkpt lat="42.94192497370217" lon="10.523409473567035"><ele>74.0</ele><time>2026-04-19T09:30:14.001Z</time></trkpt><trkpt lat="42.94198878890615" lon="10.52338701926323"><ele>74.0</ele><time>2026-04-19T09:30:17.001Z</time></trkpt><trkpt lat="42.94206821586783" lon="10.52337090600952"><ele>75.0</ele><time>2026-04-19T09:30:21.001Z</time></trkpt><trkpt lat="42.942128863270376" lon="10.523333023150819"><ele>76.0</ele><time>2026-04-19T09:30:25.001Z</time></trkpt><trkpt lat="42.9421897925826" lon="10.523257830507072"><ele>77.0</ele><time>2026-04-19T09:30:29.001Z</time></trkpt><trkpt lat="42.94223528281676" lon="10.52316590817368"><ele>78.0</ele><time>2026-04-19T09:30:33.002Z</time></trkpt><trkpt lat="42.942254174527704" lon="10.523074781277035"><ele>79.0</ele><time>2026-04-19T09:30:36.002Z</time></trkpt><trkpt lat="42.94226721100701" lon="10.52298537345371"><ele>80.0</ele><time>2026-04-19T09:30:39.002Z</time></trkpt><trkpt lat="42.94226858087702" lon="10.52289652710047"><ele>81.0</ele><time>2026-04-19T09:30:42.002Z</time></trkpt><trkpt lat="42.942279078497926" lon="10.522810981988608"><ele>81.28571428571429</ele><time>2026-04-19T09:30:45.002Z</time></trkpt><trkpt lat="42.94228113247928" lon="10.522718299908462"><ele>81.57142857142857</ele><time>2026-04-19T09:30:48.002Z</time></trkpt><trkpt lat="42.942277403383244" lon="10.522627911959042"><ele>81.85714285714286</ele><time>2026-04-19T09:30:51.002Z</time></trkpt><trkpt lat="42.94227192678102" lon="10.522540927018493"><ele>82.14285714285714</ele><time>2026-04-19T09:30:54.002Z</time></trkpt><trkpt lat="42.94227945406211" lon="10.52244282799293"><ele>82.42857142857143</ele><time>2026-04-19T09:30:57.002Z</time></trkpt><trkpt lat="42.94226702440414" lon="10.522339956934912"><ele>82.71428571428571</ele><time>2026-04-19T09:31:01.002Z</time></trkpt><trkpt lat="42.942269108230064" lon="10.522251284288258"><ele>83.0</ele><time>2026-04-19T09:31:04.002Z</time></trkpt><trkpt lat="42.94227660399959" lon="10.52215564540224"><ele>83.28571428571428</ele><time>2026-04-19T09:31:07.002Z</time></trkpt><trkpt lat="42.94227298196979" lon="10.522047603671421"><ele>83.57142857142858</ele><time>2026-04-19T09:31:11.003Z</time></trkpt><trkpt lat="42.94227482692973" lon="10.521945242495647"><ele>83.85714285714286</ele><time>2026-04-19T09:31:14.003Z</time></trkpt><trkpt lat="42.94227089626723" lon="10.521846469925906"><ele>84.14285714285714</ele><time>2026-04-19T09:31:17.003Z</time></trkpt><trkpt lat="42.94227671829408" lon="10.521757372024522"><ele>84.42857142857142</ele><time>2026-04-19T09:31:20.003Z</time></trkpt><trkpt lat="42.94226771659889" lon="10.521658487082917"><ele>84.71428571428572</ele><time>2026-04-19T09:31:23.003Z</time></trkpt><trkpt lat="42.94227221678054" lon="10.521567541042009"><ele>85.0</ele><time>2026-04-19T09:31:26.003Z</time></trkpt><trkpt lat="42.94227701078039" lon="10.521477130405138"><ele>85.0</ele><time>2026-04-19T09:31:29.003Z</time></trkpt><trkpt lat="42.94227689823674" lon="10.521371641462968"><ele>85.0</ele><time>2026-04-19T09:31:32.003Z</time></trkpt><trkpt lat="42.942299848361166" lon="10.521279239836185"><ele>85.0</ele><time>2026-04-19T09:31:35.003Z</time></trkpt><trkpt lat="42.94231128783541" lon="10.521179115459015"><ele>85.0</ele><time>2026-04-19T09:31:38.003Z</time></trkpt><trkpt lat="42.942334135223426" lon="10.521076728760208"><ele>85.0</ele><time>2026-04-19T09:31:41.003Z</time></trkpt><trkpt lat="42.94235225697846" lon="10.5209924026728"><ele>85.0</ele><time>2026-04-19T09:31:44.003Z</time></trkpt><trkpt lat="42.94238376589533" lon="10.520897295287707"><ele>85.0</ele><time>2026-04-19T09:31:47.001Z</time></trkpt><trkpt lat="42.94241294231491" lon="10.52081777281521"><ele>85.33333333333333</ele><time>2026-04-19T09:31:50.001Z</time></trkpt><trkpt lat="42.94244496246112" lon="10.52073018668083"><ele>85.66666666666666</ele><time>2026-04-19T09:31:53.001Z</time></trkpt><trkpt lat="42.94249311138575" lon="10.520641092037302"><ele>86.0</ele><time>2026-04-19T09:31:56.001Z</time></trkpt><trkpt lat="42.94253491522406" lon="10.520560723510833"><ele>86.33333333333333</ele><time>2026-04-19T09:31:59.001Z</time></trkpt><trkpt lat="42.942590576415526" lon="10.520478831349035"><ele>86.66666666666667</ele><time>2026-04-19T09:32:02.001Z</time></trkpt><trkpt lat="42.94263792600042" lon="10.520396325621142"><ele>87.0</ele><time>2026-04-19T09:32:05.001Z</time></trkpt><trkpt lat="42.94269580284396" lon="10.52032063253797"><ele>88.28571428571428</ele><time>2026-04-19T09:32:08.001Z</time></trkpt><trkpt lat="42.94274482068407" lon="10.520235180849369"><ele>89.57142857142857</ele><time>2026-04-19T09:32:11.001Z</time></trkpt><trkpt lat="42.94279772690039" lon="10.520158736159045"><ele>90.85714285714286</ele><time>2026-04-19T09:32:14.001Z</time></trkpt><trkpt lat="42.94285326209611" lon="10.520085471012"><ele>92.14285714285714</ele><time>2026-04-19T09:32:17.001Z</time></trkpt><trkpt lat="42.942894287516275" lon="10.520016995813966"><ele>93.42857142857143</ele><time>2026-04-19T09:32:20.001Z</time></trkpt><trkpt lat="42.94294396231278" lon="10.519944030440683"><ele>94.71428571428571</ele><time>2026-04-19T09:32:23.001Z</time></trkpt><trkpt lat="42.94297938077405" lon="10.519872636976693"><ele>96.0</ele><time>2026-04-19T09:32:26.001Z</time></trkpt><trkpt lat="42.94304312019658" lon="10.51980020687183"><ele>95.99999999999999</ele><time>2026-04-19T09:32:29.001Z</time></trkpt><trkpt lat="42.94308650646908" lon="10.51971934308978"><ele>96.0</ele><time>2026-04-19T09:32:32.001Z</time></trkpt><trkpt lat="42.94314559136092" lon="10.519643507156834"><ele>96.0</ele><time>2026-04-19T09:32:35.001Z</time></trkpt><trkpt lat="42.943178779690065" lon="10.519554778871951"><ele>96.0</ele><time>2026-04-19T09:32:38.002Z</time></trkpt><trkpt lat="42.94321886251191" lon="10.519479662727175"><ele>96.0</ele><time>2026-04-19T09:32:41.002Z</time></trkpt><trkpt lat="42.943260800409625" lon="10.519393500699415"><ele>95.99999999999999</ele><time>2026-04-19T09:32:45.002Z</time></trkpt><trkpt lat="42.94328199841492" lon="10.519303346547762"><ele>96.0</ele><time>2026-04-19T09:32:48.002Z</time></trkpt><trkpt lat="42.94331021156368" lon="10.519199399001558"><ele>94.99999999999999</ele><time>2026-04-19T09:32:52.002Z</time></trkpt><trkpt lat="42.94333666324625" lon="10.519106399757865"><ele>94.0</ele><time>2026-04-19T09:32:56.002Z</time></trkpt><trkpt lat="42.9433381804211" lon="10.519009944321756"><ele>93.0</ele><time>2026-04-19T09:33:03.002Z</time></trkpt><trkpt lat="42.943333221856776" lon="10.518920781809959"><ele>92.0</ele><time>2026-04-19T09:33:08.002Z</time></trkpt><trkpt lat="42.94334569055264" lon="10.518835740567077"><ele>91.0</ele><time>2026-04-19T09:33:11.002Z</time></trkpt><trkpt lat="42.943332434049545" lon="10.518740184501828"><ele>89.99999999999999</ele><time>2026-04-19T09:33:15.003Z</time></trkpt><trkpt lat="42.943314020746115" lon="10.518646505495159"><ele>89.0</ele><time>2026-04-19T09:33:19.003Z</time></trkpt><trkpt lat="42.943296072259024" lon="10.51856116203923"><ele>88.33333333333334</ele><time>2026-04-19T09:33:22.003Z</time></trkpt><trkpt lat="42.94327829008402" lon="10.518476220991303"><ele>87.66666666666667</ele><time>2026-04-19T09:33:25.003Z</time></trkpt><trkpt lat="42.94321739609225" lon="10.518364538602553"><ele>87.0</ele><time>2026-04-19T09:33:29.003Z</time></trkpt><trkpt lat="42.943192791355784" lon="10.51826820257704"><ele>86.33333333333333</ele><time>2026-04-19T09:33:33.003Z</time></trkpt><trkpt lat="42.943144707376035" lon="10.518207637421634"><ele>85.66666666666666</ele><time>2026-04-19T09:33:36.003Z</time></trkpt><trkpt lat="42.94311236830234" lon="10.518128174268853"><ele>85.0</ele><time>2026-04-19T09:33:39.003Z</time></trkpt><trkpt lat="42.943063091238194" lon="10.518037773736586"><ele>85.0</ele><time>2026-04-19T09:33:43.003Z</time></trkpt><trkpt lat="42.94301289023157" lon="10.517976080798544"><ele>85.0</ele><time>2026-04-19T09:33:46.003Z</time></trkpt><trkpt lat="42.942957226956935" lon="10.51790773388103"><ele>85.0</ele><time>2026-04-19T09:33:49.003Z</time></trkpt><trkpt lat="42.94289259776237" lon="10.517824632100199"><ele>85.0</ele><time>2026-04-19T09:33:52.001Z</time></trkpt><trkpt lat="42.94283371882746" lon="10.517747069386541"><ele>85.0</ele><time>2026-04-19T09:33:55.001Z</time></trkpt><trkpt lat="42.94277378488795" lon="10.517668307698658"><ele>85.0</ele><time>2026-04-19T09:33:58.001Z</time></trkpt><trkpt lat="42.94270512566204" lon="10.517571795379348"><ele>85.0</ele><time>2026-04-19T09:34:01.001Z</time></trkpt><trkpt lat="42.942650706831124" lon="10.517480539965689"><ele>85.0</ele><time>2026-04-19T09:34:04.001Z</time></trkpt><trkpt lat="42.94258790987293" lon="10.51739702844574"><ele>85.0</ele><time>2026-04-19T09:34:07.001Z</time></trkpt><trkpt lat="42.9425590145859" lon="10.517294969880998"><ele>85.0</ele><time>2026-04-19T09:34:10.001Z</time></trkpt><trkpt lat="42.942529374013255" lon="10.517192886971229"><ele>85.0</ele><time>2026-04-19T09:34:13.001Z</time></trkpt><trkpt lat="42.9424845933336" lon="10.51712171038703"><ele>85.0</ele><time>2026-04-19T09:34:16.001Z</time></trkpt><trkpt lat="42.94243070047029" lon="10.517046587995926"><ele>84.33333333333333</ele><time>2026-04-19T09:34:19.001Z</time></trkpt><trkpt lat="42.94237702980831" lon="10.516967240780623"><ele>83.66666666666666</ele><time>2026-04-19T09:34:22.001Z</time></trkpt><trkpt lat="42.942322239965485" lon="10.516915116998197"><ele>83.0</ele><time>2026-04-19T09:34:25.001Z</time></trkpt><trkpt lat="42.94222580306177" lon="10.516892220248904"><ele>82.33333333333333</ele><time>2026-04-19T09:34:28.001Z</time></trkpt><trkpt lat="42.942162331707976" lon="10.516847420134152"><ele>81.66666666666667</ele><time>2026-04-19T09:34:31.001Z</time></trkpt><trkpt lat="42.94211401659492" lon="10.516764642259446"><ele>81.0</ele><time>2026-04-19T09:34:34.001Z</time></trkpt><trkpt lat="42.94206311713908" lon="10.516684366817067"><ele>81.0</ele><time>2026-04-19T09:34:37.002Z</time></trkpt><trkpt lat="42.94202457465731" lon="10.516594364788316"><ele>81.0</ele><time>2026-04-19T09:34:40.002Z</time></trkpt><trkpt lat="42.94201963279883" lon="10.516478352880673"><ele>81.0</ele><time>2026-04-19T09:34:43.002Z</time></trkpt><trkpt lat="42.94206076974751" lon="10.516404294039365"><ele>81.0</ele><time>2026-04-19T09:34:46.002Z</time></trkpt><trkpt lat="42.942031960509674" lon="10.516312413326638"><ele>81.0</ele><time>2026-04-19T09:34:49.002Z</time></trkpt><trkpt lat="42.94195058366915" lon="10.516289995168322"><ele>81.0</ele><time>2026-04-19T09:34:52.002Z</time></trkpt><trkpt lat="42.94187436608246" lon="10.516280275511614"><ele>81.0</ele><time>2026-04-19T09:34:55.002Z</time></trkpt><trkpt lat="42.941800791613296" lon="10.516253530903187"><ele>81.0</ele><time>2026-04-19T09:34:58.002Z</time></trkpt><trkpt lat="42.94172770888907" lon="10.516221782221155"><ele>81.0</ele><time>2026-04-19T09:35:01.002Z</time></trkpt><trkpt lat="42.94166604556114" lon="10.516160003482192"><ele>81.0</ele><time>2026-04-19T09:35:04.002Z</time></trkpt><trkpt lat="42.9416169043935" lon="10.516098651574257"><ele>81.0</ele><time>2026-04-19T09:35:07.002Z</time></trkpt><trkpt lat="42.9415714217857" lon="10.516028080815754"><ele>81.0</ele><time>2026-04-19T09:35:10.002Z</time></trkpt><trkpt lat="42.94152269294244" lon="10.515963919139873"><ele>81.0</ele><time>2026-04-19T09:35:13.002Z</time></trkpt><trkpt lat="42.941478394981246" lon="10.515899583330892"><ele>81.0</ele><time>2026-04-19T09:35:16.003Z</time></trkpt><trkpt lat="42.94142357465201" lon="10.515837152594148"><ele>81.0</ele><time>2026-04-19T09:35:19.003Z</time></trkpt><trkpt lat="42.94137022348549" lon="10.515770411221677"><ele>81.0</ele><time>2026-04-19T09:35:22.003Z</time></trkpt><trkpt lat="42.941309128470856" lon="10.51570015157608"><ele>81.0</ele><time>2026-04-19T09:35:26.003Z</time></trkpt><trkpt lat="42.94126258118245" lon="10.515625878207219"><ele>81.0</ele><time>2026-04-19T09:35:29.003Z</time></trkpt><trkpt lat="42.94120948636564" lon="10.515568222587552"><ele>81.0</ele><time>2026-04-19T09:35:32.003Z</time></trkpt><trkpt lat="42.94116588490575" lon="10.515501394661483"><ele>81.0</ele><time>2026-04-19T09:35:35.003Z</time></trkpt><trkpt lat="42.94111577872205" lon="10.515431539685384"><ele>81.42857142857143</ele><time>2026-04-19T09:35:38.003Z</time></trkpt><trkpt lat="42.941062843210226" lon="10.51535457359134"><ele>81.85714285714286</ele><time>2026-04-19T09:35:41.003Z</time></trkpt><trkpt lat="42.94100640132737" lon="10.515284947438834"><ele>82.28571428571428</ele><time>2026-04-19T09:35:44.003Z</time></trkpt><trkpt lat="42.94095887564245" lon="10.515222294946275"><ele>82.71428571428572</ele><time>2026-04-19T09:35:47.003Z</time></trkpt><trkpt lat="42.94090202915142" lon="10.515148186431581"><ele>83.14285714285714</ele><time>2026-04-19T09:35:50.003Z</time></trkpt><trkpt lat="42.94085565855536" lon="10.515089274733228"><ele>83.57142857142857</ele><time>2026-04-19T09:35:53.003Z</time></trkpt><trkpt lat="42.94080212045434" lon="10.515023313614051"><ele>84.0</ele><time>2026-04-19T09:35:56.003Z</time></trkpt><trkpt lat="42.94075309649968" lon="10.514956643448352"><ele>84.0</ele><time>2026-04-19T09:35:59.003Z</time></trkpt><trkpt lat="42.94070196257581" lon="10.514902219001138"><ele>84.0</ele><time>2026-04-19T09:36:02.003Z</time></trkpt><trkpt lat="42.94065918764693" lon="10.514832326118515"><ele>84.0</ele><time>2026-04-19T09:36:05.002Z</time></trkpt><trkpt lat="42.94061449697638" lon="10.514763218765898"><ele>84.0</ele><time>2026-04-19T09:36:08.002Z</time></trkpt><trkpt lat="42.94056239653144" lon="10.514699578970502"><ele>84.0</ele><time>2026-04-19T09:36:11.002Z</time></trkpt><trkpt lat="42.940509720409686" lon="10.514632391652103"><ele>84.0</ele><time>2026-04-19T09:36:14.002Z</time></trkpt><trkpt lat="42.94046816302056" lon="10.514566275366496"><ele>84.0</ele><time>2026-04-19T09:36:17.002Z</time></trkpt><trkpt lat="42.94042312152836" lon="10.514495253132981"><ele>85.5</ele><time>2026-04-19T09:36:20.002Z</time></trkpt><trkpt lat="42.940371849275266" lon="10.51441148597577"><ele>87.0</ele><time>2026-04-19T09:36:24.002Z</time></trkpt><trkpt lat="42.94032462870996" lon="10.514321387362788"><ele>88.5</ele><time>2026-04-19T09:36:28.002Z</time></trkpt><trkpt lat="42.9402741449625" lon="10.514237554605947"><ele>90.0</ele><time>2026-04-19T09:36:32.002Z</time></trkpt><trkpt lat="42.94023035927266" lon="10.5141462410447"><ele>91.5</ele><time>2026-04-19T09:36:36.002Z</time></trkpt><trkpt lat="42.94019312858244" lon="10.514062434011556"><ele>93.0</ele><time>2026-04-19T09:36:40.002Z</time></trkpt><trkpt lat="42.94014914464074" lon="10.513977962509701"><ele>93.0</ele><time>2026-04-19T09:36:44.002Z</time></trkpt><trkpt lat="42.94010518629395" lon="10.513893400957938"><ele>93.0</ele><time>2026-04-19T09:36:48.002Z</time></trkpt><trkpt lat="42.940070871373564" lon="10.513808363094785"><ele>93.0</ele><time>2026-04-19T09:36:52.003Z</time></trkpt><trkpt lat="42.94003351543099" lon="10.513697905949765"><ele>93.0</ele><time>2026-04-19T09:36:56.003Z</time></trkpt><trkpt lat="42.94000179349832" lon="10.513601490208496"><ele>93.0</ele><time>2026-04-19T09:37:00.003Z</time></trkpt><trkpt lat="42.93995513554187" lon="10.513510108749966"><ele>93.0</ele><time>2026-04-19T09:37:04.003Z</time></trkpt><trkpt lat="42.93992027321897" lon="10.513411270659793"><ele>93.57142857142858</ele><time>2026-04-19T09:37:08.003Z</time></trkpt><trkpt lat="42.939884808428" lon="10.513320693235995"><ele>94.14285714285714</ele><time>2026-04-19T09:37:12.003Z</time></trkpt><trkpt lat="42.93985139819929" lon="10.513227251855653"><ele>94.71428571428572</ele><time>2026-04-19T09:37:16.003Z</time></trkpt><trkpt lat="42.93983144204431" lon="10.51314242782999"><ele>95.28571428571429</ele><time>2026-04-19T09:37:20.003Z</time></trkpt><trkpt lat="42.93978874151923" lon="10.51304018665734"><ele>95.85714285714286</ele><time>2026-04-19T09:37:24.003Z</time></trkpt><trkpt lat="42.939756358622" lon="10.51294444291024"><ele>96.42857142857143</ele><time>2026-04-19T09:37:27.003Z</time></trkpt><trkpt lat="42.93973219402464" lon="10.512859798179637"><ele>97.0</ele><time>2026-04-19T09:37:30.003Z</time></trkpt><trkpt lat="42.93971045231012" lon="10.51277007243257"><ele>97.0</ele><time>2026-04-19T09:37:33.003Z</time></trkpt><trkpt lat="42.93968789057526" lon="10.512670839958055"><ele>97.0</ele><time>2026-04-19T09:37:37.003Z</time></trkpt><trkpt lat="42.939674269546515" lon="10.512582002638776"><ele>97.0</ele><time>2026-04-19T09:37:40.004Z</time></trkpt><trkpt lat="42.9396588224547" lon="10.51249132764076"><ele>97.0</ele><time>2026-04-19T09:37:43.004Z</time></trkpt><trkpt lat="42.93963045304022" lon="10.512401517604477"><ele>97.0</ele><time>2026-04-19T09:37:46.004Z</time></trkpt><trkpt lat="42.93959974428942" lon="10.512299245145993"><ele>97.0</ele><time>2026-04-19T09:37:49.004Z</time></trkpt><trkpt lat="42.93954755945833" lon="10.512220556471977"><ele>97.0</ele><time>2026-04-19T09:37:52.004Z</time></trkpt><trkpt lat="42.93949827005104" lon="10.512149324382516"><ele>96.16666666666667</ele><time>2026-04-19T09:37:55.004Z</time></trkpt><trkpt lat="42.93945444539704" lon="10.512051409257799"><ele>95.33333333333334</ele><time>2026-04-19T09:37:58.004Z</time></trkpt><trkpt lat="42.93939528637225" lon="10.511970611536196"><ele>94.5</ele><time>2026-04-19T09:38:01.004Z</time></trkpt><trkpt lat="42.939345589991575" lon="10.511889548069536"><ele>93.66666666666667</ele><time>2026-04-19T09:38:04.004Z</time></trkpt><trkpt lat="42.93928641633173" lon="10.511808321698703"><ele>92.83333333333334</ele><time>2026-04-19T09:38:07.004Z</time></trkpt><trkpt lat="42.93921517863407" lon="10.51173335994217"><ele>92.0</ele><time>2026-04-19T09:38:10.003Z</time></trkpt><trkpt lat="42.93914222835458" lon="10.511674696298652"><ele>91.66666666666667</ele><time>2026-04-19T09:38:13.003Z</time></trkpt><trkpt lat="42.93906124737994" lon="10.511636875534217"><ele>91.33333333333334</ele><time>2026-04-19T09:38:16.003Z</time></trkpt><trkpt lat="42.93900116860653" lon="10.511606772947259"><ele>91.0</ele><time>2026-04-19T09:38:18.003Z</time></trkpt><trkpt lat="42.93891964054489" lon="10.511565876121802"><ele>90.66666666666667</ele><time>2026-04-19T09:38:21.003Z</time></trkpt><trkpt lat="42.93884433665227" lon="10.511531473056415"><ele>90.33333333333333</ele><time>2026-04-19T09:38:24.003Z</time></trkpt><trkpt lat="42.93875212413949" lon="10.511517970590907"><ele>90.0</ele><time>2026-04-19T09:38:27.003Z</time></trkpt><trkpt lat="42.93865298645875" lon="10.511523272003021"><ele>90.0</ele><time>2026-04-19T09:38:30.003Z</time></trkpt><trkpt lat="42.938587495060204" lon="10.511526331315743"><ele>90.0</ele><time>2026-04-19T09:38:32.003Z</time></trkpt><trkpt lat="42.938500727071144" lon="10.511523378417108"><ele>90.0</ele><time>2026-04-19T09:38:35.003Z</time></trkpt><trkpt lat="42.93841714116069" lon="10.511511973440864"><ele>90.0</ele><time>2026-04-19T09:38:38.003Z</time></trkpt><trkpt lat="42.938368195296015" lon="10.511435398808246"><ele>90.0</ele><time>2026-04-19T09:38:41.003Z</time></trkpt><trkpt lat="42.9383429243973" lon="10.511328854999347"><ele>90.0</ele><time>2026-04-19T09:38:44.003Z</time></trkpt><trkpt lat="42.93835985108442" lon="10.511216280981115"><ele>88.66666666666667</ele><time>2026-04-19T09:38:47.003Z</time></trkpt><trkpt lat="42.938418311891674" lon="10.511136011820577"><ele>87.33333333333333</ele><time>2026-04-19T09:38:50.003Z</time></trkpt><trkpt lat="42.93849896351836" lon="10.511101825384767"><ele>86.0</ele><time>2026-04-19T09:38:53.003Z</time></trkpt><trkpt lat="42.93857278561489" lon="10.511070067736103"><ele>84.66666666666666</ele><time>2026-04-19T09:38:56.003Z</time></trkpt><trkpt lat="42.93865660126548" lon="10.511045276231634"><ele>83.33333333333333</ele><time>2026-04-19T09:38:59.003Z</time></trkpt><trkpt lat="42.93872534473203" lon="10.510989115749164"><ele>82.0</ele><time>2026-04-19T09:39:02.003Z</time></trkpt><trkpt lat="42.938786029131755" lon="10.510936436463368"><ele>81.99999999999999</ele><time>2026-04-19T09:39:05.003Z</time></trkpt><trkpt lat="42.938834697067264" lon="10.510881417279471"><ele>82.0</ele><time>2026-04-19T09:39:07.003Z</time></trkpt><trkpt lat="42.938879258260656" lon="10.510806087783097"><ele>82.0</ele><time>2026-04-19T09:39:10.003Z</time></trkpt><trkpt lat="42.93891149391737" lon="10.510731888314345"><ele>82.0</ele><time>2026-04-19T09:39:12.003Z</time></trkpt><trkpt lat="42.93894394142769" lon="10.510634455015037"><ele>82.0</ele><time>2026-04-19T09:39:15.003Z</time></trkpt><trkpt lat="42.93896938845332" lon="10.51052799540441"><ele>81.99999999999999</ele><time>2026-04-19T09:39:18.003Z</time></trkpt><trkpt lat="42.9389813447698" lon="10.510423411526212"><ele>82.0</ele><time>2026-04-19T09:39:21.003Z</time></trkpt><trkpt lat="42.93898412389256" lon="10.510321306436875"><ele>80.42857142857142</ele><time>2026-04-19T09:39:24.003Z</time></trkpt><trkpt lat="42.938970749651126" lon="10.510216954666955"><ele>78.85714285714286</ele><time>2026-04-19T09:39:26.003Z</time></trkpt><trkpt lat="42.93896542726531" lon="10.510123144869043"><ele>77.28571428571428</ele><time>2026-04-19T09:39:29.003Z</time></trkpt><trkpt lat="42.9389405925151" lon="10.510037931080822"><ele>75.71428571428571</ele><time>2026-04-19T09:39:32.003Z</time></trkpt><trkpt lat="42.93889248145121" lon="10.509977485559435"><ele>74.14285714285714</ele><time>2026-04-19T09:39:34.003Z</time></trkpt><trkpt lat="42.938880171515336" lon="10.509864299345198"><ele>72.57142857142857</ele><time>2026-04-19T09:39:37.003Z</time></trkpt><trkpt lat="42.938844442561674" lon="10.509769689419405"><ele>71.0</ele><time>2026-04-19T09:39:40.003Z</time></trkpt><trkpt lat="42.93882025567874" lon="10.50967678391947"><ele>71.0</ele><time>2026-04-19T09:39:42.003Z</time></trkpt><trkpt lat="42.938820611773664" lon="10.509581091348407"><ele>71.0</ele><time>2026-04-19T09:39:45.004Z</time></trkpt><trkpt lat="42.93882159210041" lon="10.509483296861301"><ele>71.0</ele><time>2026-04-19T09:39:48.004Z</time></trkpt><trkpt lat="42.93882430627336" lon="10.509383280166254"><ele>71.0</ele><time>2026-04-19T09:39:51.004Z</time></trkpt><trkpt lat="42.938817249198294" lon="10.509265638290385"><ele>71.0</ele><time>2026-04-19T09:39:54.004Z</time></trkpt><trkpt lat="42.93880345975819" lon="10.509166648762768"><ele>71.0</ele><time>2026-04-19T09:39:57.004Z</time></trkpt><trkpt lat="42.93881054542993" lon="10.509075907533699"><ele>71.0</ele><time>2026-04-19T09:40:00.004Z</time></trkpt><trkpt lat="42.93879949257965" lon="10.50898086519153"><ele>70.0</ele><time>2026-04-19T09:40:03.004Z</time></trkpt><trkpt lat="42.938751580022995" lon="10.508900069574583"><ele>69.0</ele><time>2026-04-19T09:40:06.004Z</time></trkpt><trkpt lat="42.93870737146844" lon="10.50883102373576"><ele>68.0</ele><time>2026-04-19T09:40:09.004Z</time></trkpt><trkpt lat="42.938664555223454" lon="10.50874052286602"><ele>67.0</ele><time>2026-04-19T09:40:12.004Z</time></trkpt><trkpt lat="42.93861027552255" lon="10.50867105261035"><ele>66.0</ele><time>2026-04-19T09:40:15.004Z</time></trkpt><trkpt lat="42.93853820275789" lon="10.50863000692881"><ele>65.0</ele><time>2026-04-19T09:40:18.003Z</time></trkpt><trkpt lat="42.93847652405679" lon="10.508647362972441"><ele>64.0</ele><time>2026-04-19T09:40:20.003Z</time></trkpt><trkpt lat="42.93840513941364" lon="10.508719149088895"><ele>62.57142857142857</ele><time>2026-04-19T09:40:23.003Z</time></trkpt><trkpt lat="42.93834188566603" lon="10.50868278761737"><ele>61.14285714285714</ele><time>2026-04-19T09:40:26.003Z</time></trkpt><trkpt lat="42.9383654821287" lon="10.508588618855844"><ele>59.71428571428571</ele><time>2026-04-19T09:40:28.003Z</time></trkpt><trkpt lat="42.938417145355025" lon="10.508512767063378"><ele>58.285714285714285</ele><time>2026-04-19T09:40:31.003Z</time></trkpt><trkpt lat="42.93842887749351" lon="10.508422442082258"><ele>56.857142857142854</ele><time>2026-04-19T09:40:34.003Z</time></trkpt><trkpt lat="42.93839479863032" lon="10.508318402465072"><ele>55.42857142857143</ele><time>2026-04-19T09:40:37.003Z</time></trkpt><trkpt lat="42.93836178092124" lon="10.508234641793589"><ele>54.0</ele><time>2026-04-19T09:40:40.003Z</time></trkpt><trkpt lat="42.938325794054435" lon="10.508143695227941"><ele>52.833333333333336</ele><time>2026-04-19T09:40:43.003Z</time></trkpt><trkpt lat="42.93828867168904" lon="10.50803633113208"><ele>51.666666666666664</ele><time>2026-04-19T09:40:46.003Z</time></trkpt><trkpt lat="42.93825152265391" lon="10.507941033287686"><ele>50.5</ele><time>2026-04-19T09:40:49.003Z</time></trkpt><trkpt lat="42.93821225807617" lon="10.507846467669982"><ele>49.33333333333333</ele><time>2026-04-19T09:40:52.003Z</time></trkpt><trkpt lat="42.938160522643095" lon="10.507769946474536"><ele>48.166666666666664</ele><time>2026-04-19T09:40:55.003Z</time></trkpt><trkpt lat="42.93811357341487" lon="10.507687738015898"><ele>47.0</ele><time>2026-04-19T09:40:58.003Z</time></trkpt><trkpt lat="42.93806655243772" lon="10.507607299336017"><ele>46.33333333333333</ele><time>2026-04-19T09:41:01.003Z</time></trkpt><trkpt lat="42.93802157849335" lon="10.507507799799548"><ele>45.666666666666664</ele><time>2026-04-19T09:41:04.003Z</time></trkpt><trkpt lat="42.937971114288196" lon="10.507413936311123"><ele>45.0</ele><time>2026-04-19T09:41:07.003Z</time></trkpt><trkpt lat="42.93792187637252" lon="10.50733374319256"><ele>44.333333333333336</ele><time>2026-04-19T09:41:10.003Z</time></trkpt><trkpt lat="42.937848546767604" lon="10.507364241505801"><ele>43.66666666666667</ele><time>2026-04-19T09:41:13.003Z</time></trkpt><trkpt lat="42.93778151455005" lon="10.507426234970243"><ele>43.0</ele><time>2026-04-19T09:41:16.003Z</time></trkpt><trkpt lat="42.93770227477857" lon="10.507420545791177"><ele>43.0</ele><time>2026-04-19T09:41:19.003Z</time></trkpt><trkpt lat="42.93761732251986" lon="10.507458939291652"><ele>43.0</ele><time>2026-04-19T09:41:22.003Z</time></trkpt><trkpt lat="42.93754942467561" lon="10.507519972887955"><ele>43.0</ele><time>2026-04-19T09:41:25.003Z</time></trkpt><trkpt lat="42.93749176753792" lon="10.507583317720943"><ele>43.0</ele><time>2026-04-19T09:41:28.003Z</time></trkpt><trkpt lat="42.937428761671846" lon="10.507647308897315"><ele>43.0</ele><time>2026-04-19T09:41:31.003Z</time></trkpt><trkpt lat="42.937388370591876" lon="10.507738361717061"><ele>43.0</ele><time>2026-04-19T09:41:34.003Z</time></trkpt><trkpt lat="42.93735528952609" lon="10.507820947240933"><ele>42.5</ele><time>2026-04-19T09:41:37.003Z</time></trkpt><trkpt lat="42.93730847550227" lon="10.507903403343235"><ele>42.0</ele><time>2026-04-19T09:41:40.003Z</time></trkpt><trkpt lat="42.937278941789124" lon="10.508000179206785"><ele>41.5</ele><time>2026-04-19T09:41:43.003Z</time></trkpt><trkpt lat="42.937238771067626" lon="10.508094505450211"><ele>41.0</ele><time>2026-04-19T09:41:46.003Z</time></trkpt><trkpt lat="42.93718529582598" lon="10.508164313509136"><ele>40.5</ele><time>2026-04-19T09:41:49.003Z</time></trkpt><trkpt lat="42.93713451413348" lon="10.508239458796822"><ele>40.0</ele><time>2026-04-19T09:41:52.003Z</time></trkpt><trkpt lat="42.9370663255499" lon="10.508296195117765"><ele>40.0</ele><time>2026-04-19T09:41:55.003Z</time></trkpt><trkpt lat="42.93700003577414" lon="10.508375287672505"><ele>40.0</ele><time>2026-04-19T09:41:58.003Z</time></trkpt><trkpt lat="42.936931772033304" lon="10.508437245894388"><ele>40.0</ele><time>2026-04-19T09:42:01.003Z</time></trkpt><trkpt lat="42.93686376674967" lon="10.508506167166514"><ele>40.0</ele><time>2026-04-19T09:42:04.003Z</time></trkpt><trkpt lat="42.93680509131835" lon="10.50857533402353"><ele>40.0</ele><time>2026-04-19T09:42:07.003Z</time></trkpt><trkpt lat="42.93672658553415" lon="10.508619081490112"><ele>40.0</ele><time>2026-04-19T09:42:10.003Z</time></trkpt><trkpt lat="42.936667920315614" lon="10.508688024996571"><ele>40.833333333333336</ele><time>2026-04-19T09:42:13.003Z</time></trkpt><trkpt lat="42.936622731515435" lon="10.508756238491145"><ele>41.66666666666667</ele><time>2026-04-19T09:42:16.003Z</time></trkpt><trkpt lat="42.93657070393105" lon="10.508858573485266"><ele>42.5</ele><time>2026-04-19T09:42:19.003Z</time></trkpt><trkpt lat="42.93651427552622" lon="10.508955020310765"><ele>43.333333333333336</ele><time>2026-04-19T09:42:23.003Z</time></trkpt><trkpt lat="42.93645907275405" lon="10.509027732783185"><ele>44.166666666666664</ele><time>2026-04-19T09:42:26.003Z</time></trkpt><trkpt lat="42.93638537014291" lon="10.509070896532743"><ele>45.0</ele><time>2026-04-19T09:42:29.003Z</time></trkpt><trkpt lat="42.93632899742756" lon="10.509118946995914"><ele>45.0</ele><time>2026-04-19T09:42:32.003Z</time></trkpt><trkpt lat="42.93625881095252" lon="10.509146557774589"><ele>45.0</ele><time>2026-04-19T09:42:35.002Z</time></trkpt><trkpt lat="42.936178488605464" lon="10.509151057215606"><ele>45.0</ele><time>2026-04-19T09:42:38.002Z</time></trkpt><trkpt lat="42.93610518118115" lon="10.509183754052687"><ele>45.0</ele><time>2026-04-19T09:42:41.002Z</time></trkpt><trkpt lat="42.93603716002211" lon="10.509215579479958"><ele>45.0</ele><time>2026-04-19T09:42:44.002Z</time></trkpt><trkpt lat="42.93596777063085" lon="10.509237285192315"><ele>45.0</ele><time>2026-04-19T09:42:47.002Z</time></trkpt><trkpt lat="42.935895941659176" lon="10.509266862030774"><ele>45.0</ele><time>2026-04-19T09:42:50.002Z</time></trkpt><trkpt lat="42.9358292539634" lon="10.509267287593463"><ele>43.833333333333336</ele><time>2026-04-19T09:42:52.002Z</time></trkpt><trkpt lat="42.93577421632319" lon="10.509328726026826"><ele>42.666666666666664</ele><time>2026-04-19T09:42:55.002Z</time></trkpt><trkpt lat="42.935694641580355" lon="10.50937396979685"><ele>41.5</ele><time>2026-04-19T09:42:58.002Z</time></trkpt><trkpt lat="42.93561502037415" lon="10.509403721620556"><ele>40.33333333333333</ele><time>2026-04-19T09:43:01.002Z</time></trkpt><trkpt lat="42.935551305594906" lon="10.509375963338194"><ele>39.166666666666664</ele><time>2026-04-19T09:43:04.002Z</time></trkpt><trkpt lat="42.935524646467904" lon="10.509293661636713"><ele>38.0</ele><time>2026-04-19T09:43:06.002Z</time></trkpt><trkpt lat="42.93549303802537" lon="10.50918278501543"><ele>38.0</ele><time>2026-04-19T09:43:09.002Z</time></trkpt><trkpt lat="42.93552478450599" lon="10.509060556855847"><ele>38.0</ele><time>2026-04-19T09:43:12.002Z</time></trkpt><trkpt lat="42.93557358370114" lon="10.508964391971286"><ele>38.0</ele><time>2026-04-19T09:43:15.002Z</time></trkpt><trkpt lat="42.93560737888333" lon="10.508889003535675"><ele>38.0</ele><time>2026-04-19T09:43:17.002Z</time></trkpt><trkpt lat="42.935636095947544" lon="10.508785656423003"><ele>38.0</ele><time>2026-04-19T09:43:20.002Z</time></trkpt><trkpt lat="42.93568023785469" lon="10.508720144093482"><ele>38.0</ele><time>2026-04-19T09:43:22.002Z</time></trkpt><trkpt lat="42.93571889682501" lon="10.508609694338803"><ele>36.83333333333333</ele><time>2026-04-19T09:43:25.002Z</time></trkpt><trkpt lat="42.935722713101995" lon="10.50851158501483"><ele>35.666666666666664</ele><time>2026-04-19T09:43:28.002Z</time></trkpt><trkpt lat="42.935718732913834" lon="10.508377962974143"><ele>34.5</ele><time>2026-04-19T09:43:32.002Z</time></trkpt><trkpt lat="42.93575162055159" lon="10.508271700263178"><ele>33.333333333333336</ele><time>2026-04-19T09:43:35.002Z</time></trkpt><trkpt lat="42.93573630984408" lon="10.508185563130205"><ele>32.16666666666667</ele><time>2026-04-19T09:43:37.002Z</time></trkpt><trkpt lat="42.93575131085372" lon="10.508082324983496"><ele>31.0</ele><time>2026-04-19T09:43:40.002Z</time></trkpt><trkpt lat="42.93582711381804" lon="10.508030238251687"><ele>31.166666666666668</ele><time>2026-04-19T09:43:43.002Z</time></trkpt><trkpt lat="42.93590289632575" lon="10.508001221922319"><ele>31.333333333333336</ele><time>2026-04-19T09:43:46.002Z</time></trkpt><trkpt lat="42.935982608392166" lon="10.507965201114512"><ele>31.5</ele><time>2026-04-19T09:43:49.002Z</time></trkpt><trkpt lat="42.936056004739875" lon="10.507936708184356"><ele>31.666666666666664</ele><time>2026-04-19T09:43:52.002Z</time></trkpt><trkpt lat="42.93612180568093" lon="10.507904205561355"><ele>31.833333333333332</ele><time>2026-04-19T09:43:55.002Z</time></trkpt><trkpt lat="42.93619399995509" lon="10.507872739130642"><ele>32.0</ele><time>2026-04-19T09:43:58.002Z</time></trkpt><trkpt lat="42.93625623073054" lon="10.507821586432671"><ele>32.0</ele><time>2026-04-19T09:44:01.002Z</time></trkpt><trkpt lat="42.936325124115264" lon="10.50779072949132"><ele>31.999999999999996</ele><time>2026-04-19T09:44:04.002Z</time></trkpt><trkpt lat="42.93639444091837" lon="10.50775012996833"><ele>32.0</ele><time>2026-04-19T09:44:07.002Z</time></trkpt><trkpt lat="42.93646545728589" lon="10.507702242084145"><ele>32.0</ele><time>2026-04-19T09:44:10.002Z</time></trkpt><trkpt lat="42.9365321787578" lon="10.507661399455499"><ele>31.999999999999996</ele><time>2026-04-19T09:44:13.003Z</time></trkpt><trkpt lat="42.936593248094105" lon="10.507612511567686"><ele>32.0</ele><time>2026-04-19T09:44:16.003Z</time></trkpt><trkpt lat="42.93665909074823" lon="10.507554981634998"><ele>32.0</ele><time>2026-04-19T09:44:19.003Z</time></trkpt><trkpt lat="42.93672370782442" lon="10.507501210677313"><ele>32.666666666666664</ele><time>2026-04-19T09:44:22.003Z</time></trkpt><trkpt lat="42.93678889493122" lon="10.507445280181594"><ele>33.33333333333333</ele><time>2026-04-19T09:44:25.003Z</time></trkpt><trkpt lat="42.93686616307917" lon="10.50740468534233"><ele>34.0</ele><time>2026-04-19T09:44:29.002Z</time></trkpt><trkpt lat="42.93692046699628" lon="10.507347387855498"><ele>34.666666666666664</ele><time>2026-04-19T09:44:32.002Z</time></trkpt><trkpt lat="42.93696988195454" lon="10.507262310818652"><ele>35.333333333333336</ele><time>2026-04-19T09:44:35.002Z</time></trkpt><trkpt lat="42.937031510388735" lon="10.50722748512527"><ele>36.0</ele><time>2026-04-19T09:44:37.002Z</time></trkpt><trkpt lat="42.937093197582534" lon="10.507162776421135"><ele>36.0</ele><time>2026-04-19T09:44:40.002Z</time></trkpt><trkpt lat="42.937148652561426" lon="10.50709571016835"><ele>36.0</ele><time>2026-04-19T09:44:43.002Z</time></trkpt><trkpt lat="42.93721207955161" lon="10.507056996771174"><ele>36.0</ele><time>2026-04-19T09:44:46.002Z</time></trkpt><trkpt lat="42.93724813558009" lon="10.506968576475456"><ele>36.0</ele><time>2026-04-19T09:44:49.001Z</time></trkpt><trkpt lat="42.93731410999407" lon="10.506909128855481"><ele>36.0</ele><time>2026-04-19T09:44:52.001Z</time></trkpt><trkpt lat="42.93738547111768" lon="10.506854303805317"><ele>36.0</ele><time>2026-04-19T09:44:55.001Z</time></trkpt><trkpt lat="42.937446323300996" lon="10.506784136435849"><ele>35.666666666666664</ele><time>2026-04-19T09:44:58.001Z</time></trkpt><trkpt lat="42.937499047919374" lon="10.506723916371287"><ele>35.333333333333336</ele><time>2026-04-19T09:45:01.001Z</time></trkpt><trkpt lat="42.937569680076884" lon="10.506745222349656"><ele>35.0</ele><time>2026-04-19T09:45:04.001Z</time></trkpt><trkpt lat="42.937631317652624" lon="10.5068133730771"><ele>34.66666666666667</ele><time>2026-04-19T09:45:08.001Z</time></trkpt><trkpt lat="42.93767398487839" lon="10.506884265769827"><ele>34.333333333333336</ele><time>2026-04-19T09:45:12.001Z</time></trkpt><trkpt lat="42.937725922020675" lon="10.506975384040256"><ele>34.0</ele><time>2026-04-19T09:45:16.001Z</time></trkpt><trkpt lat="42.937763425982595" lon="10.507069628562759"><ele>35.285714285714285</ele><time>2026-04-19T09:45:20.001Z</time></trkpt><trkpt lat="42.93781118098299" lon="10.50715802820537"><ele>36.57142857142857</ele><time>2026-04-19T09:45:24.001Z</time></trkpt><trkpt lat="42.937835973499716" lon="10.507249859304912"><ele>37.85714285714286</ele><time>2026-04-19T09:45:28.001Z</time></trkpt><trkpt lat="42.937881641057096" lon="10.507342123211028"><ele>39.14285714285714</ele><time>2026-04-19T09:45:32.001Z</time></trkpt><trkpt lat="42.93794164648239" lon="10.507376441402041"><ele>40.42857142857143</ele><time>2026-04-19T09:45:35.001Z</time></trkpt><trkpt lat="42.93798163248737" lon="10.507446198951415"><ele>41.714285714285715</ele><time>2026-04-19T09:45:39.001Z</time></trkpt><trkpt lat="42.93802677071281" lon="10.507513822148216"><ele>43.0</ele><time>2026-04-19T09:45:43.001Z</time></trkpt><trkpt lat="42.93806756549924" lon="10.507582468197722"><ele>43.00000000000001</ele><time>2026-04-19T09:45:47.001Z</time></trkpt><trkpt lat="42.93812359326646" lon="10.507540426217703"><ele>43.0</ele><time>2026-04-19T09:45:55.001Z</time></trkpt><trkpt lat="42.938184950913836" lon="10.507604454832961"><ele>43.0</ele><time>2026-04-19T09:45:59.001Z</time></trkpt><trkpt lat="42.938233173325685" lon="10.507690082294257"><ele>43.0</ele><time>2026-04-19T09:46:04.001Z</time></trkpt><trkpt lat="42.93827402512457" lon="10.507771722205597"><ele>43.0</ele><time>2026-04-19T09:46:08.001Z</time></trkpt><trkpt lat="42.93831825623057" lon="10.507858854068234"><ele>43.00000000000001</ele><time>2026-04-19T09:46:13.001Z</time></trkpt><trkpt lat="42.93835282134423" lon="10.507932630429991"><ele>43.0</ele><time>2026-04-19T09:46:17.001Z</time></trkpt><trkpt lat="42.93839828069513" lon="10.508005049939356"><ele>44.57142857142858</ele><time>2026-04-19T09:46:21.001Z</time></trkpt><trkpt lat="42.93844264569344" lon="10.508070138039326"><ele>46.142857142857146</ele><time>2026-04-19T09:46:25.001Z</time></trkpt><trkpt lat="42.938484568092676" lon="10.508149875655125"><ele>47.714285714285715</ele><time>2026-04-19T09:46:29.001Z</time></trkpt><trkpt lat="42.938517785619034" lon="10.508236041547132"><ele>49.28571428571429</ele><time>2026-04-19T09:46:33.001Z</time></trkpt><trkpt lat="42.93856262322965" lon="10.508316179166567"><ele>50.857142857142854</ele><time>2026-04-19T09:46:38.001Z</time></trkpt><trkpt lat="42.938615392882234" lon="10.508398052646067"><ele>52.42857142857143</ele><time>2026-04-19T09:46:43.001Z</time></trkpt><trkpt lat="42.93865303891276" lon="10.50846819509991"><ele>54.0</ele><time>2026-04-19T09:46:47.001Z</time></trkpt><trkpt lat="42.938700881687254" lon="10.50854192615596"><ele>54.0</ele><time>2026-04-19T09:46:51.001Z</time></trkpt><trkpt lat="42.938749056265664" lon="10.508623009104964"><ele>54.0</ele><time>2026-04-19T09:46:55Z</time></trkpt><trkpt lat="42.93877602590748" lon="10.508703601175755"><ele>54.0</ele><time>2026-04-19T09:46:59Z</time></trkpt><trkpt lat="42.93881373264229" lon="10.508783971287547"><ele>54.0</ele><time>2026-04-19T09:47:04Z</time></trkpt><trkpt lat="42.93885185516761" lon="10.508867255391738"><ele>54.0</ele><time>2026-04-19T09:47:09Z</time></trkpt><trkpt lat="42.938879024128596" lon="10.508961613592763"><ele>54.0</ele><time>2026-04-19T09:47:14Z</time></trkpt><trkpt lat="42.938889163041495" lon="10.50905038223288"><ele>54.0</ele><time>2026-04-19T09:47:18Z</time></trkpt><trkpt lat="42.93889823677517" lon="10.509150862596366"><ele>55.42857142857143</ele><time>2026-04-19T09:47:23Z</time></trkpt><trkpt lat="42.938895044540324" lon="10.50923683640793"><ele>56.857142857142854</ele><time>2026-04-19T09:47:28Z</time></trkpt><trkpt lat="42.93890099049306" lon="10.509322867493509"><ele>58.285714285714285</ele><time>2026-04-19T09:47:34Z</time></trkpt><trkpt lat="42.93891128354499" lon="10.509409686832882"><ele>59.71428571428571</ele><time>2026-04-19T09:47:40Z</time></trkpt><trkpt lat="42.93892425216189" lon="10.509495315258707"><ele>61.14285714285714</ele><time>2026-04-19T09:47:46Z</time></trkpt><trkpt lat="42.938916524790336" lon="10.509588598948561"><ele>62.57142857142857</ele><time>2026-04-19T09:47:53Z</time></trkpt><trkpt lat="42.93894653891461" lon="10.509665676471995"><ele>64.0</ele><time>2026-04-19T09:48:02Z</time></trkpt><trkpt lat="42.938966186128795" lon="10.509749392656976"><ele>65.0</ele><time>2026-04-19T09:48:10Z</time></trkpt><trkpt lat="42.93895634527847" lon="10.509838227250787"><ele>66.0</ele><time>2026-04-19T09:48:17Z</time></trkpt><trkpt lat="42.93895569466094" lon="10.509931225443426"><ele>67.0</ele><time>2026-04-19T09:48:23Z</time></trkpt><trkpt lat="42.93896380409361" lon="10.510020979611983"><ele>68.0</ele><time>2026-04-19T09:48:27Z</time></trkpt><trkpt lat="42.93895708826176" lon="10.510114278462986"><ele>69.0</ele><time>2026-04-19T09:48:31Z</time></trkpt><trkpt lat="42.938979622288166" lon="10.510208707260672"><ele>70.0</ele><time>2026-04-19T09:48:35.001Z</time></trkpt><trkpt lat="42.93898451103243" lon="10.510311310523264"><ele>71.0</ele><time>2026-04-19T09:48:39.001Z</time></trkpt><trkpt lat="42.93898138748545" lon="10.510412378590074"><ele>72.83333333333334</ele><time>2026-04-19T09:48:43Z</time></trkpt><trkpt lat="42.93896920932284" lon="10.51052900324351"><ele>74.66666666666667</ele><time>2026-04-19T09:48:47Z</time></trkpt><trkpt lat="42.93893846778901" lon="10.510630440139952"><ele>76.5</ele><time>2026-04-19T09:48:51Z</time></trkpt><trkpt lat="42.938900620977215" lon="10.510735141478355"><ele>78.33333333333333</ele><time>2026-04-19T09:48:55Z</time></trkpt><trkpt lat="42.93886001057447" lon="10.510804339694971"><ele>80.16666666666666</ele><time>2026-04-19T09:48:58Z</time></trkpt><trkpt lat="42.93880284742473" lon="10.51088401869745"><ele>82.0</ele><time>2026-04-19T09:49:02Z</time></trkpt><trkpt lat="42.93874291105348" lon="10.510961678108607"><ele>81.99999999999999</ele><time>2026-04-19T09:49:06Z</time></trkpt><trkpt lat="42.93868279275813" lon="10.511001888280123"><ele>82.0</ele><time>2026-04-19T09:49:09Z</time></trkpt><trkpt lat="42.93860572985513" lon="10.511039303717517"><ele>82.0</ele><time>2026-04-19T09:49:13Z</time></trkpt><trkpt lat="42.938529161365516" lon="10.511068322446546"><ele>82.0</ele><time>2026-04-19T09:49:17Z</time></trkpt><trkpt lat="42.93846053681689" lon="10.511097325738076"><ele>82.0</ele><time>2026-04-19T09:49:21Z</time></trkpt><trkpt lat="42.93839222092407" lon="10.51113851391773"><ele>81.99999999999999</ele><time>2026-04-19T09:49:25Z</time></trkpt><trkpt lat="42.93835248392508" lon="10.511213336629542"><ele>82.0</ele><time>2026-04-19T09:49:29Z</time></trkpt><trkpt lat="42.93833769736052" lon="10.511311693583224"><ele>81.99999999999999</ele><time>2026-04-19T09:49:33Z</time></trkpt><trkpt lat="42.93835280144473" lon="10.511405150187091"><ele>82.0</ele><time>2026-04-19T09:49:37Z</time></trkpt><trkpt lat="42.938392287354596" lon="10.51147774454217"><ele>82.0</ele><time>2026-04-19T09:49:41Z</time></trkpt><trkpt lat="42.93845376465446" lon="10.511520837961676"><ele>82.0</ele><time>2026-04-19T09:49:45Z</time></trkpt><trkpt lat="42.938521140460765" lon="10.511532906000287"><ele>82.0</ele><time>2026-04-19T09:49:50Z</time></trkpt><trkpt lat="42.93858660475028" lon="10.511533340047603"><ele>81.99999999999999</ele><time>2026-04-19T09:49:54Z</time></trkpt><trkpt lat="42.93865960497874" lon="10.51153221616507"><ele>82.0</ele><time>2026-04-19T09:50:00Z</time></trkpt><trkpt lat="42.93872663180589" lon="10.511516956520815"><ele>83.14285714285714</ele><time>2026-04-19T09:50:06Z</time></trkpt><trkpt lat="42.93880306869109" lon="10.511512458659578"><ele>84.28571428571428</ele><time>2026-04-19T09:50:14Z</time></trkpt><trkpt lat="42.93887032276354" lon="10.511541834883486"><ele>85.42857142857142</ele><time>2026-04-19T09:50:20Z</time></trkpt><trkpt lat="42.938944120847246" lon="10.511574010569447"><ele>86.57142857142857</ele><time>2026-04-19T09:50:25Z</time></trkpt><trkpt lat="42.93900520281184" lon="10.511601692594107"><ele>87.71428571428572</ele><time>2026-04-19T09:50:30Z</time></trkpt><trkpt lat="42.93908339266914" lon="10.511643071680156"><ele>88.85714285714285</ele><time>2026-04-19T09:50:33Z</time></trkpt><trkpt lat="42.939150087645345" lon="10.511690492396104"><ele>90.0</ele><time>2026-04-19T09:50:37Z</time></trkpt><trkpt lat="42.939208095200364" lon="10.51173813179752"><ele>90.28571428571428</ele><time>2026-04-19T09:50:41Z</time></trkpt><trkpt lat="42.93926215939956" lon="10.511789555720105"><ele>90.57142857142858</ele><time>2026-04-19T09:50:44Z</time></trkpt><trkpt lat="42.939325782257534" lon="10.511863075950538"><ele>90.85714285714286</ele><time>2026-04-19T09:50:47Z</time></trkpt><trkpt lat="42.939384906833254" lon="10.511947141503784"><ele>91.14285714285714</ele><time>2026-04-19T09:50:51Z</time></trkpt><trkpt lat="42.939428501007896" lon="10.512018857325161"><ele>91.42857142857142</ele><time>2026-04-19T09:50:54Z</time></trkpt><trkpt lat="42.939463766338974" lon="10.51209274400647"><ele>91.71428571428572</ele><time>2026-04-19T09:50:57Z</time></trkpt><trkpt lat="42.93950235652396" lon="10.51216717980314"><ele>92.0</ele><time>2026-04-19T09:51:00Z</time></trkpt><trkpt lat="42.939547764979125" lon="10.512231915119223"><ele>92.71428571428572</ele><time>2026-04-19T09:51:03Z</time></trkpt><trkpt lat="42.93959954719443" lon="10.512307973981589"><ele>93.42857142857142</ele><time>2026-04-19T09:51:07Z</time></trkpt><trkpt lat="42.939632034372906" lon="10.512383108681012"><ele>94.14285714285714</ele><time>2026-04-19T09:51:11Z</time></trkpt><trkpt lat="42.93965385401652" lon="10.512477147063747"><ele>94.85714285714286</ele><time>2026-04-19T09:51:15Z</time></trkpt><trkpt lat="42.93965834192763" lon="10.512586226111758"><ele>95.57142857142858</ele><time>2026-04-19T09:51:19Z</time></trkpt><trkpt lat="42.939672751357556" lon="10.512696596737564"><ele>96.28571428571428</ele><time>2026-04-19T09:51:23Z</time></trkpt><trkpt lat="42.93969043411055" lon="10.51278429789297"><ele>97.0</ele><time>2026-04-19T09:51:26Z</time></trkpt><trkpt lat="42.939725504567235" lon="10.512879856353504"><ele>97.00000000000001</ele><time>2026-04-19T09:51:29Z</time></trkpt><trkpt lat="42.93975123347018" lon="10.512971537747344"><ele>97.0</ele><time>2026-04-19T09:51:32Z</time></trkpt><trkpt lat="42.939783947167605" lon="10.513066879630378"><ele>97.0</ele><time>2026-04-19T09:51:35Z</time></trkpt><trkpt lat="42.93981140212619" lon="10.513177132970874"><ele>97.0</ele><time>2026-04-19T09:51:38Z</time></trkpt><trkpt lat="42.93983535101694" lon="10.513259214272278"><ele>97.00000000000001</ele><time>2026-04-19T09:51:40Z</time></trkpt><trkpt lat="42.93987130867735" lon="10.513349829373638"><ele>97.0</ele><time>2026-04-19T09:51:43Z</time></trkpt><trkpt lat="42.93990825985992" lon="10.51344612914641"><ele>97.00000000000001</ele><time>2026-04-19T09:51:46Z</time></trkpt><trkpt lat="42.93994487650142" lon="10.513535969926963"><ele>97.0</ele><time>2026-04-19T09:51:49Z</time></trkpt><trkpt lat="42.939970192481425" lon="10.513646299082625"><ele>97.0</ele><time>2026-04-19T09:51:52Z</time></trkpt><trkpt lat="42.94001745080204" lon="10.513720212557855"><ele>97.0</ele><time>2026-04-19T09:51:55Z</time></trkpt><trkpt lat="42.94005608718969" lon="10.513813431142953"><ele>97.00000000000001</ele><time>2026-04-19T09:51:58Z</time></trkpt><trkpt lat="42.94009478081049" lon="10.51390749135338"><ele>97.0</ele><time>2026-04-19T09:52:01Z</time></trkpt><trkpt lat="42.94013872020049" lon="10.513992012739397"><ele>96.33333333333334</ele><time>2026-04-19T09:52:04Z</time></trkpt><trkpt lat="42.94018198000834" lon="10.514087639450462"><ele>95.66666666666667</ele><time>2026-04-19T09:52:07Z</time></trkpt><trkpt lat="42.94023669002876" lon="10.514175519327784"><ele>95.0</ele><time>2026-04-19T09:52:10Z</time></trkpt><trkpt lat="42.94027459323274" lon="10.514260790407404"><ele>94.33333333333334</ele><time>2026-04-19T09:52:13Z</time></trkpt><trkpt lat="42.940321951208055" lon="10.514344340505039"><ele>93.66666666666667</ele><time>2026-04-19T09:52:16Z</time></trkpt><trkpt lat="42.94037217380532" lon="10.514436550588437"><ele>93.0</ele><time>2026-04-19T09:52:19Z</time></trkpt><trkpt lat="42.94042629084327" lon="10.514518425812925"><ele>91.5</ele><time>2026-04-19T09:52:22Z</time></trkpt><trkpt lat="42.94048334754263" lon="10.514595432561865"><ele>90.0</ele><time>2026-04-19T09:52:25Z</time></trkpt><trkpt lat="42.940534155301144" lon="10.514686411459062"><ele>88.5</ele><time>2026-04-19T09:52:28Z</time></trkpt><trkpt lat="42.940585256621326" lon="10.514772752184532"><ele>87.0</ele><time>2026-04-19T09:52:31Z</time></trkpt><trkpt lat="42.94064354559596" lon="10.51485025545761"><ele>85.5</ele><time>2026-04-19T09:52:34Z</time></trkpt><trkpt lat="42.94070094066454" lon="10.514910329254183"><ele>84.0</ele><time>2026-04-19T09:52:37Z</time></trkpt><trkpt lat="42.940755139417405" lon="10.514981729504143"><ele>84.0</ele><time>2026-04-19T09:52:40Z</time></trkpt><trkpt lat="42.940817247618455" lon="10.515049141016963"><ele>84.0</ele><time>2026-04-19T09:52:43Z</time></trkpt><trkpt lat="42.94087318467514" lon="10.51512578325445"><ele>84.0</ele><time>2026-04-19T09:52:46Z</time></trkpt><trkpt lat="42.94092558599771" lon="10.515203467023936"><ele>84.0</ele><time>2026-04-19T09:52:49Z</time></trkpt><trkpt lat="42.94098384950402" lon="10.515272462422066"><ele>84.0</ele><time>2026-04-19T09:52:52Z</time></trkpt><trkpt lat="42.941038728173076" lon="10.515348261396909"><ele>84.0</ele><time>2026-04-19T09:52:55Z</time></trkpt><trkpt lat="42.9411030670872" lon="10.515420181529839"><ele>83.5</ele><time>2026-04-19T09:52:58Z</time></trkpt><trkpt lat="42.94116531227656" lon="10.515496821592569"><ele>83.0</ele><time>2026-04-19T09:53:01Z</time></trkpt><trkpt lat="42.94122668595576" lon="10.515583455039675"><ele>82.5</ele><time>2026-04-19T09:53:04Z</time></trkpt><trkpt lat="42.941276863197785" lon="10.515662407682639"><ele>82.0</ele><time>2026-04-19T09:53:07Z</time></trkpt><trkpt lat="42.94133980106415" lon="10.51574398867722"><ele>81.5</ele><time>2026-04-19T09:53:10Z</time></trkpt><trkpt lat="42.941399553747694" lon="10.515826925982395"><ele>81.0</ele><time>2026-04-19T09:53:13Z</time></trkpt><trkpt lat="42.94145558617667" lon="10.515914717308927"><ele>81.0</ele><time>2026-04-19T09:53:16Z</time></trkpt><trkpt lat="42.941442986720666" lon="10.516004762198653"><ele>81.0</ele><time>2026-04-19T09:53:19Z</time></trkpt><trkpt lat="42.941430627934935" lon="10.516097461002412"><ele>81.0</ele><time>2026-04-19T09:53:22Z</time></trkpt><trkpt lat="42.94149834829024" lon="10.516159094810211"><ele>81.0</ele><time>2026-04-19T09:53:25Z</time></trkpt><trkpt lat="42.94151043402025" lon="10.516244551165846"><ele>81.0</ele><time>2026-04-19T09:53:27Z</time></trkpt><trkpt lat="42.94145780492385" lon="10.516347285093994"><ele>81.0</ele><time>2026-04-19T09:53:30Z</time></trkpt><trkpt lat="42.94138027855998" lon="10.516411306248836"><ele>80.33333333333333</ele><time>2026-04-19T09:53:33Z</time></trkpt><trkpt lat="42.941329643381614" lon="10.51646343301309"><ele>79.66666666666667</ele><time>2026-04-19T09:53:35Z</time></trkpt><trkpt lat="42.941281829913024" lon="10.516550538082384"><ele>79.0</ele><time>2026-04-19T09:53:38Z</time></trkpt><trkpt lat="42.941230989825236" lon="10.516611889654753"><ele>78.33333333333334</ele><time>2026-04-19T09:53:41Z</time></trkpt><trkpt lat="42.94114520947256" lon="10.516664811730157"><ele>77.66666666666667</ele><time>2026-04-19T09:53:44Z</time></trkpt><trkpt lat="42.9410936241656" lon="10.516715258807752"><ele>77.0</ele><time>2026-04-19T09:53:46Z</time></trkpt><trkpt lat="42.94100990077273" lon="10.516772831569027"><ele>77.0</ele><time>2026-04-19T09:53:49Z</time></trkpt><trkpt lat="42.94093139660233" lon="10.516853841246931"><ele>77.0</ele><time>2026-04-19T09:53:52Z</time></trkpt><trkpt lat="42.94086617402993" lon="10.51688337022649"><ele>77.0</ele><time>2026-04-19T09:53:55Z</time></trkpt><trkpt lat="42.94080284549887" lon="10.516942833046361"><ele>77.0</ele><time>2026-04-19T09:53:58Z</time></trkpt><trkpt lat="42.94074296564375" lon="10.51700454643097"><ele>77.0</ele><time>2026-04-19T09:54:01Z</time></trkpt><trkpt lat="42.94067000640431" lon="10.517059724231512"><ele>77.0</ele><time>2026-04-19T09:54:04Z</time></trkpt><trkpt lat="42.94059146076317" lon="10.517057562689276"><ele>77.0</ele><time>2026-04-19T09:54:07Z</time></trkpt><trkpt lat="42.94052882469401" lon="10.517044274488983"><ele>77.0</ele><time>2026-04-19T09:54:09Z</time></trkpt><trkpt lat="42.94044453707246" lon="10.517014297770654"><ele>77.0</ele><time>2026-04-19T09:54:12Z</time></trkpt><trkpt lat="42.94037966073775" lon="10.517004667909678"><ele>77.0</ele><time>2026-04-19T09:54:14Z</time></trkpt><trkpt lat="42.94029136855297" lon="10.516979730237685"><ele>77.0</ele><time>2026-04-19T09:54:17Z</time></trkpt><trkpt lat="42.940213916682964" lon="10.516949631971475"><ele>77.0</ele><time>2026-04-19T09:54:19.999Z</time></trkpt><trkpt lat="42.940132977229275" lon="10.516938156671753"><ele>77.0</ele><time>2026-04-19T09:54:22.999Z</time></trkpt><trkpt lat="42.9400548862254" lon="10.516897664281814"><ele>77.0</ele><time>2026-04-19T09:54:26.999Z</time></trkpt><trkpt lat="42.93999273272584" lon="10.516883974646271"><ele>77.0</ele><time>2026-04-19T09:54:28.999Z</time></trkpt><trkpt lat="42.93990893692995" lon="10.516862628878867"><ele>77.0</ele><time>2026-04-19T09:54:31.999Z</time></trkpt><trkpt lat="42.93984788323165" lon="10.516839667996118"><ele>77.0</ele><time>2026-04-19T09:54:33.999Z</time></trkpt><trkpt lat="42.939773245103986" lon="10.516807689385836"><ele>77.0</ele><time>2026-04-19T09:54:36.999Z</time></trkpt><trkpt lat="42.93971449080375" lon="10.51677597996171"><ele>77.0</ele><time>2026-04-19T09:54:38.999Z</time></trkpt><trkpt lat="42.93963474542665" lon="10.516759255035234"><ele>76.33333333333334</ele><time>2026-04-19T09:54:41.999Z</time></trkpt><trkpt lat="42.93957149429686" lon="10.516749652427796"><ele>75.66666666666667</ele><time>2026-04-19T09:54:43.999Z</time></trkpt><trkpt lat="42.93949479085708" lon="10.516716423476531"><ele>75.0</ele><time>2026-04-19T09:54:46.999Z</time></trkpt><trkpt lat="42.93940320378581" lon="10.516716209324299"><ele>74.33333333333333</ele><time>2026-04-19T09:54:50Z</time></trkpt><trkpt lat="42.93932802958483" lon="10.51671265453069"><ele>73.66666666666666</ele><time>2026-04-19T09:54:53Z</time></trkpt><trkpt lat="42.93924678608631" lon="10.516720537224238"><ele>73.0</ele><time>2026-04-19T09:54:56Z</time></trkpt><trkpt lat="42.939173353789435" lon="10.516746631436861"><ele>72.16666666666666</ele><time>2026-04-19T09:54:59Z</time></trkpt><trkpt lat="42.939105417986" lon="10.516782878626602"><ele>71.33333333333333</ele><time>2026-04-19T09:55:02Z</time></trkpt><trkpt lat="42.93902888085347" lon="10.516830138177284"><ele>70.5</ele><time>2026-04-19T09:55:05Z</time></trkpt><trkpt lat="42.93895007703218" lon="10.516881771404426"><ele>69.66666666666667</ele><time>2026-04-19T09:55:08Z</time></trkpt><trkpt lat="42.93888430673935" lon="10.516958421205503"><ele>68.83333333333334</ele><time>2026-04-19T09:55:11Z</time></trkpt><trkpt lat="42.93881636303757" lon="10.517008247758303"><ele>68.0</ele><time>2026-04-19T09:55:14Z</time></trkpt><trkpt lat="42.9387635599082" lon="10.517081365214866"><ele>67.33333333333334</ele><time>2026-04-19T09:55:17Z</time></trkpt><trkpt lat="42.938690268852476" lon="10.517139260270637"><ele>66.66666666666667</ele><time>2026-04-19T09:55:20Z</time></trkpt><trkpt lat="42.938625971493096" lon="10.517177278951179"><ele>66.0</ele><time>2026-04-19T09:55:23Z</time></trkpt><trkpt lat="42.93854721660948" lon="10.517226171328717"><ele>65.33333333333333</ele><time>2026-04-19T09:55:27Z</time></trkpt><trkpt lat="42.93847796969747" lon="10.517308649518752"><ele>64.66666666666666</ele><time>2026-04-19T09:55:30Z</time></trkpt><trkpt lat="42.93842017092119" lon="10.517359411852622"><ele>64.0</ele><time>2026-04-19T09:55:32Z</time></trkpt><trkpt lat="42.938355497772726" lon="10.517413067455214"><ele>63.666666666666664</ele><time>2026-04-19T09:55:35Z</time></trkpt><trkpt lat="42.938287932465244" lon="10.517478125917876"><ele>63.33333333333333</ele><time>2026-04-19T09:55:38Z</time></trkpt><trkpt lat="42.93820956803403" lon="10.517531906042244"><ele>63.0</ele><time>2026-04-19T09:55:41Z</time></trkpt><trkpt lat="42.93814560740717" lon="10.517575616614387"><ele>62.66666666666667</ele><time>2026-04-19T09:55:44Z</time></trkpt><trkpt lat="42.938081783935786" lon="10.517633868987323"><ele>62.333333333333336</ele><time>2026-04-19T09:55:47Z</time></trkpt><trkpt lat="42.938005362097144" lon="10.51768450560913"><ele>62.0</ele><time>2026-04-19T09:55:50Z</time></trkpt><trkpt lat="42.937944616783376" lon="10.517714474827187"><ele>62.00000000000001</ele><time>2026-04-19T09:55:52Z</time></trkpt><trkpt lat="42.937875411578176" lon="10.517741201958637"><ele>62.0</ele><time>2026-04-19T09:55:55Z</time></trkpt><trkpt lat="42.93780719009306" lon="10.517744764208745"><ele>62.0</ele><time>2026-04-19T09:55:57Z</time></trkpt><trkpt lat="42.937723829013514" lon="10.517766490584314"><ele>62.0</ele><time>2026-04-19T09:56:00Z</time></trkpt><trkpt lat="42.93764117819822" lon="10.51777933847606"><ele>62.00000000000001</ele><time>2026-04-19T09:56:03Z</time></trkpt><trkpt lat="42.93755556307403" lon="10.517787347153519"><ele>62.0</ele><time>2026-04-19T09:56:06Z</time></trkpt><trkpt lat="42.93747015919673" lon="10.517801841061257"><ele>61.50000000000001</ele><time>2026-04-19T09:56:09Z</time></trkpt><trkpt lat="42.93739274822098" lon="10.517800848663304"><ele>61.0</ele><time>2026-04-19T09:56:11.999Z</time></trkpt><trkpt lat="42.93732170240225" lon="10.517780418044772"><ele>60.5</ele><time>2026-04-19T09:56:15.999Z</time></trkpt><trkpt lat="42.9372521228965" lon="10.517745178410511"><ele>60.0</ele><time>2026-04-19T09:56:18.999Z</time></trkpt><trkpt lat="42.93719665681389" lon="10.51768614779417"><ele>59.50000000000001</ele><time>2026-04-19T09:56:21.999Z</time></trkpt><trkpt lat="42.93714800553668" lon="10.51761051037209"><ele>59.0</ele><time>2026-04-19T09:56:24.999Z</time></trkpt><trkpt lat="42.937089418405066" lon="10.517522274382774"><ele>59.0</ele><time>2026-04-19T09:56:27.999Z</time></trkpt><trkpt lat="42.93705215868363" lon="10.517451960094244"><ele>59.0</ele><time>2026-04-19T09:56:30.999Z</time></trkpt><trkpt lat="42.93700732955541" lon="10.517519228596715"><ele>59.0</ele><time>2026-04-19T09:56:32.999Z</time></trkpt><trkpt lat="42.937034822613654" lon="10.51761493205085"><ele>59.0</ele><time>2026-04-19T09:56:35.999Z</time></trkpt><trkpt lat="42.93703958062395" lon="10.517718003242457"><ele>59.0</ele><time>2026-04-19T09:56:38.999Z</time></trkpt><trkpt lat="42.93700817901034" lon="10.517826268646136"><ele>59.0</ele><time>2026-04-19T09:56:41.999Z</time></trkpt><trkpt lat="42.93696409197627" lon="10.517891357190647"><ele>59.0</ele><time>2026-04-19T09:56:43.999Z</time></trkpt><trkpt lat="42.93689533523863" lon="10.517961292854205"><ele>59.00000000000001</ele><time>2026-04-19T09:56:46.999Z</time></trkpt><trkpt lat="42.93682421328724" lon="10.518004765589575"><ele>59.0</ele><time>2026-04-19T09:56:49.999Z</time></trkpt><trkpt lat="42.936752761723746" lon="10.518027920955356"><ele>59.0</ele><time>2026-04-19T09:56:52.999Z</time></trkpt><trkpt lat="42.936669074883554" lon="10.518046440342772"><ele>59.0</ele><time>2026-04-19T09:56:56Z</time></trkpt><trkpt lat="42.93658685106409" lon="10.518035560361733"><ele>59.00000000000001</ele><time>2026-04-19T09:56:59Z</time></trkpt><trkpt lat="42.93650812344041" lon="10.51804082174639"><ele>59.0</ele><time>2026-04-19T09:57:02Z</time></trkpt><trkpt lat="42.936423118430554" lon="10.518047748810451"><ele>58.833333333333336</ele><time>2026-04-19T09:57:05Z</time></trkpt><trkpt lat="42.93634295082928" lon="10.518050477618342"><ele>58.66666666666667</ele><time>2026-04-19T09:57:08Z</time></trkpt><trkpt lat="42.93625742344667" lon="10.518052571713339"><ele>58.5</ele><time>2026-04-19T09:57:11Z</time></trkpt><trkpt lat="42.93617003771675" lon="10.518065544593943"><ele>58.33333333333333</ele><time>2026-04-19T09:57:14Z</time></trkpt><trkpt lat="42.936105087992125" lon="10.518148865491264"><ele>58.166666666666664</ele><time>2026-04-19T09:57:17Z</time></trkpt><trkpt lat="42.93608066849154" lon="10.518243400314757"><ele>58.0</ele><time>2026-04-19T09:57:20Z</time></trkpt><trkpt lat="42.93602742481059" lon="10.518310399818143"><ele>57.99999999999999</ele><time>2026-04-19T09:57:23Z</time></trkpt><trkpt lat="42.93597620987119" lon="10.518386203816183"><ele>58.0</ele><time>2026-04-19T09:57:26Z</time></trkpt><trkpt lat="42.93592910147506" lon="10.518474488015352"><ele>58.0</ele><time>2026-04-19T09:57:29Z</time></trkpt><trkpt lat="42.93586960774877" lon="10.518553781800172"><ele>58.0</ele><time>2026-04-19T09:57:32Z</time></trkpt><trkpt lat="42.935811143951554" lon="10.518640871614682"><ele>57.99999999999999</ele><time>2026-04-19T09:57:35Z</time></trkpt><trkpt lat="42.93576522550842" lon="10.51871610450986"><ele>58.0</ele><time>2026-04-19T09:57:38Z</time></trkpt><trkpt lat="42.93570087704152" lon="10.518784723215397"><ele>57.71428571428572</ele><time>2026-04-19T09:57:41Z</time></trkpt><trkpt lat="42.93563713101392" lon="10.518762183102941"><ele>57.42857142857143</ele><time>2026-04-19T09:57:44Z</time></trkpt><trkpt lat="42.93556825395908" lon="10.518720880190642"><ele>57.142857142857146</ele><time>2026-04-19T09:57:47Z</time></trkpt><trkpt lat="42.93555933625154" lon="10.518820294913652"><ele>56.85714285714286</ele><time>2026-04-19T09:57:49Z</time></trkpt><trkpt lat="42.935579333605624" lon="10.518915763705845"><ele>56.57142857142857</ele><time>2026-04-19T09:57:52Z</time></trkpt><trkpt lat="42.9355836387201" lon="10.519018634319929"><ele>56.285714285714285</ele><time>2026-04-19T09:57:55Z</time></trkpt><trkpt lat="42.93557009817432" lon="10.519124301620863"><ele>56.0</ele><time>2026-04-19T09:57:58Z</time></trkpt><trkpt lat="42.9355480632039" lon="10.519223087697636"><ele>56.00000000000001</ele><time>2026-04-19T09:58:01Z</time></trkpt><trkpt lat="42.9355188641548" lon="10.51932802856799"><ele>56.0</ele><time>2026-04-19T09:58:04Z</time></trkpt><trkpt lat="42.93548693628211" lon="10.51942887361455"><ele>56.0</ele><time>2026-04-19T09:58:07Z</time></trkpt><trkpt lat="42.93545399870755" lon="10.519530964248364"><ele>56.0</ele><time>2026-04-19T09:58:09.999Z</time></trkpt><trkpt lat="42.93541968548689" lon="10.519617923108644"><ele>56.00000000000001</ele><time>2026-04-19T09:58:12.999Z</time></trkpt><trkpt lat="42.93539411885643" lon="10.519707494737817"><ele>56.0</ele><time>2026-04-19T09:58:15.999Z</time></trkpt><trkpt lat="42.93536883296675" lon="10.519810453459055"><ele>55.833333333333336</ele><time>2026-04-19T09:58:18.999Z</time></trkpt><trkpt lat="42.93530991271425" lon="10.519884133912708"><ele>55.66666666666667</ele><time>2026-04-19T09:58:21.999Z</time></trkpt><trkpt lat="42.935241476289605" lon="10.519916915199286"><ele>55.5</ele><time>2026-04-19T09:58:24.999Z</time></trkpt><trkpt lat="42.93515990880793" lon="10.519901254117887"><ele>55.33333333333333</ele><time>2026-04-19T09:58:27.999Z</time></trkpt><trkpt lat="42.93508153964362" lon="10.519869350034298"><ele>55.166666666666664</ele><time>2026-04-19T09:58:30.999Z</time></trkpt><trkpt lat="42.935001468967215" lon="10.519848437153888"><ele>55.0</ele><time>2026-04-19T09:58:33.999Z</time></trkpt><trkpt lat="42.93492197741526" lon="10.51981141700078"><ele>54.666666666666664</ele><time>2026-04-19T09:58:36.999Z</time></trkpt><trkpt lat="42.934857317794325" lon="10.519779798761233"><ele>54.33333333333333</ele><time>2026-04-19T09:58:39.999Z</time></trkpt><trkpt lat="42.93479192942281" lon="10.519707214671604"><ele>54.0</ele><time>2026-04-19T09:58:42.999Z</time></trkpt><trkpt lat="42.934761578987214" lon="10.519606357281235"><ele>53.66666666666667</ele><time>2026-04-19T09:58:45.999Z</time></trkpt><trkpt lat="42.93469483792921" lon="10.519538891875362"><ele>53.333333333333336</ele><time>2026-04-19T09:58:48.999Z</time></trkpt><trkpt lat="42.9346349755327" lon="10.51948104743555"><ele>53.0</ele><time>2026-04-19T09:58:51.999Z</time></trkpt><trkpt lat="42.934558422731506" lon="10.519503892026332"><ele>52.714285714285715</ele><time>2026-04-19T09:58:55.999Z</time></trkpt><trkpt lat="42.93453097695517" lon="10.519584162923296"><ele>52.42857142857142</ele><time>2026-04-19T09:58:58.999Z</time></trkpt><trkpt lat="42.93446849805523" lon="10.51962293734502"><ele>52.14285714285714</ele><time>2026-04-19T09:59:04Z</time></trkpt><trkpt lat="42.934392095007475" lon="10.519629397923076"><ele>51.85714285714286</ele><time>2026-04-19T09:59:10Z</time></trkpt><trkpt lat="42.93432111458516" lon="10.5196095517368"><ele>51.57142857142857</ele><time>2026-04-19T09:59:13Z</time></trkpt><trkpt lat="42.934251760721644" lon="10.519597012420626"><ele>51.285714285714285</ele><time>2026-04-19T09:59:17Z</time></trkpt><trkpt lat="42.93417395531682" lon="10.519558380664309"><ele>51.0</ele><time>2026-04-19T09:59:20Z</time></trkpt><trkpt lat="42.93409788281298" lon="10.519528621990705"><ele>50.666666666666664</ele><time>2026-04-19T09:59:23Z</time></trkpt><trkpt lat="42.93401448095134" lon="10.519493875450605"><ele>50.33333333333333</ele><time>2026-04-19T09:59:27Z</time></trkpt><trkpt lat="42.933934715743185" lon="10.519473870864047"><ele>50.0</ele><time>2026-04-19T09:59:30Z</time></trkpt><trkpt lat="42.933846381533975" lon="10.519484261548493"><ele>49.666666666666664</ele><time>2026-04-19T09:59:33Z</time></trkpt><trkpt lat="42.93377411306448" lon="10.519518393545814"><ele>49.33333333333333</ele><time>2026-04-19T09:59:36Z</time></trkpt><trkpt lat="42.93376164182084" lon="10.51961012978938"><ele>49.0</ele><time>2026-04-19T09:59:39Z</time></trkpt><trkpt lat="42.93368044013445" lon="10.51964090760285"><ele>49.0</ele><time>2026-04-19T09:59:44Z</time></trkpt><trkpt lat="42.93360007167644" lon="10.519654416449473"><ele>49.0</ele><time>2026-04-19T09:59:48Z</time></trkpt><trkpt lat="42.93353271865117" lon="10.519660877362112"><ele>49.0</ele><time>2026-04-19T09:59:51Z</time></trkpt><trkpt lat="42.933462809382775" lon="10.519665834665464"><ele>49.0</ele><time>2026-04-19T09:59:54Z</time></trkpt><trkpt lat="42.933392256417754" lon="10.519685677684539"><ele>49.0</ele><time>2026-04-19T09:59:57Z</time></trkpt><trkpt lat="42.93332883382256" lon="10.519721555024692"><ele>49.0</ele><time>2026-04-19T10:00:00Z</time></trkpt><trkpt lat="42.93324425634919" lon="10.5197076566092"><ele>49.0</ele><time>2026-04-19T10:00:03Z</time></trkpt><trkpt lat="42.933168324285305" lon="10.519734486351936"><ele>48.666666666666664</ele><time>2026-04-19T10:00:06Z</time></trkpt><trkpt lat="42.93310958316801" lon="10.51978186254364"><ele>48.33333333333333</ele><time>2026-04-19T10:00:09Z</time></trkpt><trkpt lat="42.93303708427238" lon="10.519802639013687"><ele>48.0</ele><time>2026-04-19T10:00:12Z</time></trkpt><trkpt lat="42.93296947288899" lon="10.519845298647839"><ele>47.666666666666664</ele><time>2026-04-19T10:00:15Z</time></trkpt><trkpt lat="42.932891966633115" lon="10.519865308642386"><ele>47.33333333333333</ele><time>2026-04-19T10:00:18Z</time></trkpt><trkpt lat="42.93280142679683" lon="10.519882619920988"><ele>47.0</ele><time>2026-04-19T10:00:20.999Z</time></trkpt><trkpt lat="42.932738503185554" lon="10.519921366963091"><ele>47.0</ele><time>2026-04-19T10:00:23.999Z</time></trkpt><trkpt lat="42.932660099375106" lon="10.519955294977649"><ele>47.0</ele><time>2026-04-19T10:00:26.999Z</time></trkpt><trkpt lat="42.93258643640838" lon="10.519976034027248"><ele>47.0</ele><time>2026-04-19T10:00:29.999Z</time></trkpt><trkpt lat="42.932516499694216" lon="10.520016154562583"><ele>47.0</ele><time>2026-04-19T10:00:32.999Z</time></trkpt><trkpt lat="42.932445612357775" lon="10.520053230550335"><ele>47.0</ele><time>2026-04-19T10:00:35.999Z</time></trkpt><trkpt lat="42.93237643432293" lon="10.520084814319397"><ele>47.0</ele><time>2026-04-19T10:00:38.999Z</time></trkpt><trkpt lat="42.932314861800805" lon="10.52012131016431"><ele>47.0</ele><time>2026-04-19T10:00:41.999Z</time></trkpt><trkpt lat="42.93225125555079" lon="10.520144208952548"><ele>46.857142857142854</ele><time>2026-04-19T10:00:44.999Z</time></trkpt><trkpt lat="42.93218046343198" lon="10.520191896887393"><ele>46.71428571428571</ele><time>2026-04-19T10:00:47.999Z</time></trkpt><trkpt lat="42.93213607481581" lon="10.520268290662296"><ele>46.57142857142857</ele><time>2026-04-19T10:00:50.999Z</time></trkpt><trkpt lat="42.93209612428564" lon="10.520343146124905"><ele>46.42857142857143</ele><time>2026-04-19T10:00:53.999Z</time></trkpt><trkpt lat="42.93210040015636" lon="10.520461165701422"><ele>46.285714285714285</ele><time>2026-04-19T10:00:57.999Z</time></trkpt><trkpt lat="42.932124400569926" lon="10.520561196014343"><ele>46.142857142857146</ele><time>2026-04-19T10:01:00.999Z</time></trkpt><trkpt lat="42.93214438719561" lon="10.520642888355878"><ele>46.0</ele><time>2026-04-19T10:01:03.999Z</time></trkpt><trkpt lat="42.93204869815609" lon="10.520652164344419"><ele>46.0</ele><time>2026-04-19T10:01:07Z</time></trkpt><trkpt lat="42.93196676756862" lon="10.520690413860295"><ele>46.0</ele><time>2026-04-19T10:01:10Z</time></trkpt><trkpt lat="42.93188829274656" lon="10.520707514772125"><ele>46.0</ele><time>2026-04-19T10:01:13Z</time></trkpt><trkpt lat="42.93183679739351" lon="10.52078195685558"><ele>46.0</ele><time>2026-04-19T10:01:16Z</time></trkpt><trkpt lat="42.93179250781403" lon="10.520886525618156"><ele>46.0</ele><time>2026-04-19T10:01:20Z</time></trkpt><trkpt lat="42.93172116431435" lon="10.520913515169358"><ele>46.0</ele><time>2026-04-19T10:01:24Z</time></trkpt><trkpt lat="42.93164843514372" lon="10.520934400075557"><ele>45.66666666666667</ele><time>2026-04-19T10:01:27Z</time></trkpt><trkpt lat="42.93157244438114" lon="10.520953732991659"><ele>45.333333333333336</ele><time>2026-04-19T10:01:30Z</time></trkpt><trkpt lat="42.93149126288965" lon="10.520961680792526"><ele>45.0</ele><time>2026-04-19T10:01:33Z</time></trkpt><trkpt lat="42.931403932382395" lon="10.520961337209613"><ele>44.666666666666664</ele><time>2026-04-19T10:01:36Z</time></trkpt><trkpt lat="42.931338513777675" lon="10.52095624153456"><ele>44.33333333333333</ele><time>2026-04-19T10:01:38Z</time></trkpt><trkpt lat="42.93126737524932" lon="10.520965990344797"><ele>44.0</ele><time>2026-04-19T10:01:41Z</time></trkpt><trkpt lat="42.931184069433186" lon="10.520972217372083"><ele>44.0</ele><time>2026-04-19T10:01:44Z</time></trkpt><trkpt lat="42.93110296033633" lon="10.520985763872458"><ele>44.0</ele><time>2026-04-19T10:01:47Z</time></trkpt><trkpt lat="42.93102959095261" lon="10.520998868895147"><ele>44.0</ele><time>2026-04-19T10:01:50Z</time></trkpt><trkpt lat="42.93096589839995" lon="10.521032183199562"><ele>44.0</ele><time>2026-04-19T10:01:53Z</time></trkpt><trkpt lat="42.93089231233829" lon="10.521031410772345"><ele>44.0</ele><time>2026-04-19T10:01:56Z</time></trkpt><trkpt lat="42.93080972826149" lon="10.52104564931628"><ele>44.0</ele><time>2026-04-19T10:01:59Z</time></trkpt><trkpt lat="42.930730345993986" lon="10.5210760479116"><ele>44.166666666666664</ele><time>2026-04-19T10:02:02Z</time></trkpt><trkpt lat="42.930653624622956" lon="10.521101381351658"><ele>44.33333333333333</ele><time>2026-04-19T10:02:05Z</time></trkpt><trkpt lat="42.93057369042473" lon="10.521102837953652"><ele>44.5</ele><time>2026-04-19T10:02:08Z</time></trkpt><trkpt lat="42.930497554904335" lon="10.521086079733768"><ele>44.666666666666664</ele><time>2026-04-19T10:02:11Z</time></trkpt><trkpt lat="42.93042032959079" lon="10.521080852632759"><ele>44.833333333333336</ele><time>2026-04-19T10:02:14Z</time></trkpt><trkpt lat="42.930342075217865" lon="10.52112771851845"><ele>45.0</ele><time>2026-04-19T10:02:17Z</time></trkpt><trkpt lat="42.93026958172072" lon="10.521159661854798"><ele>45.0</ele><time>2026-04-19T10:02:20Z</time></trkpt><trkpt lat="42.93018817498574" lon="10.521141636689856"><ele>45.0</ele><time>2026-04-19T10:02:26Z</time></trkpt><trkpt lat="42.930127366131764" lon="10.521185808741341"><ele>45.0</ele><time>2026-04-19T10:02:28.999Z</time></trkpt><trkpt lat="42.930055682182704" lon="10.521199393302144"><ele>45.0</ele><time>2026-04-19T10:02:31.999Z</time></trkpt><trkpt lat="42.92999093202111" lon="10.521207653828139"><ele>45.0</ele><time>2026-04-19T10:02:34.999Z</time></trkpt><trkpt lat="42.929929523417826" lon="10.52123203112148"><ele>45.0</ele><time>2026-04-19T10:02:37.999Z</time></trkpt><trkpt lat="42.929865279564694" lon="10.521239218582538"><ele>45.0</ele><time>2026-04-19T10:02:39.999Z</time></trkpt><trkpt lat="42.92979195745872" lon="10.521285965524921"><ele>44.57142857142857</ele><time>2026-04-19T10:02:42.999Z</time></trkpt><trkpt lat="42.92971369249418" lon="10.521303858475168"><ele>44.142857142857146</ele><time>2026-04-19T10:02:45.999Z</time></trkpt><trkpt lat="42.92964953967534" lon="10.521316630588753"><ele>43.714285714285715</ele><time>2026-04-19T10:02:48.999Z</time></trkpt><trkpt lat="42.929577506020166" lon="10.521335521417381"><ele>43.285714285714285</ele><time>2026-04-19T10:02:51.999Z</time></trkpt><trkpt lat="42.929493273233874" lon="10.521352004311881"><ele>42.85714285714286</ele><time>2026-04-19T10:02:54.999Z</time></trkpt><trkpt lat="42.92942198153306" lon="10.521362669178833"><ele>42.42857142857143</ele><time>2026-04-19T10:02:57.999Z</time></trkpt><trkpt lat="42.92935479033475" lon="10.521382726737281"><ele>42.0</ele><time>2026-04-19T10:03:00.999Z</time></trkpt><trkpt lat="42.929283552153" lon="10.521400006935192"><ele>40.5</ele><time>2026-04-19T10:03:03.999Z</time></trkpt><trkpt lat="42.92920934476337" lon="10.52141207906841"><ele>39.0</ele><time>2026-04-19T10:03:06.999Z</time></trkpt><trkpt lat="42.92912913860632" lon="10.521445188433665"><ele>37.5</ele><time>2026-04-19T10:03:09.999Z</time></trkpt><trkpt lat="42.9290500498988" lon="10.521461351808957"><ele>36.0</ele><time>2026-04-19T10:03:13Z</time></trkpt><trkpt lat="42.92897247911299" lon="10.521483862109116"><ele>34.5</ele><time>2026-04-19T10:03:16Z</time></trkpt><trkpt lat="42.92888582908879" lon="10.52150930029093"><ele>33.0</ele><time>2026-04-19T10:03:19Z</time></trkpt><trkpt lat="42.92879661004462" lon="10.521511089715386"><ele>33.0</ele><time>2026-04-19T10:03:22Z</time></trkpt><trkpt lat="42.92871731531788" lon="10.521527657221831"><ele>33.0</ele><time>2026-04-19T10:03:25Z</time></trkpt><trkpt lat="42.928669670793305" lon="10.521599662822528"><ele>33.0</ele><time>2026-04-19T10:03:28Z</time></trkpt><trkpt lat="42.92865973554208" lon="10.521700417957119"><ele>33.0</ele><time>2026-04-19T10:03:31Z</time></trkpt><trkpt lat="42.92863596048417" lon="10.521804484550508"><ele>33.0</ele><time>2026-04-19T10:03:34Z</time></trkpt><trkpt lat="42.92861662936476" lon="10.5219085367437"><ele>33.0</ele><time>2026-04-19T10:03:37Z</time></trkpt><trkpt lat="42.92860585425613" lon="10.522005958079783"><ele>33.0</ele><time>2026-04-19T10:03:40Z</time></trkpt><trkpt lat="42.928600595683044" lon="10.522109881045042"><ele>33.0</ele><time>2026-04-19T10:03:43Z</time></trkpt><trkpt lat="42.92854257656908" lon="10.522177866981924"><ele>33.0</ele><time>2026-04-19T10:03:47Z</time></trkpt><trkpt lat="42.92849755964565" lon="10.522261530276895"><ele>33.0</ele><time>2026-04-19T10:03:50Z</time></trkpt><trkpt lat="42.92849375592742" lon="10.522355721043645"><ele>33.0</ele><time>2026-04-19T10:03:53Z</time></trkpt><trkpt lat="42.928497588656924" lon="10.522448021095594"><ele>33.0</ele><time>2026-04-19T10:03:56Z</time></trkpt><trkpt lat="42.9284621237616" lon="10.522528438311188"><ele>33.0</ele><time>2026-04-19T10:03:59Z</time></trkpt><trkpt lat="42.92838338507388" lon="10.522532664415214"><ele>32.5</ele><time>2026-04-19T10:04:02Z</time></trkpt><trkpt lat="42.928298222792066" lon="10.522521231002877"><ele>32.0</ele><time>2026-04-19T10:04:06Z</time></trkpt><trkpt lat="42.9282098189542" lon="10.522528755835339"><ele>31.5</ele><time>2026-04-19T10:04:09Z</time></trkpt><trkpt lat="42.92813535023164" lon="10.522535479474273"><ele>31.0</ele><time>2026-04-19T10:04:12Z</time></trkpt><trkpt lat="42.928055609581904" lon="10.522561011990696"><ele>30.5</ele><time>2026-04-19T10:04:15Z</time></trkpt><trkpt lat="42.92797723693519" lon="10.522550376817405"><ele>30.0</ele><time>2026-04-19T10:04:18Z</time></trkpt><trkpt lat="42.9279118887696" lon="10.522537435329335"><ele>30.0</ele><time>2026-04-19T10:04:21Z</time></trkpt><trkpt lat="42.92782878540712" lon="10.522559256001083"><ele>30.0</ele><time>2026-04-19T10:04:24Z</time></trkpt><trkpt lat="42.92775509729849" lon="10.522590047171354"><ele>30.0</ele><time>2026-04-19T10:04:27Z</time></trkpt><trkpt lat="42.92767273478474" lon="10.522608745933713"><ele>30.0</ele><time>2026-04-19T10:04:30Z</time></trkpt><trkpt lat="42.92760101601357" lon="10.522642376955945"><ele>30.0</ele><time>2026-04-19T10:04:32.999Z</time></trkpt><trkpt lat="42.92753276584629" lon="10.522661069903343"><ele>30.0</ele><time>2026-04-19T10:04:35.999Z</time></trkpt><trkpt lat="42.92745931791064" lon="10.522712473411966"><ele>29.833333333333332</ele><time>2026-04-19T10:04:38.999Z</time></trkpt><trkpt lat="42.927397396778126" lon="10.522747078384242"><ele>29.666666666666664</ele><time>2026-04-19T10:04:41.999Z</time></trkpt><trkpt lat="42.92730636960069" lon="10.522762920352728"><ele>29.5</ele><time>2026-04-19T10:04:44.999Z</time></trkpt><trkpt lat="42.92722094187023" lon="10.522778966611218"><ele>29.333333333333332</ele><time>2026-04-19T10:04:47.999Z</time></trkpt><trkpt lat="42.927140214306974" lon="10.522833536075815"><ele>29.166666666666664</ele><time>2026-04-19T10:04:52.999Z</time></trkpt><trkpt lat="42.927064100776406" lon="10.522852726551672"><ele>29.0</ele><time>2026-04-19T10:04:55.999Z</time></trkpt><trkpt lat="42.92699392317855" lon="10.52284544923379"><ele>28.999999999999996</ele><time>2026-04-19T10:04:58.999Z</time></trkpt><trkpt lat="42.92692157604406" lon="10.522872238211198"><ele>29.0</ele><time>2026-04-19T10:05:01.999Z</time></trkpt><trkpt lat="42.92684545597111" lon="10.522875378528301"><ele>29.0</ele><time>2026-04-19T10:05:04.999Z</time></trkpt><trkpt lat="42.92676752135101" lon="10.522870808935334"><ele>29.0</ele><time>2026-04-19T10:05:07.999Z</time></trkpt><trkpt lat="42.926689609240626" lon="10.522856737556959"><ele>28.999999999999996</ele><time>2026-04-19T10:05:10.999Z</time></trkpt><trkpt lat="42.926610738566616" lon="10.522904064513604"><ele>29.0</ele><time>2026-04-19T10:05:13.999Z</time></trkpt><trkpt lat="42.926605996514674" lon="10.522998449500319"><ele>29.142857142857146</ele><time>2026-04-19T10:05:20Z</time></trkpt><trkpt lat="42.92653520834183" lon="10.52302543749338"><ele>29.285714285714285</ele><time>2026-04-19T10:05:30Z</time></trkpt><trkpt lat="42.92645182476172" lon="10.522997109065605"><ele>29.42857142857143</ele><time>2026-04-19T10:05:35Z</time></trkpt><trkpt lat="42.92638747261694" lon="10.5230095248472"><ele>29.571428571428573</ele><time>2026-04-19T10:05:39Z</time></trkpt><trkpt lat="42.92631597625136" lon="10.523010245183391"><ele>29.714285714285715</ele><time>2026-04-19T10:05:43Z</time></trkpt><trkpt lat="42.92625249849803" lon="10.523012156557863"><ele>29.857142857142858</ele><time>2026-04-19T10:05:48Z</time></trkpt><trkpt lat="42.92618971072108" lon="10.523032868176207"><ele>30.0</ele><time>2026-04-19T10:05:53Z</time></trkpt><trkpt lat="42.926111066940884" lon="10.523058103630252"><ele>30.0</ele><time>2026-04-19T10:05:57Z</time></trkpt><trkpt lat="42.92603401222971" lon="10.52308512865644"><ele>30.0</ele><time>2026-04-19T10:06:01Z</time></trkpt><trkpt lat="42.92594882328293" lon="10.52309623947691"><ele>30.0</ele><time>2026-04-19T10:06:04Z</time></trkpt><trkpt lat="42.92588334657211" lon="10.523158545194947"><ele>30.0</ele><time>2026-04-19T10:06:07Z</time></trkpt><trkpt lat="42.92587280473995" lon="10.523273917631702"><ele>30.0</ele><time>2026-04-19T10:06:10Z</time></trkpt><trkpt lat="42.9258541035018" lon="10.523377358870286"><ele>30.0</ele><time>2026-04-19T10:06:13Z</time></trkpt><trkpt lat="42.92584331771733" lon="10.52348925749709"><ele>30.0</ele><time>2026-04-19T10:06:16Z</time></trkpt><trkpt lat="42.92587805283978" lon="10.523568989150665"><ele>30.0</ele><time>2026-04-19T10:06:18Z</time></trkpt><trkpt lat="42.9259007157501" lon="10.523676574661865"><ele>30.0</ele><time>2026-04-19T10:06:21Z</time></trkpt><trkpt lat="42.92589432288544" lon="10.523789205155099"><ele>30.0</ele><time>2026-04-19T10:06:24Z</time></trkpt><trkpt lat="42.925885153726696" lon="10.523875300560523"><ele>30.0</ele><time>2026-04-19T10:06:27Z</time></trkpt><trkpt lat="42.92586319428156" lon="10.523981746552902"><ele>30.0</ele><time>2026-04-19T10:06:30Z</time></trkpt><trkpt lat="42.92586425286386" lon="10.524091976983648"><ele>29.666666666666668</ele><time>2026-04-19T10:06:33Z</time></trkpt><trkpt lat="42.92580188671027" lon="10.524150362630914"><ele>29.333333333333336</ele><time>2026-04-19T10:06:35.999Z</time></trkpt><trkpt lat="42.925730802052236" lon="10.524176243480126"><ele>29.0</ele><time>2026-04-19T10:06:38.999Z</time></trkpt><trkpt lat="42.92564668681592" lon="10.524204504373108"><ele>28.666666666666668</ele><time>2026-04-19T10:06:41.999Z</time></trkpt><trkpt lat="42.92558390857293" lon="10.52426929506053"><ele>28.333333333333336</ele><time>2026-04-19T10:06:46.999Z</time></trkpt><trkpt lat="42.925517862638465" lon="10.524262546849998"><ele>28.0</ele><time>2026-04-19T10:06:53.999Z</time></trkpt><trkpt lat="42.92546011535567" lon="10.52433728785487"><ele>28.000000000000004</ele><time>2026-04-19T10:06:56.999Z</time></trkpt><trkpt lat="42.92543488748791" lon="10.52441688048009"><ele>28.0</ele><time>2026-04-19T10:06:59.999Z</time></trkpt><trkpt lat="42.92541769291101" lon="10.524508858595777"><ele>28.0</ele><time>2026-04-19T10:07:02.999Z</time></trkpt><trkpt lat="42.92539586614571" lon="10.524616515147542"><ele>28.0</ele><time>2026-04-19T10:07:05.999Z</time></trkpt><trkpt lat="42.92534016102247" lon="10.524703907865803"><ele>28.000000000000004</ele><time>2026-04-19T10:07:09.999Z</time></trkpt><trkpt lat="42.92525725437023" lon="10.52467868816827"><ele>28.0</ele><time>2026-04-19T10:07:12.999Z</time></trkpt><trkpt lat="42.925175594433384" lon="10.52467161611484"><ele>27.666666666666668</ele><time>2026-04-19T10:07:15.999Z</time></trkpt><trkpt lat="42.92510436907687" lon="10.524641754509062"><ele>27.333333333333336</ele><time>2026-04-19T10:07:18.999Z</time></trkpt><trkpt lat="42.92503320663461" lon="10.524617599338884"><ele>27.0</ele><time>2026-04-19T10:07:21.999Z</time></trkpt><trkpt lat="42.92495885018558" lon="10.524561407626084"><ele>26.666666666666664</ele><time>2026-04-19T10:07:25Z</time></trkpt><trkpt lat="42.924872394763966" lon="10.524533515232378"><ele>26.333333333333332</ele><time>2026-04-19T10:07:28Z</time></trkpt><trkpt lat="42.92479223753816" lon="10.524511961068804"><ele>26.0</ele><time>2026-04-19T10:07:31Z</time></trkpt><trkpt lat="42.92471648804421" lon="10.524490670303182"><ele>26.0</ele><time>2026-04-19T10:07:34Z</time></trkpt><trkpt lat="42.92465758877287" lon="10.524451546790088"><ele>26.0</ele><time>2026-04-19T10:07:37Z</time></trkpt><trkpt lat="42.92458143564446" lon="10.524433414087186"><ele>26.0</ele><time>2026-04-19T10:07:40Z</time></trkpt><trkpt lat="42.924505875145954" lon="10.524409096508231"><ele>26.0</ele><time>2026-04-19T10:07:44Z</time></trkpt><trkpt lat="42.924435373440126" lon="10.524437023596871"><ele>26.0</ele><time>2026-04-19T10:07:49Z</time></trkpt><trkpt lat="42.92437076560294" lon="10.524400489945217"><ele>26.0</ele><time>2026-04-19T10:07:52Z</time></trkpt><trkpt lat="42.92430903364246" lon="10.524340321960906"><ele>26.0</ele><time>2026-04-19T10:07:56Z</time></trkpt><trkpt lat="42.9242325281396" lon="10.524299726167484"><ele>26.166666666666664</ele><time>2026-04-19T10:07:59Z</time></trkpt><trkpt lat="42.92416687392571" lon="10.524270144049709"><ele>26.333333333333332</ele><time>2026-04-19T10:08:02Z</time></trkpt><trkpt lat="42.92409600694409" lon="10.524325459605022"><ele>26.5</ele><time>2026-04-19T10:08:05Z</time></trkpt><trkpt lat="42.92407017224989" lon="10.524443539431534"><ele>26.666666666666664</ele><time>2026-04-19T10:08:08Z</time></trkpt><trkpt lat="42.924045158342075" lon="10.524525673225893"><ele>26.833333333333332</ele><time>2026-04-19T10:08:11Z</time></trkpt><trkpt lat="42.92405466582603" lon="10.524629234434785"><ele>27.0</ele><time>2026-04-19T10:08:14Z</time></trkpt><trkpt lat="42.92403754264599" lon="10.524724749764664"><ele>26.5</ele><time>2026-04-19T10:08:17Z</time></trkpt><trkpt lat="42.92403036616979" lon="10.524828266190692"><ele>26.0</ele><time>2026-04-19T10:08:20Z</time></trkpt><trkpt lat="42.92403800893202" lon="10.524928039839748"><ele>25.5</ele><time>2026-04-19T10:08:23Z</time></trkpt><trkpt lat="42.92400540369975" lon="10.525018692947503"><ele>25.0</ele><time>2026-04-19T10:08:27Z</time></trkpt><trkpt lat="42.92395643924388" lon="10.52511956670583"><ele>24.5</ele><time>2026-04-19T10:08:30Z</time></trkpt><trkpt lat="42.92397253423118" lon="10.525227167627138"><ele>24.0</ele><time>2026-04-19T10:08:34Z</time></trkpt><trkpt lat="42.923941657336705" lon="10.525335423687345"><ele>23.5</ele><time>2026-04-19T10:08:37Z</time></trkpt><trkpt lat="42.92393763327567" lon="10.525445690672974"><ele>23.0</ele><time>2026-04-19T10:08:40Z</time></trkpt><trkpt lat="42.92392699820437" lon="10.525543915277316"><ele>22.5</ele><time>2026-04-19T10:08:43Z</time></trkpt><trkpt lat="42.92387715062278" lon="10.525651516690052"><ele>22.0</ele><time>2026-04-19T10:08:46Z</time></trkpt><trkpt lat="42.92383343503978" lon="10.525723287844137"><ele>21.5</ele><time>2026-04-19T10:08:48.999Z</time></trkpt><trkpt lat="42.92374688265365" lon="10.525714597864745"><ele>21.0</ele><time>2026-04-19T10:08:52.999Z</time></trkpt><trkpt lat="42.923668942970174" lon="10.525746353318484"><ele>21.0</ele><time>2026-04-19T10:08:56.999Z</time></trkpt><trkpt lat="42.92362248382113" lon="10.525837991984234"><ele>21.0</ele><time>2026-04-19T10:08:59.999Z</time></trkpt><trkpt lat="42.923592087989725" lon="10.52595137461129"><ele>21.0</ele><time>2026-04-19T10:09:02.999Z</time></trkpt><trkpt lat="42.9235719957207" lon="10.526035531615738"><ele>21.0</ele><time>2026-04-19T10:09:05.999Z</time></trkpt><trkpt lat="42.92354788682223" lon="10.52613091672011"><ele>21.0</ele><time>2026-04-19T10:09:08.999Z</time></trkpt><trkpt lat="42.92352638855674" lon="10.526227757457361"><ele>21.0</ele><time>2026-04-19T10:09:11.999Z</time></trkpt><trkpt lat="42.923512710241496" lon="10.526334290994296"><ele>21.5</ele><time>2026-04-19T10:09:14.999Z</time></trkpt><trkpt lat="42.92343841951332" lon="10.526380506968884"><ele>22.0</ele><time>2026-04-19T10:09:20.999Z</time></trkpt><trkpt lat="42.92341199170903" lon="10.526485451083879"><ele>22.5</ele><time>2026-04-19T10:09:24.999Z</time></trkpt><trkpt lat="42.923418826672616" lon="10.52658399067869"><ele>23.0</ele><time>2026-04-19T10:09:28.999Z</time></trkpt><trkpt lat="42.92341532822652" lon="10.526699866908515"><ele>23.5</ele><time>2026-04-19T10:09:33Z</time></trkpt><trkpt lat="42.92343406000186" lon="10.526783981529649"><ele>24.0</ele><time>2026-04-19T10:09:36Z</time></trkpt><trkpt lat="42.923463488558966" lon="10.526865181978073"><ele>24.0</ele><time>2026-04-19T10:09:39Z</time></trkpt><trkpt lat="42.92350835766859" lon="10.526959004103746"><ele>24.0</ele><time>2026-04-19T10:09:43Z</time></trkpt><trkpt lat="42.92355080792585" lon="10.527031046216639"><ele>24.0</ele><time>2026-04-19T10:09:46Z</time></trkpt><trkpt lat="42.92358918217034" lon="10.527113758707179"><ele>24.0</ele><time>2026-04-19T10:09:49Z</time></trkpt><trkpt lat="42.9236385027669" lon="10.527201005858233"><ele>24.0</ele><time>2026-04-19T10:09:53Z</time></trkpt><trkpt lat="42.92366084708699" lon="10.527308219965452"><ele>24.0</ele><time>2026-04-19T10:09:56Z</time></trkpt><trkpt lat="42.92367759302391" lon="10.5274146225082"><ele>23.71428571428571</ele><time>2026-04-19T10:10:00Z</time></trkpt><trkpt lat="42.9236494649884" lon="10.527509226390386"><ele>23.428571428571427</ele><time>2026-04-19T10:10:03Z</time></trkpt><trkpt lat="42.92358330045688" lon="10.527561816998325"><ele>23.142857142857142</ele><time>2026-04-19T10:10:06Z</time></trkpt><trkpt lat="42.92351974259543" lon="10.527617199586723"><ele>22.857142857142854</ele><time>2026-04-19T10:10:09Z</time></trkpt><trkpt lat="42.92348807423306" lon="10.527700384660823"><ele>22.57142857142857</ele><time>2026-04-19T10:10:12Z</time></trkpt><trkpt lat="42.92345888119895" lon="10.527796187604515"><ele>22.285714285714285</ele><time>2026-04-19T10:10:15Z</time></trkpt><trkpt lat="42.92344519553251" lon="10.527883849939096"><ele>22.0</ele><time>2026-04-19T10:10:18Z</time></trkpt><trkpt lat="42.923388509525395" lon="10.527981380648587"><ele>22.0</ele><time>2026-04-19T10:10:22Z</time></trkpt><trkpt lat="42.92333399960164" lon="10.528081767642153"><ele>22.0</ele><time>2026-04-19T10:10:25Z</time></trkpt><trkpt lat="42.92329742554096" lon="10.528165338468124"><ele>22.0</ele><time>2026-04-19T10:10:28Z</time></trkpt><trkpt lat="42.923256269672315" lon="10.528249930381955"><ele>22.0</ele><time>2026-04-19T10:10:31Z</time></trkpt><trkpt lat="42.92323360631215" lon="10.528342961106086"><ele>22.0</ele><time>2026-04-19T10:10:34Z</time></trkpt><trkpt lat="42.92321375750687" lon="10.528426930876403"><ele>22.0</ele><time>2026-04-19T10:10:37Z</time></trkpt><trkpt lat="42.923167060124" lon="10.528514573049753"><ele>22.0</ele><time>2026-04-19T10:10:40Z</time></trkpt><trkpt lat="42.92312432733843" lon="10.528591698456923"><ele>22.0</ele><time>2026-04-19T10:10:43Z</time></trkpt><trkpt lat="42.92310199356687" lon="10.528701215099234"><ele>22.0</ele><time>2026-04-19T10:10:46Z</time></trkpt><trkpt lat="42.923062236534136" lon="10.528798958589586"><ele>22.0</ele><time>2026-04-19T10:10:49Z</time></trkpt><trkpt lat="42.92302096290621" lon="10.52886814349733"><ele>22.0</ele><time>2026-04-19T10:10:52Z</time></trkpt><trkpt lat="42.92297164986365" lon="10.52893045511771"><ele>22.0</ele><time>2026-04-19T10:10:55Z</time></trkpt><trkpt lat="42.92294187340985" lon="10.529008637268308"><ele>22.0</ele><time>2026-04-19T10:10:58Z</time></trkpt><trkpt lat="42.922888895468795" lon="10.529085422020502"><ele>22.0</ele><time>2026-04-19T10:11:01Z</time></trkpt><trkpt lat="42.922871631329514" lon="10.529174124467882"><ele>22.0</ele><time>2026-04-19T10:11:03.999Z</time></trkpt><trkpt lat="42.92285635226282" lon="10.529268341970342"><ele>22.0</ele><time>2026-04-19T10:11:06.999Z</time></trkpt><trkpt lat="42.92281432209686" lon="10.529351086625862"><ele>22.0</ele><time>2026-04-19T10:11:09.999Z</time></trkpt><trkpt lat="42.92277947092271" lon="10.529443077145016"><ele>22.0</ele><time>2026-04-19T10:11:12.999Z</time></trkpt><trkpt lat="42.92272810336978" lon="10.52954082211508"><ele>22.0</ele><time>2026-04-19T10:11:15.999Z</time></trkpt><trkpt lat="42.92268037817878" lon="10.529620705882147"><ele>21.666666666666664</ele><time>2026-04-19T10:11:18.999Z</time></trkpt><trkpt lat="42.9226490589518" lon="10.529708199647677"><ele>21.333333333333332</ele><time>2026-04-19T10:11:21.999Z</time></trkpt><trkpt lat="42.92260599657954" lon="10.52980754979121"><ele>21.0</ele><time>2026-04-19T10:11:24.999Z</time></trkpt><trkpt lat="42.922580496340444" lon="10.529906565388625"><ele>20.666666666666668</ele><time>2026-04-19T10:11:27.999Z</time></trkpt><trkpt lat="42.92254858599052" lon="10.530003713796253"><ele>20.333333333333336</ele><time>2026-04-19T10:11:30.999Z</time></trkpt><trkpt lat="42.922515973905234" lon="10.530099978632336"><ele>20.0</ele><time>2026-04-19T10:11:33.999Z</time></trkpt><trkpt lat="42.92246656326889" lon="10.530169913383702"><ele>20.57142857142857</ele><time>2026-04-19T10:11:37Z</time></trkpt><trkpt lat="42.92242006685567" lon="10.530239275484632"><ele>21.142857142857142</ele><time>2026-04-19T10:11:40Z</time></trkpt><trkpt lat="42.92236109661806" lon="10.530298339338314"><ele>21.714285714285715</ele><time>2026-04-19T10:11:44Z</time></trkpt><trkpt lat="42.92232120714834" lon="10.530381385182313"><ele>22.285714285714285</ele><time>2026-04-19T10:11:47Z</time></trkpt><trkpt lat="42.92229513537602" lon="10.530485201353587"><ele>22.857142857142858</ele><time>2026-04-19T10:11:50Z</time></trkpt><trkpt lat="42.92226787548278" lon="10.53058482469732"><ele>23.428571428571427</ele><time>2026-04-19T10:11:53Z</time></trkpt><trkpt lat="42.92224546230661" lon="10.53067920434276"><ele>24.0</ele><time>2026-04-19T10:11:56Z</time></trkpt><trkpt lat="42.922218271730046" lon="10.530764943987053"><ele>23.999999999999996</ele><time>2026-04-19T10:11:59Z</time></trkpt><trkpt lat="42.92216130157036" lon="10.530822179474997"><ele>24.0</ele><time>2026-04-19T10:12:02Z</time></trkpt><trkpt lat="42.92212446953715" lon="10.530893109145778"><ele>24.0</ele><time>2026-04-19T10:12:04Z</time></trkpt><trkpt lat="42.922057905111636" lon="10.530966261428441"><ele>24.0</ele><time>2026-04-19T10:12:08Z</time></trkpt><trkpt lat="42.92202484624746" lon="10.531049498383652"><ele>24.0</ele><time>2026-04-19T10:12:11Z</time></trkpt><trkpt lat="42.92201221116143" lon="10.531136901490283"><ele>23.999999999999996</ele><time>2026-04-19T10:12:13Z</time></trkpt><trkpt lat="42.92199750120067" lon="10.531239192941776"><ele>24.0</ele><time>2026-04-19T10:12:16Z</time></trkpt><trkpt lat="42.9219529089776" lon="10.531338643468404"><ele>24.0</ele><time>2026-04-19T10:12:19Z</time></trkpt><trkpt lat="42.92191837853482" lon="10.531442568521765"><ele>24.0</ele><time>2026-04-19T10:12:23Z</time></trkpt><trkpt lat="42.92184030402327" lon="10.531457180448436"><ele>24.0</ele><time>2026-04-19T10:12:27Z</time></trkpt><trkpt lat="42.92180602614583" lon="10.531352546538182"><ele>24.0</ele><time>2026-04-19T10:12:31Z</time></trkpt><trkpt lat="42.921797379855256" lon="10.531250818152364"><ele>24.0</ele><time>2026-04-19T10:12:35Z</time></trkpt><trkpt lat="42.921778609346696" lon="10.531154502564071"><ele>24.0</ele><time>2026-04-19T10:12:38Z</time></trkpt><trkpt lat="42.921768889756564" lon="10.531047173190792"><ele>24.0</ele><time>2026-04-19T10:12:42Z</time></trkpt><trkpt lat="42.92179211890392" lon="10.530942328234502"><ele>24.0</ele><time>2026-04-19T10:12:46Z</time></trkpt><trkpt lat="42.921798930617285" lon="10.53084824126589"><ele>24.0</ele><time>2026-04-19T10:12:49Z</time></trkpt><trkpt lat="42.92182483086118" lon="10.530748066387849"><ele>24.0</ele><time>2026-04-19T10:12:53Z</time></trkpt><trkpt lat="42.92185375699205" lon="10.530651240155459"><ele>24.0</ele><time>2026-04-19T10:12:56Z</time></trkpt><trkpt lat="42.9218920942233" lon="10.530540626400247"><ele>24.0</ele><time>2026-04-19T10:12:59.999Z</time></trkpt><trkpt lat="42.92192805738097" lon="10.53044895784552"><ele>24.285714285714285</ele><time>2026-04-19T10:13:02.999Z</time></trkpt><trkpt lat="42.92194844414059" lon="10.530358434456836"><ele>24.57142857142857</ele><time>2026-04-19T10:13:05.999Z</time></trkpt><trkpt lat="42.92199155741889" lon="10.530272910662847"><ele>24.857142857142854</ele><time>2026-04-19T10:13:08.999Z</time></trkpt><trkpt lat="42.922019304604625" lon="10.53018119062669"><ele>25.142857142857142</ele><time>2026-04-19T10:13:11.999Z</time></trkpt><trkpt lat="42.92200903880714" lon="10.530072925546152"><ele>25.42857142857143</ele><time>2026-04-19T10:13:14.999Z</time></trkpt><trkpt lat="42.921968249435956" lon="10.529991554389403"><ele>25.71428571428571</ele><time>2026-04-19T10:13:17.999Z</time></trkpt><trkpt lat="42.92190381753069" lon="10.529962995969608"><ele>26.0</ele><time>2026-04-19T10:13:21.999Z</time></trkpt><trkpt lat="42.9218220588513" lon="10.529934783931544"><ele>25.999999999999996</ele><time>2026-04-19T10:13:25.999Z</time></trkpt><trkpt lat="42.92175258084919" lon="10.529880909418432"><ele>26.0</ele><time>2026-04-19T10:13:29.999Z</time></trkpt><trkpt lat="42.92171692688661" lon="10.529797765735363"><ele>26.0</ele><time>2026-04-19T10:13:32.999Z</time></trkpt><trkpt lat="42.92163717748992" lon="10.529742317495268"><ele>26.0</ele><time>2026-04-19T10:13:35.999Z</time></trkpt><trkpt lat="42.92155798034744" lon="10.529742603429924"><ele>25.999999999999996</ele><time>2026-04-19T10:13:39.999Z</time></trkpt><trkpt lat="42.921496688217395" lon="10.52972150833903"><ele>26.0</ele><time>2026-04-19T10:13:43Z</time></trkpt><trkpt lat="42.92148450148107" lon="10.529615644488588"><ele>26.285714285714285</ele><time>2026-04-19T10:13:47Z</time></trkpt><trkpt lat="42.921472595638846" lon="10.529524398142959"><ele>26.571428571428573</ele><time>2026-04-19T10:13:50Z</time></trkpt><trkpt lat="42.92147602457096" lon="10.529418765272514"><ele>26.857142857142858</ele><time>2026-04-19T10:13:53Z</time></trkpt><trkpt lat="42.92147402767648" lon="10.529330189773143"><ele>27.142857142857142</ele><time>2026-04-19T10:13:56Z</time></trkpt><trkpt lat="42.92146565821364" lon="10.529238778763874"><ele>27.42857142857143</ele><time>2026-04-19T10:13:59Z</time></trkpt><trkpt lat="42.92146948647374" lon="10.52914094557763"><ele>27.714285714285715</ele><time>2026-04-19T10:14:02Z</time></trkpt><trkpt lat="42.921471095364055" lon="10.529042485094532"><ele>28.0</ele><time>2026-04-19T10:14:05Z</time></trkpt><trkpt lat="42.9214684368289" lon="10.528939138630989"><ele>28.0</ele><time>2026-04-19T10:14:08Z</time></trkpt><trkpt lat="42.92147842873733" lon="10.5288234389688"><ele>28.0</ele><time>2026-04-19T10:14:12Z</time></trkpt><trkpt lat="42.921480935891566" lon="10.528721750713807"><ele>28.0</ele><time>2026-04-19T10:14:15Z</time></trkpt><trkpt lat="42.921494332838556" lon="10.528625550374496"><ele>28.0</ele><time>2026-04-19T10:14:18Z</time></trkpt><trkpt lat="42.92151526394275" lon="10.528540499352035"><ele>28.0</ele><time>2026-04-19T10:14:21Z</time></trkpt><trkpt lat="42.921523575318005" lon="10.528447470392452"><ele>28.0</ele><time>2026-04-19T10:14:24Z</time></trkpt><trkpt lat="42.92152521499057" lon="10.528346668876663"><ele>28.0</ele><time>2026-04-19T10:14:27Z</time></trkpt><trkpt lat="42.92155092197239" lon="10.528264967705404"><ele>27.428571428571427</ele><time>2026-04-19T10:14:30Z</time></trkpt><trkpt lat="42.92157376229329" lon="10.528177358711673"><ele>26.857142857142858</ele><time>2026-04-19T10:14:33Z</time></trkpt><trkpt lat="42.92159371760225" lon="10.528088954896127"><ele>26.285714285714285</ele><time>2026-04-19T10:14:36Z</time></trkpt><trkpt lat="42.921635556585535" lon="10.52799617204562"><ele>25.714285714285715</ele><time>2026-04-19T10:14:39Z</time></trkpt><trkpt lat="42.921698937446756" lon="10.5279352614346"><ele>25.142857142857142</ele><time>2026-04-19T10:14:43Z</time></trkpt><trkpt lat="42.921760247742846" lon="10.527864109722094"><ele>24.57142857142857</ele><time>2026-04-19T10:14:47Z</time></trkpt><trkpt lat="42.92177739707078" lon="10.527781392159737"><ele>24.0</ele><time>2026-04-19T10:14:49Z</time></trkpt><trkpt lat="42.921837379919936" lon="10.52771483070323"><ele>23.999999999999996</ele><time>2026-04-19T10:14:52Z</time></trkpt><trkpt lat="42.921874750551886" lon="10.527632637885182"><ele>24.0</ele><time>2026-04-19T10:14:55Z</time></trkpt><trkpt lat="42.92189963039733" lon="10.527546970357879"><ele>24.0</ele><time>2026-04-19T10:14:57Z</time></trkpt><trkpt lat="42.92193516016271" lon="10.527471999430533"><ele>24.0</ele><time>2026-04-19T10:15:00Z</time></trkpt><trkpt lat="42.92193634595903" lon="10.527379082982467"><ele>24.0</ele><time>2026-04-19T10:15:02Z</time></trkpt><trkpt lat="42.92198678234574" lon="10.527280382849028"><ele>23.999999999999996</ele><time>2026-04-19T10:15:05Z</time></trkpt><trkpt lat="42.92201767635467" lon="10.527166086145932"><ele>24.0</ele><time>2026-04-19T10:15:08Z</time></trkpt><trkpt lat="42.922053035041436" lon="10.527062050194049"><ele>23.333333333333332</ele><time>2026-04-19T10:15:11Z</time></trkpt><trkpt lat="42.92209876266174" lon="10.526967205506567"><ele>22.666666666666668</ele><time>2026-04-19T10:15:13.999Z</time></trkpt><trkpt lat="42.922156877794556" lon="10.526887403141595"><ele>22.0</ele><time>2026-04-19T10:15:16.999Z</time></trkpt><trkpt lat="42.922129566263386" lon="10.52678461195551"><ele>21.333333333333336</ele><time>2026-04-19T10:15:19.999Z</time></trkpt><trkpt lat="42.92208431768065" lon="10.52669780217784"><ele>20.666666666666668</ele><time>2026-04-19T10:15:21.999Z</time></trkpt><trkpt lat="42.92203143690695" lon="10.526617501015346"><ele>20.0</ele><time>2026-04-19T10:15:24.999Z</time></trkpt><trkpt lat="42.92194686800458" lon="10.526585915441569"><ele>20.0</ele><time>2026-04-19T10:15:27.999Z</time></trkpt><trkpt lat="42.92187892704965" lon="10.526543805265673"><ele>20.0</ele><time>2026-04-19T10:15:30.999Z</time></trkpt><trkpt lat="42.92181178620896" lon="10.526475037485735"><ele>20.0</ele><time>2026-04-19T10:15:34.999Z</time></trkpt><trkpt lat="42.92174921698203" lon="10.526403825468186"><ele>20.0</ele><time>2026-04-19T10:15:38.999Z</time></trkpt><trkpt lat="42.92168461741313" lon="10.52641228894284"><ele>20.0</ele><time>2026-04-19T10:15:40.999Z</time></trkpt><trkpt lat="42.92160517002688" lon="10.52642799434403"><ele>20.0</ele><time>2026-04-19T10:15:42.999Z</time></trkpt><trkpt lat="42.921536408922165" lon="10.526459793915102"><ele>20.0</ele><time>2026-04-19T10:15:44.999Z</time></trkpt><trkpt lat="42.921493759474224" lon="10.52653995705997"><ele>20.0</ele><time>2026-04-19T10:15:48Z</time></trkpt><trkpt lat="42.92151667602774" lon="10.526626469147546"><ele>20.0</ele><time>2026-04-19T10:15:51Z</time></trkpt><trkpt lat="42.92145793793868" lon="10.526691491953942"><ele>20.0</ele><time>2026-04-19T10:15:55Z</time></trkpt><trkpt lat="42.92141087018238" lon="10.52678164313625"><ele>20.0</ele><time>2026-04-19T10:15:59Z</time></trkpt><trkpt lat="42.92139577102453" lon="10.526882238026005"><ele>20.0</ele><time>2026-04-19T10:16:03Z</time></trkpt><trkpt lat="42.921408109347546" lon="10.526968951712695"><ele>20.0</ele><time>2026-04-19T10:16:06Z</time></trkpt><trkpt lat="42.92137976175771" lon="10.527074061850039"><ele>20.0</ele><time>2026-04-19T10:16:10Z</time></trkpt><trkpt lat="42.921371095684314" lon="10.527178521803199"><ele>20.0</ele><time>2026-04-19T10:16:14Z</time></trkpt><trkpt lat="42.921364168966505" lon="10.527287974169948"><ele>20.0</ele><time>2026-04-19T10:16:18Z</time></trkpt><trkpt lat="42.921366150667616" lon="10.527385474085676"><ele>20.0</ele><time>2026-04-19T10:16:21Z</time></trkpt><trkpt lat="42.92135181354479" lon="10.527471700533303"><ele>20.0</ele><time>2026-04-19T10:16:24Z</time></trkpt><trkpt lat="42.92135360851955" lon="10.527580786490505"><ele>20.0</ele><time>2026-04-19T10:16:28Z</time></trkpt><trkpt lat="42.92135687742644" lon="10.52768347014266"><ele>20.0</ele><time>2026-04-19T10:16:32Z</time></trkpt><trkpt lat="42.921352238583694" lon="10.527783081845474"><ele>20.0</ele><time>2026-04-19T10:16:36Z</time></trkpt><trkpt lat="42.92134638739725" lon="10.527883788945283"><ele>20.0</ele><time>2026-04-19T10:16:40Z</time></trkpt><trkpt lat="42.921343488011225" lon="10.527977493013971"><ele>20.0</ele><time>2026-04-19T10:16:44Z</time></trkpt><trkpt lat="42.921324296913866" lon="10.528076849227133"><ele>20.0</ele><time>2026-04-19T10:16:48Z</time></trkpt><trkpt lat="42.92131292673896" lon="10.528179118108037"><ele>20.0</ele><time>2026-04-19T10:16:53Z</time></trkpt><trkpt lat="42.92130162897781" lon="10.528263831878846"><ele>20.0</ele><time>2026-04-19T10:16:56Z</time></trkpt><trkpt lat="42.92126907145498" lon="10.528366665269544"><ele>20.0</ele><time>2026-04-19T10:17:00Z</time></trkpt><trkpt lat="42.92126172251439" lon="10.528473326073739"><ele>20.428571428571427</ele><time>2026-04-19T10:17:04Z</time></trkpt><trkpt lat="42.9212865718218" lon="10.528564920088607"><ele>20.857142857142858</ele><time>2026-04-19T10:17:08Z</time></trkpt><trkpt lat="42.921308827599894" lon="10.528647748447593"><ele>21.285714285714285</ele><time>2026-04-19T10:17:14Z</time></trkpt><trkpt lat="42.92132434753795" lon="10.528748943669667"><ele>21.714285714285715</ele><time>2026-04-19T10:17:17.999Z</time></trkpt><trkpt lat="42.921321188530506" lon="10.528864498765675"><ele>22.142857142857142</ele><time>2026-04-19T10:17:21.999Z</time></trkpt><trkpt lat="42.921321142378346" lon="10.5289534203686"><ele>22.571428571428573</ele><time>2026-04-19T10:17:24.999Z</time></trkpt><trkpt lat="42.92132088992474" lon="10.529066136177896"><ele>23.0</ele><time>2026-04-19T10:17:27.999Z</time></trkpt><trkpt lat="42.921311470724476" lon="10.52917779153534"><ele>23.833333333333336</ele><time>2026-04-19T10:17:31.999Z</time></trkpt><trkpt lat="42.92128479175265" lon="10.529270031174665"><ele>24.666666666666668</ele><time>2026-04-19T10:17:34.999Z</time></trkpt><trkpt lat="42.92126216333032" lon="10.529385550247426"><ele>25.5</ele><time>2026-04-19T10:17:39.999Z</time></trkpt><trkpt lat="42.92123670840929" lon="10.529478399985303"><ele>26.333333333333336</ele><time>2026-04-19T10:17:42.999Z</time></trkpt><trkpt lat="42.9212427321979" lon="10.529576725021874"><ele>27.166666666666668</ele><time>2026-04-19T10:17:46.999Z</time></trkpt><trkpt lat="42.921212026763435" lon="10.529698760620112"><ele>28.0</ele><time>2026-04-19T10:17:49.999Z</time></trkpt><trkpt lat="42.92119121218189" lon="10.529806479797402"><ele>28.333333333333336</ele><time>2026-04-19T10:17:53Z</time></trkpt><trkpt lat="42.92117114019774" lon="10.529899544380045"><ele>28.666666666666668</ele><time>2026-04-19T10:17:56Z</time></trkpt><trkpt lat="42.92115350287764" lon="10.530015026710934"><ele>29.0</ele><time>2026-04-19T10:17:59Z</time></trkpt><trkpt lat="42.92113590601895" lon="10.530132769681273"><ele>29.333333333333336</ele><time>2026-04-19T10:18:02Z</time></trkpt><trkpt lat="42.92111741478555" lon="10.53023104083405"><ele>29.666666666666668</ele><time>2026-04-19T10:18:05Z</time></trkpt><trkpt lat="42.92110118213773" lon="10.530336335520541"><ele>30.0</ele><time>2026-04-19T10:18:08Z</time></trkpt><trkpt lat="42.92108314068394" lon="10.530439001121893"><ele>30.166666666666668</ele><time>2026-04-19T10:18:11Z</time></trkpt><trkpt lat="42.9210618718705" lon="10.530533332312213"><ele>30.333333333333336</ele><time>2026-04-19T10:18:14Z</time></trkpt><trkpt lat="42.92104524568459" lon="10.530639485430925"><ele>30.5</ele><time>2026-04-19T10:18:17Z</time></trkpt><trkpt lat="42.921008595257156" lon="10.5307465697333"><ele>30.666666666666668</ele><time>2026-04-19T10:18:20Z</time></trkpt><trkpt lat="42.9209887560856" lon="10.530836453348467"><ele>30.833333333333336</ele><time>2026-04-19T10:18:23Z</time></trkpt><trkpt lat="42.9209397314646" lon="10.530901420860864"><ele>31.0</ele><time>2026-04-19T10:18:26Z</time></trkpt><trkpt lat="42.92091818136578" lon="10.531000091737534"><ele>31.0</ele><time>2026-04-19T10:18:29Z</time></trkpt><trkpt lat="42.92090655502258" lon="10.5310902720493"><ele>31.000000000000004</ele><time>2026-04-19T10:18:32Z</time></trkpt><trkpt lat="42.92088043033218" lon="10.531186443749288"><ele>31.0</ele><time>2026-04-19T10:18:35Z</time></trkpt><trkpt lat="42.92090527062282" lon="10.531290395396912"><ele>31.0</ele><time>2026-04-19T10:18:38Z</time></trkpt><trkpt lat="42.92092163283471" lon="10.53137951430955"><ele>31.000000000000004</ele><time>2026-04-19T10:18:41Z</time></trkpt><trkpt lat="42.9209444685358" lon="10.531466013890944"><ele>31.0</ele><time>2026-04-19T10:18:44Z</time></trkpt><trkpt lat="42.9209645145901" lon="10.53155149027866"><ele>31.0</ele><time>2026-04-19T10:18:47Z</time></trkpt><trkpt lat="42.92098793761943" lon="10.531649558173308"><ele>30.166666666666668</ele><time>2026-04-19T10:18:50Z</time></trkpt><trkpt lat="42.921036906709794" lon="10.531727765675777"><ele>29.333333333333336</ele><time>2026-04-19T10:18:53Z</time></trkpt><trkpt lat="42.92110916101725" lon="10.531741327806827"><ele>28.5</ele><time>2026-04-19T10:18:56Z</time></trkpt><trkpt lat="42.92117189803371" lon="10.53176731545779"><ele>27.666666666666664</ele><time>2026-04-19T10:18:59Z</time></trkpt><trkpt lat="42.92124521988897" lon="10.531766198258932"><ele>26.833333333333332</ele><time>2026-04-19T10:19:02Z</time></trkpt><trkpt lat="42.92133323561793" lon="10.531760418183891"><ele>26.0</ele><time>2026-04-19T10:19:05Z</time></trkpt><trkpt lat="42.92142391676646" lon="10.531772364128049"><ele>25.999999999999996</ele><time>2026-04-19T10:19:09Z</time></trkpt><trkpt lat="42.92148817476981" lon="10.531767993823665"><ele>26.0</ele><time>2026-04-19T10:19:12Z</time></trkpt><trkpt lat="42.92156966628242" lon="10.531790340563061"><ele>26.0</ele><time>2026-04-19T10:19:15Z</time></trkpt><trkpt lat="42.92162452911138" lon="10.531864389217127"><ele>26.0</ele><time>2026-04-19T10:19:18Z</time></trkpt><trkpt lat="42.92165610247075" lon="10.531960473335566"><ele>25.999999999999996</ele><time>2026-04-19T10:19:21Z</time></trkpt><trkpt lat="42.921671505821024" lon="10.532054213281492"><ele>26.0</ele><time>2026-04-19T10:19:24.999Z</time></trkpt><trkpt lat="42.921629708245575" lon="10.532150232039132"><ele>24.999999999999996</ele><time>2026-04-19T10:19:27.999Z</time></trkpt><trkpt lat="42.921595761172625" lon="10.532241023657752"><ele>24.0</ele><time>2026-04-19T10:19:30.999Z</time></trkpt><trkpt lat="42.921553782530026" lon="10.53234071700872"><ele>23.0</ele><time>2026-04-19T10:19:33.999Z</time></trkpt><trkpt lat="42.92151184898897" lon="10.532405673886753"><ele>22.0</ele><time>2026-04-19T10:19:35.999Z</time></trkpt><trkpt lat="42.92146568950234" lon="10.532506280897831"><ele>21.0</ele><time>2026-04-19T10:19:38.999Z</time></trkpt><trkpt lat="42.92143050854192" lon="10.532605524736645"><ele>20.0</ele><time>2026-04-19T10:19:41.999Z</time></trkpt><trkpt lat="42.921384228779544" lon="10.532699861516361"><ele>20.0</ele><time>2026-04-19T10:19:44.999Z</time></trkpt><trkpt lat="42.92133669154029" lon="10.532759079921606"><ele>20.0</ele><time>2026-04-19T10:19:47.999Z</time></trkpt><trkpt lat="42.92131872040258" lon="10.532883108685384"><ele>20.0</ele><time>2026-04-19T10:19:50.999Z</time></trkpt><trkpt lat="42.921266676855936" lon="10.532974550748724"><ele>20.0</ele><time>2026-04-19T10:19:53.999Z</time></trkpt><trkpt lat="42.92122598099115" lon="10.533076293630785"><ele>20.0</ele><time>2026-04-19T10:19:56.999Z</time></trkpt><trkpt lat="42.921179535438355" lon="10.533164433306453"><ele>20.0</ele><time>2026-04-19T10:20:00Z</time></trkpt><trkpt lat="42.921133149542484" lon="10.533263933265568"><ele>19.5</ele><time>2026-04-19T10:20:03Z</time></trkpt><trkpt lat="42.921096417151674" lon="10.5333594312273"><ele>19.0</ele><time>2026-04-19T10:20:06Z</time></trkpt><trkpt lat="42.92105839801119" lon="10.53346528652175"><ele>18.5</ele><time>2026-04-19T10:20:09Z</time></trkpt><trkpt lat="42.921016024807344" lon="10.533559384359858"><ele>18.0</ele><time>2026-04-19T10:20:12Z</time></trkpt><trkpt lat="42.920995282102204" lon="10.533669117492115"><ele>17.5</ele><time>2026-04-19T10:20:15Z</time></trkpt><trkpt lat="42.921062608028485" lon="10.53374037241642"><ele>17.0</ele><time>2026-04-19T10:20:18Z</time></trkpt><trkpt lat="42.9211237837359" lon="10.533795701615372"><ele>16.999999999999996</ele><time>2026-04-19T10:20:21Z</time></trkpt><trkpt lat="42.9211949553215" lon="10.533823753247637"><ele>17.0</ele><time>2026-04-19T10:20:24Z</time></trkpt><trkpt lat="42.92127017088506" lon="10.533780610486389"><ele>17.0</ele><time>2026-04-19T10:20:27Z</time></trkpt><trkpt lat="42.92130453392445" lon="10.533865677630978"><ele>17.0</ele><time>2026-04-19T10:20:31Z</time></trkpt><trkpt lat="42.92136279245691" lon="10.533909339292716"><ele>17.0</ele><time>2026-04-19T10:20:34Z</time></trkpt><trkpt lat="42.92143388229143" lon="10.533949253700692"><ele>16.999999999999996</ele><time>2026-04-19T10:20:37Z</time></trkpt><trkpt lat="42.92150111282087" lon="10.533970385952998"><ele>17.0</ele><time>2026-04-19T10:20:40Z</time></trkpt><trkpt lat="42.9215643785356" lon="10.534027668850678"><ele>16.999999999999996</ele><time>2026-04-19T10:20:43Z</time></trkpt><trkpt lat="42.921617796149825" lon="10.534087686071201"><ele>17.0</ele><time>2026-04-19T10:20:46Z</time></trkpt><trkpt lat="42.921676158313616" lon="10.534124168205075"><ele>17.0</ele><time>2026-04-19T10:20:49Z</time></trkpt><trkpt lat="42.92175227438184" lon="10.534160980113349"><ele>17.0</ele><time>2026-04-19T10:20:52Z</time></trkpt><trkpt lat="42.9218178803726" lon="10.534183839312243"><ele>17.0</ele><time>2026-04-19T10:20:55Z</time></trkpt><trkpt lat="42.92187492580171" lon="10.534241962266"><ele>16.999999999999996</ele><time>2026-04-19T10:20:58Z</time></trkpt><trkpt lat="42.92193771149495" lon="10.534274483556972"><ele>17.0</ele><time>2026-04-19T10:21:01Z</time></trkpt><trkpt lat="42.92201186794895" lon="10.534305592299207"><ele>17.142857142857142</ele><time>2026-04-19T10:21:04Z</time></trkpt><trkpt lat="42.92207183571863" lon="10.534352911186751"><ele>17.285714285714285</ele><time>2026-04-19T10:21:07Z</time></trkpt><trkpt lat="42.92214028925021" lon="10.534383298193742"><ele>17.42857142857143</ele><time>2026-04-19T10:21:10Z</time></trkpt><trkpt lat="42.92220336482266" lon="10.534404387404823"><ele>17.57142857142857</ele><time>2026-04-19T10:21:13Z</time></trkpt><trkpt lat="42.92226656981177" lon="10.534459892836097"><ele>17.714285714285715</ele><time>2026-04-19T10:21:16Z</time></trkpt><trkpt lat="42.92232032462842" lon="10.534538261998359"><ele>17.857142857142858</ele><time>2026-04-19T10:21:20Z</time></trkpt><trkpt lat="42.9223554274048" lon="10.534610407957567"><ele>18.0</ele><time>2026-04-19T10:21:23Z</time></trkpt><trkpt lat="42.92237953587615" lon="10.53469736377076"><ele>18.166666666666668</ele><time>2026-04-19T10:21:27Z</time></trkpt><trkpt lat="42.922361195943346" lon="10.534799860090033"><ele>18.333333333333332</ele><time>2026-04-19T10:21:30Z</time></trkpt><trkpt lat="42.92231662131771" lon="10.53487203147651"><ele>18.5</ele><time>2026-04-19T10:21:32.999Z</time></trkpt><trkpt lat="42.92227228306729" lon="10.534971886435581"><ele>18.666666666666664</ele><time>2026-04-19T10:21:35.999Z</time></trkpt><trkpt lat="42.9222284129173" lon="10.535056988444548"><ele>18.833333333333332</ele><time>2026-04-19T10:21:38.999Z</time></trkpt><trkpt lat="42.92219976711156" lon="10.535145077497997"><ele>19.0</ele><time>2026-04-19T10:21:41.999Z</time></trkpt><trkpt lat="42.92222813231752" lon="10.535239429808295"><ele>19.0</ele><time>2026-04-19T10:21:44.999Z</time></trkpt><trkpt lat="42.922287961072904" lon="10.53531336404003"><ele>19.0</ele><time>2026-04-19T10:21:47.999Z</time></trkpt><trkpt lat="42.922338736500365" lon="10.535378059531489"><ele>19.0</ele><time>2026-04-19T10:21:50.999Z</time></trkpt><trkpt lat="42.9223917882687" lon="10.535446596147947"><ele>19.0</ele><time>2026-04-19T10:21:53.999Z</time></trkpt><trkpt lat="42.92243993201834" lon="10.535507591004576"><ele>19.0</ele><time>2026-04-19T10:21:56.999Z</time></trkpt><trkpt lat="42.92249226172781" lon="10.535568613638556"><ele>19.0</ele><time>2026-04-19T10:21:59.999Z</time></trkpt><trkpt lat="42.92254014915718" lon="10.53562574608849"><ele>19.0</ele><time>2026-04-19T10:22:02.999Z</time></trkpt><trkpt lat="42.92260384756648" lon="10.535703258855458"><ele>19.142857142857142</ele><time>2026-04-19T10:22:07Z</time></trkpt><trkpt lat="42.92266066611582" lon="10.535768301078527"><ele>19.28571428571429</ele><time>2026-04-19T10:22:10Z</time></trkpt><trkpt lat="42.92271064387518" lon="10.535831133431179"><ele>19.42857142857143</ele><time>2026-04-19T10:22:13Z</time></trkpt><trkpt lat="42.922758978120676" lon="10.535894669627696"><ele>19.57142857142857</ele><time>2026-04-19T10:22:16Z</time></trkpt><trkpt lat="42.92281411920451" lon="10.535950955923045"><ele>19.714285714285715</ele><time>2026-04-19T10:22:19Z</time></trkpt><trkpt lat="42.922856050957805" lon="10.536019761876627"><ele>19.857142857142858</ele><time>2026-04-19T10:22:22Z</time></trkpt><trkpt lat="42.922911671882716" lon="10.536086845203359"><ele>20.0</ele><time>2026-04-19T10:22:25Z</time></trkpt><trkpt lat="42.92295909567087" lon="10.536145061003664"><ele>20.0</ele><time>2026-04-19T10:22:28Z</time></trkpt><trkpt lat="42.92300268266772" lon="10.536208253356758"><ele>20.0</ele><time>2026-04-19T10:22:31Z</time></trkpt><trkpt lat="42.92305280550606" lon="10.536270416455373"><ele>20.0</ele><time>2026-04-19T10:22:34Z</time></trkpt><trkpt lat="42.9231185152676" lon="10.536338412449165"><ele>20.0</ele><time>2026-04-19T10:22:38Z</time></trkpt><trkpt lat="42.92316834811402" lon="10.536402891646848"><ele>20.0</ele><time>2026-04-19T10:22:41Z</time></trkpt><trkpt lat="42.923208879948774" lon="10.536469950990634"><ele>20.0</ele><time>2026-04-19T10:22:44Z</time></trkpt><trkpt lat="42.92325470015023" lon="10.53654068144642"><ele>20.0</ele><time>2026-04-19T10:22:47Z</time></trkpt><trkpt lat="42.923292829294155" lon="10.536614319263496"><ele>20.833333333333336</ele><time>2026-04-19T10:22:50Z</time></trkpt><trkpt lat="42.92332634252796" lon="10.536711532827244"><ele>21.666666666666668</ele><time>2026-04-19T10:22:54Z</time></trkpt><trkpt lat="42.923365809093255" lon="10.536793849901247"><ele>22.5</ele><time>2026-04-19T10:22:58Z</time></trkpt><trkpt lat="42.92340533212151" lon="10.53688615747091"><ele>23.333333333333336</ele><time>2026-04-19T10:23:02Z</time></trkpt><trkpt lat="42.923450218580236" lon="10.536978201209083"><ele>24.166666666666668</ele><time>2026-04-19T10:23:06Z</time></trkpt><trkpt lat="42.923493426542734" lon="10.537068839444514"><ele>25.0</ele><time>2026-04-19T10:23:10Z</time></trkpt><trkpt lat="42.92353049377596" lon="10.537157314437339"><ele>25.42857142857143</ele><time>2026-04-19T10:23:14Z</time></trkpt><trkpt lat="42.923578297416206" lon="10.537235906234738"><ele>25.857142857142858</ele><time>2026-04-19T10:23:18Z</time></trkpt><trkpt lat="42.92361449953074" lon="10.537325777745258"><ele>26.285714285714285</ele><time>2026-04-19T10:23:22Z</time></trkpt><trkpt lat="42.923663714564206" lon="10.537397654144051"><ele>26.714285714285715</ele><time>2026-04-19T10:23:26Z</time></trkpt><trkpt lat="42.923706615066514" lon="10.537462960478846"><ele>27.142857142857142</ele><time>2026-04-19T10:23:30Z</time></trkpt><trkpt lat="42.92375057671254" lon="10.537536483905601"><ele>27.571428571428573</ele><time>2026-04-19T10:23:34Z</time></trkpt><trkpt lat="42.92379345364025" lon="10.5376118710786"><ele>28.0</ele><time>2026-04-19T10:23:38Z</time></trkpt><trkpt lat="42.92385022470195" lon="10.537685809339067"><ele>28.000000000000004</ele><time>2026-04-19T10:23:41.999Z</time></trkpt><trkpt lat="42.923890615351986" lon="10.537754810622165"><ele>28.0</ele><time>2026-04-19T10:23:44.999Z</time></trkpt><trkpt lat="42.92394900773146" lon="10.53783315419301"><ele>28.0</ele><time>2026-04-19T10:23:48.999Z</time></trkpt><trkpt lat="42.92401004237356" lon="10.537915047031616"><ele>28.0</ele><time>2026-04-19T10:23:51.999Z</time></trkpt><trkpt lat="42.92404525267385" lon="10.537993279499721"><ele>28.000000000000004</ele><time>2026-04-19T10:23:54.999Z</time></trkpt><trkpt lat="42.924091818908614" lon="10.538092474253046"><ele>28.0</ele><time>2026-04-19T10:23:58.999Z</time></trkpt><trkpt lat="42.92412319276504" lon="10.538199033197948"><ele>27.571428571428573</ele><time>2026-04-19T10:24:02.999Z</time></trkpt><trkpt lat="42.92414349387769" lon="10.538289831950246"><ele>27.142857142857142</ele><time>2026-04-19T10:24:05.999Z</time></trkpt><trkpt lat="42.924170722140474" lon="10.538393932759597"><ele>26.714285714285715</ele><time>2026-04-19T10:24:09.999Z</time></trkpt><trkpt lat="42.92420895060144" lon="10.538481460839995"><ele>26.285714285714285</ele><time>2026-04-19T10:24:14Z</time></trkpt><trkpt lat="42.92423703392205" lon="10.538562537391359"><ele>25.857142857142858</ele><time>2026-04-19T10:24:18Z</time></trkpt><trkpt lat="42.92426853661378" lon="10.538642958340631"><ele>25.42857142857143</ele><time>2026-04-19T10:24:22Z</time></trkpt><trkpt lat="42.92430107577167" lon="10.538725458259103"><ele>25.0</ele><time>2026-04-19T10:24:27Z</time></trkpt><trkpt lat="42.924336568112224" lon="10.53881251259563"><ele>25.000000000000004</ele><time>2026-04-19T10:24:31Z</time></trkpt><trkpt lat="42.92436958340716" lon="10.538903223988056"><ele>25.0</ele><time>2026-04-19T10:24:35Z</time></trkpt><trkpt lat="42.92438257482832" lon="10.538998920480923"><ele>25.0</ele><time>2026-04-19T10:24:38Z</time></trkpt><trkpt lat="42.92437828543159" lon="10.53909543784933"><ele>25.0</ele><time>2026-04-19T10:24:42Z</time></trkpt><trkpt lat="42.9243490450888" lon="10.539178421913263"><ele>25.0</ele><time>2026-04-19T10:24:45Z</time></trkpt><trkpt lat="42.924324400792386" lon="10.539289757782688"><ele>25.000000000000004</ele><time>2026-04-19T10:24:49Z</time></trkpt><trkpt lat="42.92432430848922" lon="10.539377785250508"><ele>25.0</ele><time>2026-04-19T10:24:52Z</time></trkpt><trkpt lat="42.92428581545957" lon="10.53944592699399"><ele>25.000000000000004</ele><time>2026-04-19T10:24:55Z</time></trkpt><trkpt lat="42.924241391058786" lon="10.539524007666955"><ele>25.0</ele><time>2026-04-19T10:24:59Z</time></trkpt><trkpt lat="42.92420104818977" lon="10.539598684554466"><ele>25.0</ele><time>2026-04-19T10:25:02Z</time></trkpt><trkpt lat="42.92414375518889" lon="10.539687786802645"><ele>25.0</ele><time>2026-04-19T10:25:06Z</time></trkpt><trkpt lat="42.92409646982981" lon="10.53975573636351"><ele>25.0</ele><time>2026-04-19T10:25:09Z</time></trkpt><trkpt lat="42.92405200750026" lon="10.539823761730828"><ele>25.000000000000004</ele><time>2026-04-19T10:25:12Z</time></trkpt><trkpt lat="42.92398926806852" lon="10.539871681014377"><ele>25.0</ele><time>2026-04-19T10:25:15Z</time></trkpt><trkpt lat="42.92392664998278" lon="10.539906666872508"><ele>27.0</ele><time>2026-04-19T10:25:18Z</time></trkpt><trkpt lat="42.9238509558269" lon="10.539935504111565"><ele>29.0</ele><time>2026-04-19T10:25:22Z</time></trkpt><trkpt lat="42.92377215109926" lon="10.539924241577761"><ele>31.0</ele><time>2026-04-19T10:25:26Z</time></trkpt><trkpt lat="42.923707602515634" lon="10.539896787473134"><ele>33.0</ele><time>2026-04-19T10:25:29Z</time></trkpt><trkpt lat="42.92363722840967" lon="10.539843855666904"><ele>35.0</ele><time>2026-04-19T10:25:33Z</time></trkpt><trkpt lat="42.92359552102495" lon="10.539773958595298"><ele>37.0</ele><time>2026-04-19T10:25:36Z</time></trkpt><trkpt lat="42.92354982673673" lon="10.539697710338707"><ele>39.0</ele><time>2026-04-19T10:25:39Z</time></trkpt><trkpt lat="42.92352444410136" lon="10.539613335839089"><ele>39.142857142857146</ele><time>2026-04-19T10:25:42Z</time></trkpt><trkpt lat="42.923477886958075" lon="10.539543263471813"><ele>39.285714285714285</ele><time>2026-04-19T10:25:45Z</time></trkpt><trkpt lat="42.92340798546666" lon="10.539479196255892"><ele>39.42857142857143</ele><time>2026-04-19T10:25:48Z</time></trkpt><trkpt lat="42.92334272325866" lon="10.539481582932858"><ele>39.57142857142857</ele><time>2026-04-19T10:25:51Z</time></trkpt><trkpt lat="42.92327747739457" lon="10.539516411425122"><ele>39.714285714285715</ele><time>2026-04-19T10:25:54.999Z</time></trkpt><trkpt lat="42.92321819235041" lon="10.539569268915868"><ele>39.857142857142854</ele><time>2026-04-19T10:25:58.999Z</time></trkpt><trkpt lat="42.923158144736604" lon="10.539630423803834"><ele>40.0</ele><time>2026-04-19T10:26:03.999Z</time></trkpt><trkpt lat="42.92309784651003" lon="10.539687645806405"><ele>42.0</ele><time>2026-04-19T10:26:08.999Z</time></trkpt><trkpt lat="42.923036629064725" lon="10.539738039318415"><ele>44.0</ele><time>2026-04-19T10:26:13.999Z</time></trkpt><trkpt lat="42.922969549628625" lon="10.539789404188266"><ele>46.0</ele><time>2026-04-19T10:26:19Z</time></trkpt><trkpt lat="42.92290863224745" lon="10.539853377458172"><ele>48.0</ele><time>2026-04-19T10:26:24Z</time></trkpt><trkpt lat="42.922869743722195" lon="10.539923505545879"><ele>50.0</ele><time>2026-04-19T10:26:28Z</time></trkpt><trkpt lat="42.922855820385344" lon="10.540014271728037"><ele>52.0</ele><time>2026-04-19T10:26:32Z</time></trkpt><trkpt lat="42.922879823189966" lon="10.540095864957136"><ele>54.0</ele><time>2026-04-19T10:26:36Z</time></trkpt><trkpt lat="42.92292059893383" lon="10.540186691723733"><ele>54.0</ele><time>2026-04-19T10:26:41Z</time></trkpt><trkpt lat="42.9229299527905" lon="10.540284021864922"><ele>54.0</ele><time>2026-04-19T10:26:46Z</time></trkpt><trkpt lat="42.92291995212681" lon="10.540386106295196"><ele>54.0</ele><time>2026-04-19T10:26:50Z</time></trkpt><trkpt lat="42.9229130006521" lon="10.540472856224959"><ele>54.0</ele><time>2026-04-19T10:26:54Z</time></trkpt><trkpt lat="42.92288454764256" lon="10.540551158734738"><ele>54.0</ele><time>2026-04-19T10:26:58Z</time></trkpt><trkpt lat="42.92285918593487" lon="10.540631977897153"><ele>54.0</ele><time>2026-04-19T10:27:02Z</time></trkpt><trkpt lat="42.92284238047403" lon="10.540734354956417"><ele>54.0</ele><time>2026-04-19T10:27:07Z</time></trkpt><trkpt lat="42.92282990745577" lon="10.540820758317972"><ele>54.0</ele><time>2026-04-19T10:27:13Z</time></trkpt><trkpt lat="42.922804026167114" lon="10.540913545017652"><ele>54.0</ele><time>2026-04-19T10:27:20Z</time></trkpt><trkpt lat="42.92278110998445" lon="10.541011357299904"><ele>54.0</ele><time>2026-04-19T10:27:26Z</time></trkpt><trkpt lat="42.92275418217807" lon="10.541100581394598"><ele>54.0</ele><time>2026-04-19T10:27:31.999Z</time></trkpt><trkpt lat="42.92270759409499" lon="10.541178343398602"><ele>54.0</ele><time>2026-04-19T10:27:35.999Z</time></trkpt><trkpt lat="42.92267178350852" lon="10.541249633860053"><ele>54.0</ele><time>2026-04-19T10:27:38.999Z</time></trkpt><trkpt lat="42.92263775107528" lon="10.541335328774538"><ele>54.0</ele><time>2026-04-19T10:27:41.999Z</time></trkpt><trkpt lat="42.92259166556953" lon="10.54143211091513"><ele>54.0</ele><time>2026-04-19T10:27:44.999Z</time></trkpt><trkpt lat="42.92255909424884" lon="10.541518959631498"><ele>54.0</ele><time>2026-04-19T10:27:47.999Z</time></trkpt><trkpt lat="42.922536216165454" lon="10.541606726722222"><ele>54.0</ele><time>2026-04-19T10:27:50.999Z</time></trkpt><trkpt lat="42.922599068905306" lon="10.54163789096853"><ele>54.0</ele><time>2026-04-19T10:27:53.999Z</time></trkpt><trkpt lat="42.92262759705126" lon="10.541548130661646"><ele>54.0</ele><time>2026-04-19T10:27:56.999Z</time></trkpt><trkpt lat="42.922660728766914" lon="10.541446850955657"><ele>54.0</ele><time>2026-04-19T10:28:00.999Z</time></trkpt><trkpt lat="42.92269566824051" lon="10.541358940840542"><ele>54.0</ele><time>2026-04-19T10:28:04.999Z</time></trkpt><trkpt lat="42.92272793724032" lon="10.541284530209394"><ele>54.0</ele><time>2026-04-19T10:28:07.999Z</time></trkpt><trkpt lat="42.922759740994096" lon="10.541209166674468"><ele>54.0</ele><time>2026-04-19T10:28:10.999Z</time></trkpt><trkpt lat="42.922789687165704" lon="10.541124181070238"><ele>54.0</ele><time>2026-04-19T10:28:13.999Z</time></trkpt><trkpt lat="42.92281216823664" lon="10.54103822572161"><ele>54.0</ele><time>2026-04-19T10:28:16.999Z</time></trkpt><trkpt lat="42.922823979856965" lon="10.540945209910726"><ele>54.0</ele><time>2026-04-19T10:28:19.999Z</time></trkpt><trkpt lat="42.92284164473564" lon="10.540852478397746"><ele>54.0</ele><time>2026-04-19T10:28:23Z</time></trkpt><trkpt lat="42.922865924429594" lon="10.540756763206304"><ele>54.0</ele><time>2026-04-19T10:28:26Z</time></trkpt><trkpt lat="42.92288692693452" lon="10.5406750940705"><ele>54.0</ele><time>2026-04-19T10:28:29Z</time></trkpt><trkpt lat="42.92291156544504" lon="10.540582473423093"><ele>54.0</ele><time>2026-04-19T10:28:32Z</time></trkpt><trkpt lat="42.922946718652284" lon="10.540472528399357"><ele>54.0</ele><time>2026-04-19T10:28:36Z</time></trkpt><trkpt lat="42.92295637438829" lon="10.540378897768678"><ele>54.0</ele><time>2026-04-19T10:28:39Z</time></trkpt><trkpt lat="42.92296113772671" lon="10.540279774344151"><ele>54.0</ele><time>2026-04-19T10:28:42Z</time></trkpt><trkpt lat="42.922931835301135" lon="10.540186706765766"><ele>54.0</ele><time>2026-04-19T10:28:45Z</time></trkpt><trkpt lat="42.92291085519296" lon="10.54008189568143"><ele>54.0</ele><time>2026-04-19T10:28:48Z</time></trkpt><trkpt lat="42.92289248285435" lon="10.539974185118224"><ele>54.0</ele><time>2026-04-19T10:28:51Z</time></trkpt><trkpt lat="42.92292214756907" lon="10.539869112239472"><ele>54.0</ele><time>2026-04-19T10:28:54Z</time></trkpt><trkpt lat="42.92298356995807" lon="10.539815476304312"><ele>54.0</ele><time>2026-04-19T10:28:57Z</time></trkpt><trkpt lat="42.92305320503753" lon="10.539751964097563"><ele>54.0</ele><time>2026-04-19T10:29:00Z</time></trkpt><trkpt lat="42.92312356066594" lon="10.539695104945643"><ele>54.0</ele><time>2026-04-19T10:29:03Z</time></trkpt><trkpt lat="42.92317613712143" lon="10.539645701744442"><ele>54.0</ele><time>2026-04-19T10:29:05Z</time></trkpt><trkpt lat="42.923238065908265" lon="10.53957414813278"><ele>54.0</ele><time>2026-04-19T10:29:08Z</time></trkpt><trkpt lat="42.923290970343615" lon="10.539523723165306"><ele>54.0</ele><time>2026-04-19T10:29:10Z</time></trkpt><trkpt lat="42.923368834676445" lon="10.53949178689212"><ele>54.0</ele><time>2026-04-19T10:29:13Z</time></trkpt><trkpt lat="42.92345090350238" lon="10.539521092243831"><ele>54.0</ele><time>2026-04-19T10:29:16Z</time></trkpt><trkpt lat="42.92349964313948" lon="10.539606394618126"><ele>54.0</ele><time>2026-04-19T10:29:19Z</time></trkpt><trkpt lat="42.92354830907354" lon="10.539694885198575"><ele>51.5</ele><time>2026-04-19T10:29:22Z</time></trkpt><trkpt lat="42.923594215883114" lon="10.539785499293234"><ele>49.0</ele><time>2026-04-19T10:29:25Z</time></trkpt><trkpt lat="42.92363836904338" lon="10.539864228231911"><ele>46.5</ele><time>2026-04-19T10:29:28Z</time></trkpt><trkpt lat="42.92370313057196" lon="10.539923075459235"><ele>44.0</ele><time>2026-04-19T10:29:31Z</time></trkpt><trkpt lat="42.923782545776895" lon="10.539930234972182"><ele>41.5</ele><time>2026-04-19T10:29:34Z</time></trkpt><trkpt lat="42.92386600248644" lon="10.539933832610835"><ele>39.0</ele><time>2026-04-19T10:29:37Z</time></trkpt><trkpt lat="42.92393484446763" lon="10.539926526936835"><ele>39.0</ele><time>2026-04-19T10:29:40Z</time></trkpt><trkpt lat="42.92400812249005" lon="10.53987032103841"><ele>39.0</ele><time>2026-04-19T10:29:43Z</time></trkpt><trkpt lat="42.92406172885962" lon="10.53981468094646"><ele>39.0</ele><time>2026-04-19T10:29:46Z</time></trkpt><trkpt lat="42.92411659324201" lon="10.539735732779054"><ele>39.0</ele><time>2026-04-19T10:29:49Z</time></trkpt><trkpt lat="42.92416635050131" lon="10.539658444151796"><ele>39.0</ele><time>2026-04-19T10:29:52Z</time></trkpt><trkpt lat="42.92422051937676" lon="10.53958949823197"><ele>39.0</ele><time>2026-04-19T10:29:55Z</time></trkpt><trkpt lat="42.92426302440415" lon="10.53951376410091"><ele>36.666666666666664</ele><time>2026-04-19T10:29:58Z</time></trkpt><trkpt lat="42.924312656103986" lon="10.539428119187686"><ele>34.333333333333336</ele><time>2026-04-19T10:30:01Z</time></trkpt><trkpt lat="42.9243564772942" lon="10.539337990212267"><ele>32.0</ele><time>2026-04-19T10:30:04Z</time></trkpt><trkpt lat="42.92442194387491" lon="10.539263028672742"><ele>29.666666666666668</ele><time>2026-04-19T10:30:06.999Z</time></trkpt><trkpt lat="42.92446441087888" lon="10.539164073091746"><ele>27.333333333333336</ele><time>2026-04-19T10:30:09.999Z</time></trkpt><trkpt lat="42.92447661162515" lon="10.53904444031386"><ele>25.0</ele><time>2026-04-19T10:30:12.999Z</time></trkpt><trkpt lat="42.92445975203509" lon="10.538941231671068"><ele>25.000000000000004</ele><time>2026-04-19T10:30:15.999Z</time></trkpt><trkpt lat="42.924447294371845" lon="10.53882757737783"><ele>25.0</ele><time>2026-04-19T10:30:18.999Z</time></trkpt><trkpt lat="42.924409331430375" lon="10.538728803493852"><ele>25.0</ele><time>2026-04-19T10:30:21.999Z</time></trkpt><trkpt lat="42.9243653772812" lon="10.53863924005217"><ele>25.0</ele><time>2026-04-19T10:30:24.999Z</time></trkpt><trkpt lat="42.924332492126396" lon="10.538553081734639"><ele>25.000000000000004</ele><time>2026-04-19T10:30:27.999Z</time></trkpt><trkpt lat="42.9242991404166" lon="10.538463121275086"><ele>25.0</ele><time>2026-04-19T10:30:31Z</time></trkpt><trkpt lat="42.92433007812127" lon="10.538386254217682"><ele>25.000000000000004</ele><time>2026-04-19T10:30:35Z</time></trkpt><trkpt lat="42.92439057398466" lon="10.53846949459387"><ele>25.0</ele><time>2026-04-19T10:30:38Z</time></trkpt><trkpt lat="42.92445720452726" lon="10.538522459935638"><ele>25.0</ele><time>2026-04-19T10:30:41Z</time></trkpt><trkpt lat="42.924523215769256" lon="10.53856799634122"><ele>25.0</ele><time>2026-04-19T10:30:44Z</time></trkpt><trkpt lat="42.92459922664538" lon="10.538607231127795"><ele>25.000000000000004</ele><time>2026-04-19T10:30:47Z</time></trkpt><trkpt lat="42.9246608738503" lon="10.53865426545381"><ele>25.0</ele><time>2026-04-19T10:30:50Z</time></trkpt><trkpt lat="42.924728848029865" lon="10.53869816647065"><ele>25.000000000000004</ele><time>2026-04-19T10:30:53Z</time></trkpt><trkpt lat="42.92480390820385" lon="10.538731139736997"><ele>25.0</ele><time>2026-04-19T10:30:56Z</time></trkpt><trkpt lat="42.92487683816029" lon="10.538766917062807"><ele>25.0</ele><time>2026-04-19T10:30:59Z</time></trkpt><trkpt lat="42.92493382461056" lon="10.538819605123557"><ele>25.0</ele><time>2026-04-19T10:31:02Z</time></trkpt><trkpt lat="42.924994851745666" lon="10.538895882128111"><ele>25.000000000000004</ele><time>2026-04-19T10:31:05Z</time></trkpt><trkpt lat="42.92502520815506" lon="10.538996326320584"><ele>25.0</ele><time>2026-04-19T10:31:08Z</time></trkpt><trkpt lat="42.92509502134129" lon="10.538999779583923"><ele>24.000000000000004</ele><time>2026-04-19T10:31:11Z</time></trkpt><trkpt lat="42.9251330522265" lon="10.538916535321802"><ele>23.0</ele><time>2026-04-19T10:31:14Z</time></trkpt><trkpt lat="42.9252163780829" lon="10.538943365739058"><ele>22.0</ele><time>2026-04-19T10:31:18Z</time></trkpt><trkpt lat="42.92527407109019" lon="10.538984539357054"><ele>21.0</ele><time>2026-04-19T10:31:21Z</time></trkpt><trkpt lat="42.925335988659164" lon="10.539017399275576"><ele>20.0</ele><time>2026-04-19T10:31:23Z</time></trkpt><trkpt lat="42.925401399232896" lon="10.53905419603214"><ele>19.000000000000004</ele><time>2026-04-19T10:31:26Z</time></trkpt><trkpt lat="42.9254714654998" lon="10.539073847129416"><ele>18.0</ele><time>2026-04-19T10:31:28Z</time></trkpt><trkpt lat="42.92553828708159" lon="10.539121539506729"><ele>18.000000000000004</ele><time>2026-04-19T10:31:31Z</time></trkpt><trkpt lat="42.9256109822722" lon="10.539171482522887"><ele>18.0</ele><time>2026-04-19T10:31:34Z</time></trkpt><trkpt lat="42.925679457357006" lon="10.539203289735754"><ele>18.0</ele><time>2026-04-19T10:31:37Z</time></trkpt><trkpt lat="42.92570426310617" lon="10.539297642832693"><ele>18.0</ele><time>2026-04-19T10:31:40Z</time></trkpt><trkpt lat="42.9257292519142" lon="10.539387538800042"><ele>18.0</ele><time>2026-04-19T10:31:43Z</time></trkpt><trkpt lat="42.92573872635626" lon="10.539483330576154"><ele>18.000000000000004</ele><time>2026-04-19T10:31:46Z</time></trkpt><trkpt lat="42.92575485735946" lon="10.539578403063778"><ele>18.0</ele><time>2026-04-19T10:31:49Z</time></trkpt><trkpt lat="42.92577744235572" lon="10.539679998224528"><ele>17.833333333333332</ele><time>2026-04-19T10:31:52Z</time></trkpt><trkpt lat="42.92578817354561" lon="10.53979598814039"><ele>17.666666666666668</ele><time>2026-04-19T10:31:55Z</time></trkpt><trkpt lat="42.92580937229015" lon="10.539900945415987"><ele>17.5</ele><time>2026-04-19T10:31:58Z</time></trkpt><trkpt lat="42.92583161671126" lon="10.540000245903347"><ele>17.333333333333336</ele><time>2026-04-19T10:32:01Z</time></trkpt><trkpt lat="42.9258456989283" lon="10.540098623560926"><ele>17.166666666666668</ele><time>2026-04-19T10:32:04Z</time></trkpt><trkpt lat="42.92586411353933" lon="10.540188282456649"><ele>17.0</ele><time>2026-04-19T10:32:07Z</time></trkpt><trkpt lat="42.92590513124242" lon="10.540262856687436"><ele>15.833333333333334</ele><time>2026-04-19T10:32:10Z</time></trkpt><trkpt lat="42.92593398768422" lon="10.540359356659064"><ele>14.666666666666668</ele><time>2026-04-19T10:32:12.999Z</time></trkpt><trkpt lat="42.92596023598636" lon="10.540444174095805"><ele>13.5</ele><time>2026-04-19T10:32:15.999Z</time></trkpt><trkpt lat="42.92598833837185" lon="10.540535736384323"><ele>12.333333333333334</ele><time>2026-04-19T10:32:18.999Z</time></trkpt><trkpt lat="42.926013910997916" lon="10.54063474440159"><ele>11.166666666666668</ele><time>2026-04-19T10:32:21.999Z</time></trkpt><trkpt lat="42.926047670568636" lon="10.540719786089914"><ele>10.0</ele><time>2026-04-19T10:32:24.999Z</time></trkpt><trkpt lat="42.92609061590376" lon="10.540825587517197"><ele>10.0</ele><time>2026-04-19T10:32:28.999Z</time></trkpt><trkpt lat="42.926115950125016" lon="10.540927155695941"><ele>10.0</ele><time>2026-04-19T10:32:31.999Z</time></trkpt><trkpt lat="42.926146922187726" lon="10.541026700303739"><ele>10.0</ele><time>2026-04-19T10:32:35Z</time></trkpt><trkpt lat="42.926165177390466" lon="10.54112764272683"><ele>10.0</ele><time>2026-04-19T10:32:38Z</time></trkpt><trkpt lat="42.92619762456874" lon="10.541233740510885"><ele>10.0</ele><time>2026-04-19T10:32:41Z</time></trkpt><trkpt lat="42.92622919922434" lon="10.541328007626268"><ele>10.0</ele><time>2026-04-19T10:32:44Z</time></trkpt><trkpt lat="42.92625455493761" lon="10.541416931936652"><ele>10.428571428571429</ele><time>2026-04-19T10:32:47Z</time></trkpt><trkpt lat="42.92624456403388" lon="10.541520603628685"><ele>10.857142857142858</ele><time>2026-04-19T10:32:50Z</time></trkpt><trkpt lat="42.92622553941359" lon="10.541614876202816"><ele>11.285714285714285</ele><time>2026-04-19T10:32:53Z</time></trkpt><trkpt lat="42.92620191803052" lon="10.541718634423695"><ele>11.714285714285715</ele><time>2026-04-19T10:32:56Z</time></trkpt><trkpt lat="42.926171448573825" lon="10.541813486893467"><ele>12.142857142857144</ele><time>2026-04-19T10:32:59Z</time></trkpt><trkpt lat="42.92613979724641" lon="10.541911021240608"><ele>12.571428571428571</ele><time>2026-04-19T10:33:02Z</time></trkpt><trkpt lat="42.926109814045454" lon="10.541993923303131"><ele>13.0</ele><time>2026-04-19T10:33:05Z</time></trkpt><trkpt lat="42.92609192455397" lon="10.542112938793926"><ele>13.0</ele><time>2026-04-19T10:33:08Z</time></trkpt><trkpt lat="42.926164101497235" lon="10.542150642660049"><ele>13.0</ele><time>2026-04-19T10:33:11Z</time></trkpt><trkpt lat="42.92623026460896" lon="10.542160179565574"><ele>13.0</ele><time>2026-04-19T10:33:14Z</time></trkpt><trkpt lat="42.926267121762876" lon="10.542089666987428"><ele>13.0</ele><time>2026-04-19T10:33:16Z</time></trkpt><trkpt lat="42.926335529568554" lon="10.542112146533047"><ele>13.0</ele><time>2026-04-19T10:33:20Z</time></trkpt><trkpt lat="42.926387999221895" lon="10.542197095361416"><ele>13.0</ele><time>2026-04-19T10:33:23Z</time></trkpt><trkpt lat="42.92644688531494" lon="10.542130710647086"><ele>13.0</ele><time>2026-04-19T10:33:27Z</time></trkpt><trkpt lat="42.926492454137126" lon="10.542036614234275"><ele>12.999999999999998</ele><time>2026-04-19T10:33:31Z</time></trkpt><trkpt lat="42.926575487731526" lon="10.542033507322245"><ele>13.0</ele><time>2026-04-19T10:33:34Z</time></trkpt><trkpt lat="42.926623350332505" lon="10.542111211951314"><ele>13.0</ele><time>2026-04-19T10:33:37Z</time></trkpt><trkpt lat="42.92667804937577" lon="10.542180441810132"><ele>13.0</ele><time>2026-04-19T10:33:40Z</time></trkpt><trkpt lat="42.92672577282523" lon="10.54225303527535"><ele>12.999999999999998</ele><time>2026-04-19T10:33:43Z</time></trkpt><trkpt lat="42.926784761538286" lon="10.54233914939315"><ele>13.0</ele><time>2026-04-19T10:33:46Z</time></trkpt><trkpt lat="42.926829627038664" lon="10.542414374311925"><ele>12.666666666666666</ele><time>2026-04-19T10:33:49Z</time></trkpt><trkpt lat="42.92690174033598" lon="10.542495105297341"><ele>12.333333333333332</ele><time>2026-04-19T10:33:52Z</time></trkpt><trkpt lat="42.92695874362308" lon="10.542593788880446"><ele>12.0</ele><time>2026-04-19T10:33:56Z</time></trkpt><trkpt lat="42.92700615072772" lon="10.542669234319897"><ele>11.666666666666666</ele><time>2026-04-19T10:33:59Z</time></trkpt><trkpt lat="42.92705404170888" lon="10.542748434412356"><ele>11.333333333333332</ele><time>2026-04-19T10:34:02Z</time></trkpt><trkpt lat="42.92711387606906" lon="10.542810640747732"><ele>11.0</ele><time>2026-04-19T10:34:05Z</time></trkpt><trkpt lat="42.927168877079055" lon="10.542881289644537"><ele>11.0</ele><time>2026-04-19T10:34:08Z</time></trkpt><trkpt lat="42.92722067355847" lon="10.542960842446844"><ele>11.0</ele><time>2026-04-19T10:34:11Z</time></trkpt><trkpt lat="42.92727276498245" lon="10.543036957360872"><ele>11.0</ele><time>2026-04-19T10:34:14Z</time></trkpt><trkpt lat="42.92732913372444" lon="10.543110287316747"><ele>11.0</ele><time>2026-04-19T10:34:17Z</time></trkpt><trkpt lat="42.92737804229315" lon="10.543198889084483"><ele>11.0</ele><time>2026-04-19T10:34:20Z</time></trkpt><trkpt lat="42.927434080367235" lon="10.543275111396138"><ele>11.0</ele><time>2026-04-19T10:34:22.999Z</time></trkpt><trkpt lat="42.92749696877375" lon="10.543352865880628"><ele>11.0</ele><time>2026-04-19T10:34:25.999Z</time></trkpt><trkpt lat="42.92755107144881" lon="10.543428015898847"><ele>11.0</ele><time>2026-04-19T10:34:28.999Z</time></trkpt><trkpt lat="42.92759302574083" lon="10.543497804604346"><ele>11.0</ele><time>2026-04-19T10:34:31.999Z</time></trkpt><trkpt lat="42.9276423487247" lon="10.543577423662251"><ele>11.0</ele><time>2026-04-19T10:34:34.999Z</time></trkpt><trkpt lat="42.92769198632263" lon="10.54366240246789"><ele>11.0</ele><time>2026-04-19T10:34:37.999Z</time></trkpt><trkpt lat="42.92773501226167" lon="10.543741900183234"><ele>11.0</ele><time>2026-04-19T10:34:41Z</time></trkpt><trkpt lat="42.927764733261895" lon="10.543836374250043"><ele>11.0</ele><time>2026-04-19T10:34:44Z</time></trkpt><trkpt lat="42.92780144993861" lon="10.54393187262901"><ele>10.428571428571429</ele><time>2026-04-19T10:34:47Z</time></trkpt><trkpt lat="42.92783758787604" lon="10.544026503152743"><ele>9.857142857142858</ele><time>2026-04-19T10:34:50Z</time></trkpt><trkpt lat="42.927860614251806" lon="10.544132498151699"><ele>9.285714285714285</ele><time>2026-04-19T10:34:53Z</time></trkpt><trkpt lat="42.927890473695335" lon="10.544223262040822"><ele>8.714285714285715</ele><time>2026-04-19T10:34:56Z</time></trkpt><trkpt lat="42.92791251142824" lon="10.544325787619112"><ele>8.142857142857142</ele><time>2026-04-19T10:34:59Z</time></trkpt><trkpt lat="42.9279331693287" lon="10.544411983848672"><ele>7.571428571428571</ele><time>2026-04-19T10:35:02Z</time></trkpt><trkpt lat="42.92795057017166" lon="10.544495629550207"><ele>7.0</ele><time>2026-04-19T10:35:05Z</time></trkpt><trkpt lat="42.92796332138988" lon="10.544594540738549"><ele>6.500000000000001</ele><time>2026-04-19T10:35:08Z</time></trkpt><trkpt lat="42.92797797688576" lon="10.544699581165965"><ele>6.0</ele><time>2026-04-19T10:35:11Z</time></trkpt><trkpt lat="42.92800829947949" lon="10.544785769822024"><ele>5.5</ele><time>2026-04-19T10:35:14Z</time></trkpt><trkpt lat="42.92802738094863" lon="10.544888791966706"><ele>5.0</ele><time>2026-04-19T10:35:17Z</time></trkpt><trkpt lat="42.9280394129866" lon="10.545003905807826"><ele>4.5</ele><time>2026-04-19T10:35:20Z</time></trkpt><trkpt lat="42.928064470089666" lon="10.545092054743387"><ele>4.0</ele><time>2026-04-19T10:35:23Z</time></trkpt><trkpt lat="42.928085695884555" lon="10.545198684364182"><ele>3.9999999999999996</ele><time>2026-04-19T10:35:26Z</time></trkpt><trkpt lat="42.92810716272398" lon="10.545301906348538"><ele>4.0</ele><time>2026-04-19T10:35:29Z</time></trkpt><trkpt lat="42.92812095219884" lon="10.545397189128936"><ele>4.0</ele><time>2026-04-19T10:35:32Z</time></trkpt><trkpt lat="42.9281890782425" lon="10.545442631428148"><ele>4.0</ele><time>2026-04-19T10:35:35Z</time></trkpt><trkpt lat="42.928265680113405" lon="10.545405173924358"><ele>3.9999999999999996</ele><time>2026-04-19T10:35:39Z</time></trkpt><trkpt lat="42.92829877820788" lon="10.545296590705243"><ele>4.0</ele><time>2026-04-19T10:35:43Z</time></trkpt><trkpt lat="42.92827560844645" lon="10.545214877611032"><ele>3.9999999999999996</ele><time>2026-04-19T10:35:47Z</time></trkpt><trkpt lat="42.92823518788053" lon="10.545133487445007"><ele>4.0</ele><time>2026-04-19T10:35:51Z</time></trkpt><trkpt lat="42.92822212083817" lon="10.545014340452278"><ele>4.0</ele><time>2026-04-19T10:35:56Z</time></trkpt><trkpt lat="42.92821727637602" lon="10.544926078299762"><ele>4.0</ele><time>2026-04-19T10:35:59Z</time></trkpt><trkpt lat="42.928196990024134" lon="10.544842800346736"><ele>3.9999999999999996</ele><time>2026-04-19T10:36:02Z</time></trkpt><trkpt lat="42.92817587111746" lon="10.54473673353716"><ele>4.0</ele><time>2026-04-19T10:36:06Z</time></trkpt><trkpt lat="42.92816308942442" lon="10.544626204431308"><ele>4.428571428571429</ele><time>2026-04-19T10:36:10Z</time></trkpt><trkpt lat="42.928145146251445" lon="10.544542403251876"><ele>4.857142857142857</ele><time>2026-04-19T10:36:13Z</time></trkpt><trkpt lat="42.928134705523945" lon="10.54445565072501"><ele>5.285714285714286</ele><time>2026-04-19T10:36:16Z</time></trkpt><trkpt lat="42.92811587289141" lon="10.544369261571177"><ele>5.714285714285714</ele><time>2026-04-19T10:36:19Z</time></trkpt><trkpt lat="42.928082264530666" lon="10.544278926969271"><ele>6.142857142857142</ele><time>2026-04-19T10:36:22Z</time></trkpt><trkpt lat="42.92807015161836" lon="10.54418892875962"><ele>6.571428571428571</ele><time>2026-04-19T10:36:25Z</time></trkpt><trkpt lat="42.92804219031795" lon="10.544081839772403"><ele>7.0</ele><time>2026-04-19T10:36:29Z</time></trkpt><trkpt lat="42.92802103663367" lon="10.543979127315842"><ele>7.0</ele><time>2026-04-19T10:36:32.999Z</time></trkpt><trkpt lat="42.927975286686014" lon="10.543883685547945"><ele>7.0</ele><time>2026-04-19T10:36:36.999Z</time></trkpt><trkpt lat="42.9279370339262" lon="10.543787420545495"><ele>7.0</ele><time>2026-04-19T10:36:40.999Z</time></trkpt><trkpt lat="42.927902475408935" lon="10.54371423536111"><ele>7.0</ele><time>2026-04-19T10:36:43.999Z</time></trkpt><trkpt lat="42.92786753615628" lon="10.543628040337472"><ele>7.0</ele><time>2026-04-19T10:36:48Z</time></trkpt><trkpt lat="42.92783991791333" lon="10.543548954915394"><ele>7.0</ele><time>2026-04-19T10:36:52Z</time></trkpt><trkpt lat="42.92779943082441" lon="10.543471381393815"><ele>7.0</ele><time>2026-04-19T10:36:56Z</time></trkpt><trkpt lat="42.92776545089478" lon="10.543396840476122"><ele>6.833333333333334</ele><time>2026-04-19T10:37:00Z</time></trkpt><trkpt lat="42.927713748671" lon="10.543325705347973"><ele>6.666666666666667</ele><time>2026-04-19T10:37:04Z</time></trkpt><trkpt lat="42.9276615701284" lon="10.543233091049693"><ele>6.5</ele><time>2026-04-19T10:37:08Z</time></trkpt><trkpt lat="42.92761423835968" lon="10.543165818932039"><ele>6.333333333333334</ele><time>2026-04-19T10:37:12Z</time></trkpt><trkpt lat="42.9275593955101" lon="10.543103781572912"><ele>6.166666666666667</ele><time>2026-04-19T10:37:16Z</time></trkpt><trkpt lat="42.9275068819276" lon="10.543022855125766"><ele>6.0</ele><time>2026-04-19T10:37:20Z</time></trkpt><trkpt lat="42.92745703660746" lon="10.542951530675058"><ele>6.571428571428571</ele><time>2026-04-19T10:37:24Z</time></trkpt><trkpt lat="42.92740509410998" lon="10.542875023008135"><ele>7.142857142857142</ele><time>2026-04-19T10:37:28Z</time></trkpt><trkpt lat="42.92735908341094" lon="10.542812137213456"><ele>7.7142857142857135</ele><time>2026-04-19T10:37:31Z</time></trkpt><trkpt lat="42.92730737542099" lon="10.542747410974615"><ele>8.285714285714285</ele><time>2026-04-19T10:37:35Z</time></trkpt><trkpt lat="42.92726093109339" lon="10.542665592678128"><ele>8.857142857142858</ele><time>2026-04-19T10:37:39Z</time></trkpt><trkpt lat="42.927207177620254" lon="10.542591720573448"><ele>9.428571428571429</ele><time>2026-04-19T10:37:42Z</time></trkpt><trkpt lat="42.92715044387621" lon="10.542505261470714"><ele>10.0</ele><time>2026-04-19T10:37:46Z</time></trkpt><trkpt lat="42.92709250508272" lon="10.542418327463407"><ele>10.0</ele><time>2026-04-19T10:37:50Z</time></trkpt><trkpt lat="42.92702522365565" lon="10.542335765914878"><ele>10.0</ele><time>2026-04-19T10:37:54Z</time></trkpt><trkpt lat="42.92696525423672" lon="10.542259224900814"><ele>10.0</ele><time>2026-04-19T10:37:58Z</time></trkpt><trkpt lat="42.92690807815802" lon="10.542176541993399"><ele>10.0</ele><time>2026-04-19T10:38:02Z</time></trkpt><trkpt lat="42.92685636789646" lon="10.542104339059726"><ele>10.0</ele><time>2026-04-19T10:38:05Z</time></trkpt><trkpt lat="42.92680022318935" lon="10.54203747087017"><ele>10.0</ele><time>2026-04-19T10:38:08Z</time></trkpt><trkpt lat="42.926751272191375" lon="10.541967645000861"><ele>10.428571428571429</ele><time>2026-04-19T10:38:11Z</time></trkpt><trkpt lat="42.92670223845991" lon="10.541906714800895"><ele>10.857142857142858</ele><time>2026-04-19T10:38:14Z</time></trkpt><trkpt lat="42.92665751724135" lon="10.541843124798664"><ele>11.285714285714285</ele><time>2026-04-19T10:38:17Z</time></trkpt><trkpt lat="42.92662736891827" lon="10.541762774068266"><ele>11.714285714285715</ele><time>2026-04-19T10:38:20Z</time></trkpt><trkpt lat="42.92659846257949" lon="10.541680184319539"><ele>12.142857142857144</ele><time>2026-04-19T10:38:23Z</time></trkpt><trkpt lat="42.92656059435207" lon="10.541586796616068"><ele>12.571428571428571</ele><time>2026-04-19T10:38:27Z</time></trkpt><trkpt lat="42.92649067002992" lon="10.541551575351983"><ele>13.0</ele><time>2026-04-19T10:38:30Z</time></trkpt><trkpt lat="42.926428838618364" lon="10.541528594724298"><ele>13.0</ele><time>2026-04-19T10:38:33Z</time></trkpt><trkpt lat="42.92634985194113" lon="10.541484281010584"><ele>13.0</ele><time>2026-04-19T10:38:37Z</time></trkpt><trkpt lat="42.92630362985713" lon="10.541419522300183"><ele>13.0</ele><time>2026-04-19T10:38:39.999Z</time></trkpt><trkpt lat="42.9262645554022" lon="10.541324365197166"><ele>13.0</ele><time>2026-04-19T10:38:43.999Z</time></trkpt><trkpt lat="42.92622875104215" lon="10.5412377689237"><ele>13.0</ele><time>2026-04-19T10:38:46.999Z</time></trkpt><trkpt lat="42.92618901885782" lon="10.541157570761872"><ele>13.0</ele><time>2026-04-19T10:38:51Z</time></trkpt><trkpt lat="42.92616001297498" lon="10.541070238247862"><ele>13.0</ele><time>2026-04-19T10:38:54Z</time></trkpt><trkpt lat="42.92613096056421" lon="10.540959999074074"><ele>12.571428571428571</ele><time>2026-04-19T10:38:58Z</time></trkpt><trkpt lat="42.926099762900996" lon="10.54086982903397"><ele>12.142857142857144</ele><time>2026-04-19T10:39:02Z</time></trkpt><trkpt lat="42.92607226050548" lon="10.54077318809675"><ele>11.714285714285715</ele><time>2026-04-19T10:39:06Z</time></trkpt><trkpt lat="42.92605813686855" lon="10.540689009559747"><ele>11.285714285714285</ele><time>2026-04-19T10:39:10Z</time></trkpt><trkpt lat="42.92601768955427" lon="10.540596911325371"><ele>10.857142857142858</ele><time>2026-04-19T10:39:14Z</time></trkpt><trkpt lat="42.92598846197565" lon="10.540506247974335"><ele>10.428571428571429</ele><time>2026-04-19T10:39:17Z</time></trkpt><trkpt lat="42.925958163095096" lon="10.540423116721088"><ele>10.0</ele><time>2026-04-19T10:39:20Z</time></trkpt><trkpt lat="42.92593099239642" lon="10.540329861993447"><ele>9.666666666666668</ele><time>2026-04-19T10:39:24Z</time></trkpt><trkpt lat="42.92589561033166" lon="10.54023427395906"><ele>9.333333333333334</ele><time>2026-04-19T10:39:28Z</time></trkpt><trkpt lat="42.92586080599768" lon="10.540159181931672"><ele>9.0</ele><time>2026-04-19T10:39:31Z</time></trkpt><trkpt lat="42.92585431642767" lon="10.540066892971078"><ele>8.666666666666666</ele><time>2026-04-19T10:39:34Z</time></trkpt><trkpt lat="42.925833855427555" lon="10.539952250373162"><ele>8.333333333333332</ele><time>2026-04-19T10:39:38Z</time></trkpt><trkpt lat="42.92582207502167" lon="10.539841507189186"><ele>8.0</ele><time>2026-04-19T10:39:42Z</time></trkpt><trkpt lat="42.925795917644244" lon="10.539736074296295"><ele>9.5</ele><time>2026-04-19T10:39:46Z</time></trkpt><trkpt lat="42.92577821442526" lon="10.539638393713057"><ele>11.0</ele><time>2026-04-19T10:39:50Z</time></trkpt><trkpt lat="42.92576729537107" lon="10.539545619090017"><ele>12.5</ele><time>2026-04-19T10:39:54Z</time></trkpt><trkpt lat="42.92574418673754" lon="10.53944127086236"><ele>14.0</ele><time>2026-04-19T10:39:58Z</time></trkpt><trkpt lat="42.9257217741402" lon="10.539330125204298"><ele>15.500000000000002</ele><time>2026-04-19T10:40:02Z</time></trkpt><trkpt lat="42.92571385844471" lon="10.539220840166204"><ele>17.0</ele><time>2026-04-19T10:40:06Z</time></trkpt><trkpt lat="42.92567878819014" lon="10.539142694724438"><ele>16.999999999999996</ele><time>2026-04-19T10:40:09Z</time></trkpt><trkpt lat="42.925655597449854" lon="10.539047116433684"><ele>17.0</ele><time>2026-04-19T10:40:13Z</time></trkpt><trkpt lat="42.92561637295989" lon="10.53894869943174"><ele>17.0</ele><time>2026-04-19T10:40:17Z</time></trkpt><trkpt lat="42.92558600897728" lon="10.5388628108214"><ele>17.0</ele><time>2026-04-19T10:40:20Z</time></trkpt><trkpt lat="42.9255558503383" lon="10.53878289601816"><ele>17.0</ele><time>2026-04-19T10:40:23Z</time></trkpt><trkpt lat="42.925520833526136" lon="10.538697541496989"><ele>16.999999999999996</ele><time>2026-04-19T10:40:26Z</time></trkpt><trkpt lat="42.925494232570315" lon="10.538614261060948"><ele>17.0</ele><time>2026-04-19T10:40:29Z</time></trkpt><trkpt lat="42.92543539189728" lon="10.538577368717746"><ele>16.999999999999996</ele><time>2026-04-19T10:40:32Z</time></trkpt><trkpt lat="42.92537077411506" lon="10.538556265763566"><ele>17.0</ele><time>2026-04-19T10:40:35Z</time></trkpt><trkpt lat="42.92530699924783" lon="10.53853364996862"><ele>17.0</ele><time>2026-04-19T10:40:38Z</time></trkpt><trkpt lat="42.925226406903576" lon="10.5385057308183"><ele>17.0</ele><time>2026-04-19T10:40:42Z</time></trkpt><trkpt lat="42.925178022490115" lon="10.538438022039305"><ele>17.0</ele><time>2026-04-19T10:40:45Z</time></trkpt><trkpt lat="42.9251264486145" lon="10.538378253524854"><ele>16.999999999999996</ele><time>2026-04-19T10:40:47.999Z</time></trkpt><trkpt lat="42.92508324225654" lon="10.53830538028074"><ele>17.0</ele><time>2026-04-19T10:40:50.999Z</time></trkpt><trkpt lat="42.925033273565795" lon="10.538219477482158"><ele>17.999999999999996</ele><time>2026-04-19T10:40:54.999Z</time></trkpt><trkpt lat="42.92498553346358" lon="10.53813334173584"><ele>19.0</ele><time>2026-04-19T10:40:59Z</time></trkpt><trkpt lat="42.924932790745" lon="10.538073657019968"><ele>20.0</ele><time>2026-04-19T10:41:03Z</time></trkpt><trkpt lat="42.924875897902524" lon="10.538009936597355"><ele>21.0</ele><time>2026-04-19T10:41:07Z</time></trkpt><trkpt lat="42.92481550436869" lon="10.537944207888648"><ele>22.0</ele><time>2026-04-19T10:41:11Z</time></trkpt><trkpt lat="42.924769260479636" lon="10.537881193181798"><ele>22.999999999999996</ele><time>2026-04-19T10:41:14Z</time></trkpt><trkpt lat="42.924710308065244" lon="10.537798410461615"><ele>24.0</ele><time>2026-04-19T10:41:17Z</time></trkpt><trkpt lat="42.92467148061273" lon="10.53772940750986"><ele>24.0</ele><time>2026-04-19T10:41:21Z</time></trkpt><trkpt lat="42.92462525287579" lon="10.537646906550766"><ele>24.0</ele><time>2026-04-19T10:41:25Z</time></trkpt><trkpt lat="42.92456967853761" lon="10.537599724970107"><ele>24.0</ele><time>2026-04-19T10:41:28Z</time></trkpt><trkpt lat="42.92452879674494" lon="10.537516156535021"><ele>24.0</ele><time>2026-04-19T10:41:31Z</time></trkpt><trkpt lat="42.92450543463285" lon="10.53741488169051"><ele>24.0</ele><time>2026-04-19T10:41:34Z</time></trkpt><trkpt lat="42.92446500877823" lon="10.537309854961997"><ele>24.0</ele><time>2026-04-19T10:41:37Z</time></trkpt><trkpt lat="42.9244489195951" lon="10.537204870284329"><ele>23.999999999999996</ele><time>2026-04-19T10:41:40Z</time></trkpt><trkpt lat="42.924436580725086" lon="10.537107023906987"><ele>24.0</ele><time>2026-04-19T10:41:43Z</time></trkpt><trkpt lat="42.92444035248972" lon="10.537002303975246"><ele>24.0</ele><time>2026-04-19T10:41:46Z</time></trkpt><trkpt lat="42.924429683165954" lon="10.536906456524047"><ele>24.0</ele><time>2026-04-19T10:41:49Z</time></trkpt><trkpt lat="42.924432600215596" lon="10.536810098186118"><ele>24.0</ele><time>2026-04-19T10:41:52Z</time></trkpt><trkpt lat="42.92443573472141" lon="10.53670832433097"><ele>23.999999999999996</ele><time>2026-04-19T10:41:55Z</time></trkpt><trkpt lat="42.924442534609064" lon="10.536620854394892"><ele>24.0</ele><time>2026-04-19T10:41:58Z</time></trkpt><trkpt lat="42.92444406994332" lon="10.536515675496071"><ele>23.57142857142857</ele><time>2026-04-19T10:42:01Z</time></trkpt><trkpt lat="42.92444765784255" lon="10.536418572957414"><ele>23.142857142857142</ele><time>2026-04-19T10:42:04Z</time></trkpt><trkpt lat="42.92444339520839" lon="10.53630485047496"><ele>22.714285714285715</ele><time>2026-04-19T10:42:08Z</time></trkpt><trkpt lat="42.924437225225674" lon="10.536217355983405"><ele>22.285714285714285</ele><time>2026-04-19T10:42:11Z</time></trkpt><trkpt lat="42.92443267545523" lon="10.536129591942224"><ele>21.857142857142858</ele><time>2026-04-19T10:42:14Z</time></trkpt><trkpt lat="42.92448041189916" lon="10.536030794234021"><ele>21.428571428571427</ele><time>2026-04-19T10:42:19Z</time></trkpt><trkpt lat="42.924541051811005" lon="10.535977985523253"><ele>21.0</ele><time>2026-04-19T10:42:22Z</time></trkpt><trkpt lat="42.92457691060299" lon="10.53588206266826"><ele>20.5</ele><time>2026-04-19T10:42:25Z</time></trkpt><trkpt lat="42.92458635655639" lon="10.535787909875454"><ele>20.0</ele><time>2026-04-19T10:42:29Z</time></trkpt><trkpt lat="42.924595735052215" lon="10.53569495363402"><ele>19.5</ele><time>2026-04-19T10:42:32Z</time></trkpt><trkpt lat="42.92459309527788" lon="10.535594446732159"><ele>19.0</ele><time>2026-04-19T10:42:35Z</time></trkpt><trkpt lat="42.92459429335664" lon="10.535479480044975"><ele>18.5</ele><time>2026-04-19T10:42:38Z</time></trkpt><trkpt lat="42.92459548364933" lon="10.535383669310704"><ele>18.0</ele><time>2026-04-19T10:42:41Z</time></trkpt><trkpt lat="42.92459086037534" lon="10.535266152618778"><ele>17.666666666666668</ele><time>2026-04-19T10:42:45Z</time></trkpt><trkpt lat="42.924586283324636" lon="10.53516331753834"><ele>17.333333333333332</ele><time>2026-04-19T10:42:48Z</time></trkpt><trkpt lat="42.924555279539554" lon="10.535052062107038"><ele>17.0</ele><time>2026-04-19T10:42:52Z</time></trkpt><trkpt lat="42.924578308784824" lon="10.534967283630511"><ele>16.666666666666664</ele><time>2026-04-19T10:42:55.999Z</time></trkpt><trkpt lat="42.92459564426403" lon="10.534877377213059"><ele>16.333333333333332</ele><time>2026-04-19T10:42:58.999Z</time></trkpt><trkpt lat="42.92460965425529" lon="10.534762394683549"><ele>16.0</ele><time>2026-04-19T10:43:03Z</time></trkpt><trkpt lat="42.924607477031934" lon="10.534666011174187"><ele>15.999999999999998</ele><time>2026-04-19T10:43:06Z</time></trkpt><trkpt lat="42.92457659579351" lon="10.534581564658085"><ele>16.0</ele><time>2026-04-19T10:43:08Z</time></trkpt><trkpt lat="42.92454323073348" lon="10.534471797198691"><ele>16.0</ele><time>2026-04-19T10:43:11Z</time></trkpt><trkpt lat="42.92453872404191" lon="10.53437117417763"><ele>16.0</ele><time>2026-04-19T10:43:13Z</time></trkpt><trkpt lat="42.924528268382886" lon="10.534248661465236"><ele>15.999999999999998</ele><time>2026-04-19T10:43:17Z</time></trkpt><trkpt lat="42.924531549734795" lon="10.534143213701904"><ele>16.0</ele><time>2026-04-19T10:43:20Z</time></trkpt><trkpt lat="42.92449555246744" lon="10.53403318699403"><ele>15.999999999999998</ele><time>2026-04-19T10:43:24Z</time></trkpt><trkpt lat="42.92449769427959" lon="10.533928996785466"><ele>16.0</ele><time>2026-04-19T10:43:27Z</time></trkpt><trkpt lat="42.924486171411864" lon="10.533813716526549"><ele>16.0</ele><time>2026-04-19T10:43:30Z</time></trkpt><trkpt lat="42.9245160089054" lon="10.533697004220132"><ele>16.0</ele><time>2026-04-19T10:43:33Z</time></trkpt><trkpt lat="42.924524992361135" lon="10.533595457212533"><ele>15.999999999999998</ele><time>2026-04-19T10:43:36Z</time></trkpt><trkpt lat="42.92453673229044" lon="10.533491952300631"><ele>16.0</ele><time>2026-04-19T10:43:39Z</time></trkpt><trkpt lat="42.92453753088521" lon="10.533375819150466"><ele>16.142857142857142</ele><time>2026-04-19T10:43:43Z</time></trkpt><trkpt lat="42.92452772031884" lon="10.533287727440973"><ele>16.285714285714285</ele><time>2026-04-19T10:43:46Z</time></trkpt><trkpt lat="42.92453544639834" lon="10.533201918209716"><ele>16.428571428571427</ele><time>2026-04-19T10:43:49Z</time></trkpt><trkpt lat="42.92455702215484" lon="10.5330982385455"><ele>16.57142857142857</ele><time>2026-04-19T10:43:52Z</time></trkpt><trkpt lat="42.92459582133804" lon="10.533003588728588"><ele>16.714285714285715</ele><time>2026-04-19T10:43:55Z</time></trkpt><trkpt lat="42.92458790486388" lon="10.532906876589669"><ele>16.857142857142854</ele><time>2026-04-19T10:43:57Z</time></trkpt><trkpt lat="42.924582404604124" lon="10.53280213574373"><ele>17.0</ele><time>2026-04-19T10:44:00Z</time></trkpt><trkpt lat="42.92460384387399" lon="10.532702200668977"><ele>17.0</ele><time>2026-04-19T10:44:04Z</time></trkpt><trkpt lat="42.92458233788642" lon="10.532592719032719"><ele>17.0</ele><time>2026-04-19T10:44:07Z</time></trkpt><trkpt lat="42.92456748725034" lon="10.532484897671178"><ele>17.0</ele><time>2026-04-19T10:44:10Z</time></trkpt><trkpt lat="42.924570260320806" lon="10.532363707173376"><ele>17.0</ele><time>2026-04-19T10:44:13Z</time></trkpt><trkpt lat="42.924582191471536" lon="10.53225064999373"><ele>17.0</ele><time>2026-04-19T10:44:16Z</time></trkpt><trkpt lat="42.92457879744047" lon="10.532134377502707"><ele>17.0</ele><time>2026-04-19T10:44:20Z</time></trkpt><trkpt lat="42.92459447926782" lon="10.532023651868524"><ele>17.142857142857142</ele><time>2026-04-19T10:44:23Z</time></trkpt><trkpt lat="42.92459054399924" lon="10.531922115791582"><ele>17.285714285714285</ele><time>2026-04-19T10:44:26Z</time></trkpt><trkpt lat="42.92459531206507" lon="10.531822479620052"><ele>17.42857142857143</ele><time>2026-04-19T10:44:29Z</time></trkpt><trkpt lat="42.92458375039622" lon="10.53173674666084"><ele>17.57142857142857</ele><time>2026-04-19T10:44:32Z</time></trkpt><trkpt lat="42.924585532796776" lon="10.531646408848115"><ele>17.714285714285715</ele><time>2026-04-19T10:44:35Z</time></trkpt><trkpt lat="42.92459972344396" lon="10.531560608615273"><ele>17.857142857142858</ele><time>2026-04-19T10:44:38Z</time></trkpt><trkpt lat="42.924588079987686" lon="10.5314601235979"><ele>18.0</ele><time>2026-04-19T10:44:41Z</time></trkpt><trkpt lat="42.92461306869124" lon="10.531359971452535"><ele>18.000000000000004</ele><time>2026-04-19T10:44:44Z</time></trkpt><trkpt lat="42.924606881075995" lon="10.531269776651678"><ele>18.0</ele><time>2026-04-19T10:44:47Z</time></trkpt><trkpt lat="42.924623464504926" lon="10.531159209006322"><ele>18.0</ele><time>2026-04-19T10:44:51Z</time></trkpt><trkpt lat="42.92463542202551" lon="10.531068975815309"><ele>18.0</ele><time>2026-04-19T10:44:54Z</time></trkpt><trkpt lat="42.92464711245467" lon="10.530971168209911"><ele>18.0</ele><time>2026-04-19T10:44:58Z</time></trkpt><trkpt lat="42.92467121588371" lon="10.530867918539752"><ele>18.000000000000004</ele><time>2026-04-19T10:45:01.999Z</time></trkpt><trkpt lat="42.92469845717933" lon="10.530775208961495"><ele>18.0</ele><time>2026-04-19T10:45:05.999Z</time></trkpt><trkpt lat="42.924709872847856" lon="10.53067176031734"><ele>18.333333333333332</ele><time>2026-04-19T10:45:09Z</time></trkpt><trkpt lat="42.924715198606" lon="10.530575008436305"><ele>18.666666666666668</ele><time>2026-04-19T10:45:12Z</time></trkpt><trkpt lat="42.92469909068017" lon="10.53047499936042"><ele>19.0</ele><time>2026-04-19T10:45:15Z</time></trkpt><trkpt lat="42.92469969098511" lon="10.530379250179612"><ele>19.333333333333336</ele><time>2026-04-19T10:45:18Z</time></trkpt><trkpt lat="42.92472809242238" lon="10.530277328318338"><ele>19.666666666666668</ele><time>2026-04-19T10:45:22Z</time></trkpt><trkpt lat="42.92470045665074" lon="10.530183005755392"><ele>20.0</ele><time>2026-04-19T10:45:25Z</time></trkpt><trkpt lat="42.924690270162934" lon="10.530064526078244"><ele>20.0</ele><time>2026-04-19T10:45:28Z</time></trkpt><trkpt lat="42.92468625978107" lon="10.529964757595662"><ele>20.0</ele><time>2026-04-19T10:45:31Z</time></trkpt><trkpt lat="42.924705915476444" lon="10.529880366178878"><ele>20.0</ele><time>2026-04-19T10:45:34Z</time></trkpt><trkpt lat="42.92469701412241" lon="10.529758625720282"><ele>20.0</ele><time>2026-04-19T10:45:37Z</time></trkpt><trkpt lat="42.924688770997165" lon="10.529656852769476"><ele>20.0</ele><time>2026-04-19T10:45:40Z</time></trkpt><trkpt lat="42.924694070409636" lon="10.529552441272505"><ele>20.0</ele><time>2026-04-19T10:45:43Z</time></trkpt><trkpt lat="42.924721638863424" lon="10.5294545823196"><ele>19.857142857142858</ele><time>2026-04-19T10:45:47Z</time></trkpt><trkpt lat="42.924792843156716" lon="10.529403372962935"><ele>19.714285714285715</ele><time>2026-04-19T10:45:51Z</time></trkpt><trkpt lat="42.92485869675398" lon="10.529383068694845"><ele>19.57142857142857</ele><time>2026-04-19T10:45:54Z</time></trkpt><trkpt lat="42.924912002411794" lon="10.529437116692339"><ele>19.42857142857143</ele><time>2026-04-19T10:45:57Z</time></trkpt><trkpt lat="42.924904772622796" lon="10.529319448342672"><ele>19.28571428571429</ele><time>2026-04-19T10:46:02Z</time></trkpt><trkpt lat="42.92493202148969" lon="10.52922149395619"><ele>19.142857142857142</ele><time>2026-04-19T10:46:06Z</time></trkpt><trkpt lat="42.92495003796123" lon="10.529129795991999"><ele>19.0</ele><time>2026-04-19T10:46:09Z</time></trkpt><trkpt lat="42.92500882439843" lon="10.529078346287859"><ele>19.0</ele><time>2026-04-19T10:46:16Z</time></trkpt><trkpt lat="42.92496496053913" lon="10.52899790268209"><ele>19.0</ele><time>2026-04-19T10:46:20Z</time></trkpt><trkpt lat="42.924974650590094" lon="10.528893140055617"><ele>19.0</ele><time>2026-04-19T10:46:23Z</time></trkpt><trkpt lat="42.925001846185815" lon="10.528796926779103"><ele>19.0</ele><time>2026-04-19T10:46:28Z</time></trkpt><trkpt lat="42.92506451044621" lon="10.52873333641585"><ele>19.0</ele><time>2026-04-19T10:46:33Z</time></trkpt><trkpt lat="42.92514556839223" lon="10.52875138110145"><ele>19.0</ele><time>2026-04-19T10:46:38Z</time></trkpt><trkpt lat="42.92522936433153" lon="10.528760869096924"><ele>19.166666666666664</ele><time>2026-04-19T10:46:41Z</time></trkpt><trkpt lat="42.92530972411436" lon="10.52879237177188"><ele>19.333333333333332</ele><time>2026-04-19T10:46:44Z</time></trkpt><trkpt lat="42.92538503572027" lon="10.5288080953399"><ele>19.5</ele><time>2026-04-19T10:46:47Z</time></trkpt><trkpt lat="42.92545022261363" lon="10.528849913329621"><ele>19.666666666666668</ele><time>2026-04-19T10:46:50Z</time></trkpt><trkpt lat="42.9255158816944" lon="10.528894638650545"><ele>19.833333333333336</ele><time>2026-04-19T10:46:53Z</time></trkpt><trkpt lat="42.925587470698574" lon="10.528922310061548"><ele>20.0</ele><time>2026-04-19T10:46:56Z</time></trkpt><trkpt lat="42.925656540215805" lon="10.52895388327375"><ele>20.0</ele><time>2026-04-19T10:46:59Z</time></trkpt><trkpt lat="42.92572185043412" lon="10.529007135720425"><ele>20.0</ele><time>2026-04-19T10:47:03Z</time></trkpt><trkpt lat="42.925789704882284" lon="10.5290535776345"><ele>20.0</ele><time>2026-04-19T10:47:06Z</time></trkpt><trkpt lat="42.92586525962129" lon="10.529084286939103"><ele>20.0</ele><time>2026-04-19T10:47:08.999Z</time></trkpt><trkpt lat="42.925941423870164" lon="10.529143332377904"><ele>20.0</ele><time>2026-04-19T10:47:11.999Z</time></trkpt><trkpt lat="42.92601444485318" lon="10.529168879788607"><ele>20.0</ele><time>2026-04-19T10:47:15Z</time></trkpt><trkpt lat="42.92607482070203" lon="10.529195633813291"><ele>20.428571428571427</ele><time>2026-04-19T10:47:18Z</time></trkpt><trkpt lat="42.926138895539985" lon="10.529213450296647"><ele>20.857142857142858</ele><time>2026-04-19T10:47:21Z</time></trkpt><trkpt lat="42.92621818815084" lon="10.529248092436946"><ele>21.285714285714285</ele><time>2026-04-19T10:47:25Z</time></trkpt><trkpt lat="42.926279441830275" lon="10.529295721936876"><ele>21.714285714285715</ele><time>2026-04-19T10:47:28Z</time></trkpt><trkpt lat="42.926337297674884" lon="10.529335452173289"><ele>22.142857142857142</ele><time>2026-04-19T10:47:31Z</time></trkpt><trkpt lat="42.92639649942011" lon="10.529365427131282"><ele>22.571428571428573</ele><time>2026-04-19T10:47:34Z</time></trkpt><trkpt lat="42.92644556548849" lon="10.529452224374134"><ele>23.0</ele><time>2026-04-19T10:47:37Z</time></trkpt><trkpt lat="42.92652312389488" lon="10.529491383955374"><ele>23.0</ele><time>2026-04-19T10:47:42Z</time></trkpt><trkpt lat="42.92659896853835" lon="10.529512393093857"><ele>23.0</ele><time>2026-04-19T10:47:45Z</time></trkpt><trkpt lat="42.92661085072027" lon="10.529603862977073"><ele>23.0</ele><time>2026-04-19T10:47:47Z</time></trkpt><trkpt lat="42.926681275630195" lon="10.52962748566695"><ele>23.0</ele><time>2026-04-19T10:47:50Z</time></trkpt><trkpt lat="42.926752313888606" lon="10.52965855188431"><ele>23.0</ele><time>2026-04-19T10:47:53Z</time></trkpt><trkpt lat="42.92681185827229" lon="10.529708913968733"><ele>23.0</ele><time>2026-04-19T10:47:56Z</time></trkpt><trkpt lat="42.926870777171416" lon="10.529743522867895"><ele>23.0</ele><time>2026-04-19T10:47:59Z</time></trkpt><trkpt lat="42.926951101017075" lon="10.529795698189414"><ele>22.714285714285715</ele><time>2026-04-19T10:48:03Z</time></trkpt><trkpt lat="42.92702218169402" lon="10.529817314226507"><ele>22.428571428571427</ele><time>2026-04-19T10:48:06Z</time></trkpt><trkpt lat="42.927077758393196" lon="10.52986299818603"><ele>22.142857142857142</ele><time>2026-04-19T10:48:09Z</time></trkpt><trkpt lat="42.92715295927563" lon="10.529863913659037"><ele>21.857142857142858</ele><time>2026-04-19T10:48:12Z</time></trkpt><trkpt lat="42.92720473757912" lon="10.529795603472609"><ele>21.57142857142857</ele><time>2026-04-19T10:48:15Z</time></trkpt><trkpt lat="42.92723546539005" lon="10.529686161646291"><ele>21.285714285714285</ele><time>2026-04-19T10:48:18Z</time></trkpt><trkpt lat="42.927283501623045" lon="10.529628913886587"><ele>21.0</ele><time>2026-04-19T10:48:21Z</time></trkpt><trkpt lat="42.927329443878065" lon="10.529559621883507"><ele>21.166666666666668</ele><time>2026-04-19T10:48:24Z</time></trkpt><trkpt lat="42.92737399726474" lon="10.529476030116369"><ele>21.333333333333332</ele><time>2026-04-19T10:48:28Z</time></trkpt><trkpt lat="42.92739108180751" lon="10.529391487835822"><ele>21.5</ele><time>2026-04-19T10:48:32Z</time></trkpt><trkpt lat="42.92740097252427" lon="10.52930111551937"><ele>21.666666666666664</ele><time>2026-04-19T10:48:35Z</time></trkpt><trkpt lat="42.927377459323864" lon="10.529176303418698"><ele>21.833333333333332</ele><time>2026-04-19T10:48:39Z</time></trkpt><trkpt lat="42.92740474046739" lon="10.529071869790656"><ele>22.0</ele><time>2026-04-19T10:48:44Z</time></trkpt><trkpt lat="42.92744497065982" lon="10.528986882747889"><ele>22.0</ele><time>2026-04-19T10:48:48Z</time></trkpt><trkpt lat="42.92748196412699" lon="10.528893124388317"><ele>22.0</ele><time>2026-04-19T10:48:52Z</time></trkpt><trkpt lat="42.9275056209795" lon="10.528808288494925"><ele>22.0</ele><time>2026-04-19T10:48:55Z</time></trkpt><trkpt lat="42.9275148350766" lon="10.528715937185643"><ele>22.0</ele><time>2026-04-19T10:48:58Z</time></trkpt><trkpt lat="42.92752636812276" lon="10.528603311904888"><ele>22.0</ele><time>2026-04-19T10:49:01Z</time></trkpt><trkpt lat="42.92756638562351" lon="10.528503886072492"><ele>22.0</ele><time>2026-04-19T10:49:05Z</time></trkpt><trkpt lat="42.927572707749356" lon="10.52839011268274"><ele>22.0</ele><time>2026-04-19T10:49:10Z</time></trkpt><trkpt lat="42.92758254393378" lon="10.52826974855712"><ele>22.0</ele><time>2026-04-19T10:49:13Z</time></trkpt><trkpt lat="42.92760722916051" lon="10.528184980559738"><ele>22.0</ele><time>2026-04-19T10:49:15.999Z</time></trkpt><trkpt lat="42.92763134583708" lon="10.528093538563743"><ele>22.0</ele><time>2026-04-19T10:49:19Z</time></trkpt><trkpt lat="42.92765906904801" lon="10.528008884952982"><ele>22.0</ele><time>2026-04-19T10:49:22Z</time></trkpt><trkpt lat="42.9276886260876" lon="10.527932809729393"><ele>22.0</ele><time>2026-04-19T10:49:25Z</time></trkpt><trkpt lat="42.927728758447394" lon="10.527856442003113"><ele>22.0</ele><time>2026-04-19T10:49:28Z</time></trkpt><trkpt lat="42.92779825592111" lon="10.527777101879872"><ele>22.0</ele><time>2026-04-19T10:49:31Z</time></trkpt><trkpt lat="42.92782147317112" lon="10.527676371087926"><ele>22.0</ele><time>2026-04-19T10:49:35Z</time></trkpt><trkpt lat="42.92783820658474" lon="10.527584361778498"><ele>22.0</ele><time>2026-04-19T10:49:38Z</time></trkpt><trkpt lat="42.927874338779546" lon="10.527489197554287"><ele>22.0</ele><time>2026-04-19T10:49:41Z</time></trkpt><trkpt lat="42.9279086299977" lon="10.52737094791636"><ele>22.0</ele><time>2026-04-19T10:49:45Z</time></trkpt><trkpt lat="42.927943670281856" lon="10.527283131315185"><ele>22.0</ele><time>2026-04-19T10:49:48Z</time></trkpt><trkpt lat="42.92796102927546" lon="10.527195169016704"><ele>22.0</ele><time>2026-04-19T10:49:51Z</time></trkpt><trkpt lat="42.92799080376395" lon="10.527109407465721"><ele>22.0</ele><time>2026-04-19T10:49:54Z</time></trkpt><trkpt lat="42.92800703489717" lon="10.527021970039446"><ele>22.0</ele><time>2026-04-19T10:49:57Z</time></trkpt><trkpt lat="42.92803720740839" lon="10.526934020794405"><ele>22.0</ele><time>2026-04-19T10:50:00Z</time></trkpt><trkpt lat="42.92808725387022" lon="10.526835691325013"><ele>22.0</ele><time>2026-04-19T10:50:04Z</time></trkpt><trkpt lat="42.92811248235122" lon="10.526742190434641"><ele>22.0</ele><time>2026-04-19T10:50:07Z</time></trkpt><trkpt lat="42.928140702014375" lon="10.526659001516693"><ele>22.0</ele><time>2026-04-19T10:50:10Z</time></trkpt><trkpt lat="42.928176310265755" lon="10.52654579822694"><ele>22.142857142857142</ele><time>2026-04-19T10:50:14Z</time></trkpt><trkpt lat="42.92819529271242" lon="10.526460219685617"><ele>22.285714285714285</ele><time>2026-04-19T10:50:17Z</time></trkpt><trkpt lat="42.92821580608478" lon="10.52637356542786"><ele>22.42857142857143</ele><time>2026-04-19T10:50:20Z</time></trkpt><trkpt lat="42.928259362544416" lon="10.526288931890498"><ele>22.57142857142857</ele><time>2026-04-19T10:50:23Z</time></trkpt><trkpt lat="42.92827909603933" lon="10.526182570688297"><ele>22.71428571428571</ele><time>2026-04-19T10:50:27Z</time></trkpt><trkpt lat="42.9283242469827" lon="10.526104321561435"><ele>22.857142857142858</ele><time>2026-04-19T10:50:30Z</time></trkpt><trkpt lat="42.92833985898666" lon="10.526011780417535"><ele>23.0</ele><time>2026-04-19T10:50:33Z</time></trkpt><trkpt lat="42.92836778363425" lon="10.525915710020902"><ele>23.42857142857143</ele><time>2026-04-19T10:50:36Z</time></trkpt><trkpt lat="42.928403382145184" lon="10.525815382584604"><ele>23.857142857142854</ele><time>2026-04-19T10:50:40Z</time></trkpt><trkpt lat="42.92844093847381" lon="10.525743738653839"><ele>24.285714285714285</ele><time>2026-04-19T10:50:43Z</time></trkpt><trkpt lat="42.92847442260922" lon="10.525660015442217"><ele>24.714285714285715</ele><time>2026-04-19T10:50:46Z</time></trkpt><trkpt lat="42.928504246058274" lon="10.525570524570222"><ele>25.142857142857146</ele><time>2026-04-19T10:50:49Z</time></trkpt><trkpt lat="42.9284786401622" lon="10.525488767948977"><ele>25.57142857142857</ele><time>2026-04-19T10:50:53Z</time></trkpt><trkpt lat="42.92839735235213" lon="10.525514859345135"><ele>26.0</ele><time>2026-04-19T10:50:55.999Z</time></trkpt><trkpt lat="42.92833408036199" lon="10.52550126810794"><ele>26.0</ele><time>2026-04-19T10:50:58.999Z</time></trkpt><trkpt lat="42.928251786069886" lon="10.525485789881316"><ele>26.0</ele><time>2026-04-19T10:51:01.999Z</time></trkpt><trkpt lat="42.92816530445813" lon="10.525495127701554"><ele>26.0</ele><time>2026-04-19T10:51:05.999Z</time></trkpt><trkpt lat="42.92810334722285" lon="10.52551518307225"><ele>26.0</ele><time>2026-04-19T10:51:08.999Z</time></trkpt><trkpt lat="42.928033794972166" lon="10.525509138814723"><ele>26.0</ele><time>2026-04-19T10:51:12.999Z</time></trkpt></trkseg></trk></gpx>